[[{"header":{"parameterUnit":"m.s-1","parameterCategory":1,"la1":30.6,"la2":28.766,"lo1":-90.7593,"lo2":-88.6598,"dy":0.0162,"dx":0.0183,"nx":116,"ny":114,"refTime":"2023-08-05T06:00:00:Z","depth":0,"parameterNumber":2,"parameterNumberName":"U-component_of_WINDS"},"data":[0.0,0.0,0.0,0.0,0.0,0.0,0.0,0.0,0.0,0.0,0.0,0.0,0.0,0.0,0.0,0.0,0.0,0.0,0.0,0.0,0.0,0.0,0.0,0.0,0.0,0.0,0.0,0.0,0.0,0.0,0.0,0.0,0.0,0.0,0.0,0.0,0.0,0.0,0.0,0.0,0.0,0.0,0.0,0.0,0.0,0.0,0.0,0.0,0.0,0.0,0.0,0.0,0.0,0.0,0.0,0.0,0.0,0.0,0.0,0.0,0.0,0.0,0.0,0.0,0.0,0.0,0.0,0.0,0.0,0.0,0.0,0.0,0.0,0.0,0.0,0.0,0.0,0.0,0.0,0.0,0.0,0.0,0.0,0.0,0.0,0.0,0.0,0.0,0.0,0.0,0.0,0.0,0.0,0.0,0.0,0.0,0.0,0.0,0.0,0.0,0.0,0.0,0.0,0.0,0.0,0.0,0.0,0.0,0.0,0.0,0.0,0.0,0.0,0.0,0.0,0.0,0.0,0.0,0.0,0.0,0.0,0.0,0.0,0.0,0.0,0.0,0.0,0.0,0.0,0.0,0.0,0.0,0.0,0.0,0.0,0.0,0.0,0.0,0.0,0.0,0.0,0.0,0.0,0.0,0.0,0.0,0.0,0.0,0.0,0.0,0.0,0.0,0.0,0.0,0.0,0.0,0.0,0.0,0.0,0.0,0.0,0.0,0.0,0.0,0.0,0.0,0.0,0.0,0.0,0.0,0.0,0.0,0.0,0.0,0.0,0.0,0.0,0.0,0.0,0.0,0.0,0.0,0.0,0.0,0.0,0.0,0.0,0.0,0.0,0.0,0.0,0.0,0.0,0.0,0.0,0.0,0.0,0.0,0.0,0.0,0.0,0.0,0.0,0.0,0.0,0.0,0.0,0.0,0.0,0.0,0.0,0.0,0.0,0.0,0.0,0.0,0.0,0.0,0.0,0.0,0.0,0.0,0.0,0.0,0.0,0.0,0.0,0.0,0.0,0.0,0.0,0.0,0.0,0.0,0.0,0.0,0.0,0.0,0.0,0.0,0.0,0.0,0.0,0.0,0.0,0.0,0.0,0.0,0.0,0.0,0.0,0.0,0.0,0.0,0.0,0.0,0.0,0.0,0.0,0.0,0.0,0.0,0.0,0.0,0.0,0.0,0.0,0.0,0.0,0.0,0.0,0.0,0.0,0.0,0.0,0.0,0.0,0.0,0.0,0.0,0.0,0.0,0.0,0.0,0.0,0.0,0.0,0.0,0.0,0.0,0.0,0.0,0.0,0.0,0.0,0.0,0.0,0.0,0.0,0.0,0.0,0.0,0.0,0.0,0.0,0.0,0.0,0.0,0.0,0.0,0.0,0.0,0.0,0.0,0.0,0.0,0.0,0.0,0.0,0.0,0.0,0.0,0.0,0.0,0.0,0.0,0.0,0.0,0.0,0.0,0.0,0.0,0.0,0.0,0.0,0.0,0.0,0.0,0.0,0.0,0.0,0.0,0.0,0.0,0.0,0.0,0.0,0.0,0.0,0.0,0.0,0.0,0.0,0.0,0.0,0.0,0.0,0.0,0.0,0.0,0.0,0.0,0.0,0.0,0.0,0.0,0.0,0.0,0.0,0.0,0.0,0.0,0.0,0.0,0.0,0.0,0.0,0.0,0.0,0.0,0.0,0.0,0.0,0.0,0.0,0.0,0.0,0.0,0.0,0.0,0.0,0.0,0.0,0.0,0.0,0.0,0.0,0.0,0.0,0.0,0.0,0.0,0.0,0.0,0.0,0.0,0.0,0.0,0.0,0.0,0.0,0.0,0.0,0.0,0.0,0.0,0.0,0.0,0.0,0.0,0.0,0.0,0.0,0.0,0.0,0.0,0.0,0.0,0.0,0.0,0.0,0.0,0.0,0.0,0.0,0.0,0.0,0.0,0.0,0.0,0.0,0.0,0.0,0.0,0.0,0.0,0.0,0.0,0.0,0.0,0.0,0.0,0.0,0.0,0.0,0.0,0.0,0.0,0.0,0.0,0.0,0.0,0.0,0.0,0.0,0.0,0.0,0.0,0.0,0.0,0.0,0.0,0.0,0.0,0.0,0.0,0.0,0.0,0.0,0.0,0.0,0.0,0.0,0.0,0.0,0.0,0.0,0.0,0.0,0.0,0.0,0.0,0.0,0.0,0.0,0.0,0.0,0.0,0.0,0.0,0.0,0.0,0.0,0.0,0.0,0.0,0.0,0.0,0.0,0.0,0.0,0.0,0.0,0.0,0.0,0.0,0.0,0.0,0.0,0.0,0.0,0.0,0.0,0.0,0.0,0.0,0.0,0.0,0.0,0.0,0.0,0.0,0.0,0.0,0.0,0.0,0.0,0.0,0.0,0.0,0.0,0.0,0.0,0.0,0.0,0.0,0.0,0.0,0.0,0.0,0.0,0.0,0.0,0.0,0.0,0.0,0.0,0.0,0.0,0.0,0.0,0.0,0.0,0.0,0.0,0.0,0.0,0.0,0.0,0.0,0.0,0.0,0.0,0.0,0.0,0.0,0.0,0.0,0.0,0.0,0.0,0.0,0.0,0.0,0.0,0.0,0.0,0.0,0.0,0.0,0.0,0.0,0.0,0.0,0.0,0.0,0.0,0.0,0.0,0.0,0.0,0.0,0.0,0.0,0.0,0.0,0.0,0.0,0.0,0.0,0.0,0.0,0.0,0.0,0.0,0.0,0.0,0.0,0.0,0.0,0.0,0.0,0.0,0.0,0.0,0.0,0.0,0.0,0.0,0.0,0.0,0.0,0.0,0.0,0.0,0.0,0.0,0.0,0.0,0.0,0.0,0.0,0.0,0.0,0.0,0.0,0.0,0.0,0.0,0.0,0.0,0.0,0.0,0.0,0.0,0.0,0.0,0.0,0.0,0.0,0.0,0.0,0.0,0.0,0.0,0.0,0.0,0.0,0.0,0.0,0.0,0.0,0.0,0.0,0.0,0.0,0.0,0.0,0.0,0.0,0.0,0.0,0.0,0.0,0.0,0.0,0.0,0.0,0.0,0.0,0.0,0.0,0.0,0.0,0.0,0.0,0.0,0.0,0.0,0.0,0.0,0.0,0.0,0.0,0.0,0.0,0.0,0.0,0.0,0.0,0.0,0.0,0.0,0.0,0.0,0.0,0.0,0.0,0.0,0.0,0.0,0.0,0.0,0.0,0.0,0.0,0.0,0.0,0.0,0.0,0.0,0.0,0.0,0.0,0.0,0.0,0.0,0.0,0.0,0.0,0.0,0.0,0.0,0.0,0.0,0.0,0.0,0.0,0.0,0.0,0.0,0.0,0.0,0.0,0.0,0.0,0.0,0.0,0.0,0.0,0.0,0.0,0.0,0.0,0.0,0.0,0.0,0.0,0.0,0.0,0.0,0.0,0.0,0.0,0.0,0.0,0.0,0.0,0.0,0.0,0.0,0.0,0.0,0.0,0.0,0.0,0.0,0.0,0.0,0.0,0.0,0.0,0.0,0.0,0.0,0.0,0.0,0.0,0.0,0.0,0.0,0.0,0.0,0.0,0.0,0.0,0.0,0.0,0.0,0.0,0.0,0.0,0.0,0.0,0.0,0.0,0.0,0.0,0.0,0.0,0.0,0.0,0.0,0.0,0.0,0.0,0.0,0.0,0.0,0.0,0.0,0.0,0.0,0.0,0.0,0.0,0.0,0.0,0.0,0.0,0.0,0.0,0.0,0.0,0.0,0.0,0.0,0.0,0.0,0.0,0.0,0.0,0.0,0.0,0.0,0.0,0.0,0.0,0.0,0.0,0.0,0.0,0.0,0.0,0.0,0.0,0.0,0.0,0.0,0.0,0.0,0.0,0.0,0.0,0.0,0.0,0.0,0.0,0.0,0.0,0.0,0.0,0.0,0.0,0.0,0.0,0.0,0.0,0.0,0.0,0.0,0.0,0.0,0.0,0.0,0.0,0.0,0.0,0.0,0.0,0.0,0.0,0.0,0.0,0.0,0.0,0.0,0.0,0.0,0.0,0.0,0.0,0.0,0.0,0.0,0.0,0.0,0.0,0.0,0.0,0.0,0.0,0.0,0.0,0.0,0.0,0.0,0.0,0.0,0.0,0.0,0.0,0.0,0.0,0.0,0.0,0.0,0.0,0.0,0.0,0.0,0.0,0.0,0.0,0.0,0.0,0.0,0.0,0.0,0.0,0.0,0.0,0.0,0.0,0.0,0.0,0.0,0.0,0.0,0.0,0.0,0.0,0.0,0.0,0.0,0.0,0.0,0.0,0.0,0.0,0.0,0.0,0.0,0.0,0.0,0.0,0.0,0.0,0.0,0.0,0.0,0.0,0.0,0.0,0.0,0.0,0.0,0.0,0.0,0.0,0.0,0.0,0.0,0.0,0.0,0.0,0.0,0.0,0.0,0.0,0.0,0.0,0.0,0.0,0.0,0.0,0.0,0.0,0.0,0.0,0.0,0.0,0.0,0.0,0.0,0.0,0.0,0.0,0.0,0.0,0.0,0.0,0.0,0.0,0.0,0.0,0.0,0.0,0.0,0.0,0.0,0.0,0.0,0.0,0.0,0.0,0.0,0.0,0.0,0.0,0.0,0.0,0.0,0.0,0.0,0.0,0.0,0.0,0.0,0.0,0.0,0.0,0.0,0.0,0.0,0.0,0.0,0.0,0.0,0.0,0.0,0.0,0.0,0.0,0.0,0.0,0.0,0.0,0.0,0.0,0.0,0.0,0.0,0.0,0.0,0.0,0.0,0.0,0.0,0.0,0.0,0.0,0.0,0.0,0.0,0.0,0.0,0.0,0.0,0.0,0.0,0.0,0.0,0.0,0.0,0.0,0.0,0.0,0.0,0.0,0.0,0.0,0.0,0.0,0.0,0.0,0.0,0.0,0.0,0.0,0.0,0.0,0.0,0.0,0.0,0.0,0.0,0.0,0.0,0.0,0.0,0.0,0.0,0.0,0.0,0.0,0.0,0.0,0.0,0.0,0.0,0.0,0.0,0.0,0.0,0.0,0.0,0.0,0.0,0.0,0.0,0.0,0.0,0.0,0.0,0.0,0.0,0.0,0.0,0.0,0.0,0.0,0.0,0.0,0.0,0.0,0.0,0.0,0.0,0.0,0.0,0.0,0.0,0.0,0.0,0.0,0.0,0.0,0.0,0.0,0.0,0.0,0.0,0.0,0.0,0.0,0.0,0.0,0.0,0.0,0.0,0.0,0.0,0.0,0.0,0.0,0.0,0.0,0.0,0.0,0.0,0.0,0.0,0.0,0.0,0.0,0.0,0.0,0.0,0.0,0.0,0.0,0.0,0.0,0.0,0.0,0.0,0.0,0.0,0.0,0.0,0.0,0.0,0.0,0.0,0.0,0.0,0.0,0.0,0.0,0.0,0.0,0.0,0.0,0.0,0.0,0.0,0.0,0.0,0.0,0.0,0.0,0.0,0.0,0.0,0.0,0.0,0.0,0.0,0.0,0.0,0.0,0.0,0.0,0.0,0.0,0.0,0.0,0.0,0.0,0.0,0.0,0.0,0.0,0.0,0.0,0.0,0.0,0.0,0.0,0.0,0.0,0.0,0.0,0.0,0.0,0.0,0.0,0.0,0.0,0.0,0.0,0.0,0.0,0.0,0.0,0.0,0.0,0.0,0.0,0.0,0.0,0.0,0.0,0.0,0.0,0.0,0.0,0.0,0.0,0.0,0.0,0.0,0.0,0.0,0.0,0.0,0.0,0.0,0.0,0.0,0.0,0.0,0.0,0.0,0.0,0.0,0.0,0.0,0.0,0.0,0.0,0.0,0.0,0.0,0.0,0.0,0.0,0.0,0.0,0.0,0.0,0.0,0.0,0.0,0.0,0.0,0.0,0.0,0.0,0.0,0.0,0.0,0.0,0.0,0.0,0.0,0.0,0.0,0.0,0.0,0.0,0.0,0.0,0.0,0.0,0.0,0.0,0.0,0.0,0.0,0.0,0.0,0.0,0.0,0.0,0.0,0.0,0.0,0.0,0.0,0.0,0.0,0.0,0.0,0.0,0.0,0.0,0.0,0.0,0.0,0.0,0.0,0.0,0.0,0.0,0.0,0.0,0.0,0.0,-3.8925,-3.8993,0.0,0.0,0.0,0.0,0.0,0.0,0.0,0.0,0.0,0.0,0.0,0.0,0.0,0.0,0.0,0.0,0.0,0.0,0.0,0.0,0.0,0.0,0.0,0.0,0.0,0.0,0.0,0.0,0.0,0.0,0.0,0.0,0.0,0.0,0.0,0.0,0.0,0.0,0.0,0.0,0.0,0.0,0.0,0.0,0.0,0.0,0.0,0.0,0.0,0.0,0.0,0.0,0.0,0.0,0.0,0.0,0.0,0.0,0.0,0.0,0.0,0.0,0.0,0.0,0.0,0.0,0.0,0.0,0.0,0.0,0.0,0.0,0.0,0.0,0.0,0.0,0.0,0.0,0.0,0.0,0.0,0.0,0.0,0.0,0.0,0.0,0.0,0.0,0.0,0.0,0.0,0.0,0.0,0.0,0.0,0.0,0.0,0.0,0.0,0.0,0.0,0.0,0.0,0.0,0.0,0.0,0.0,0.0,0.0,0.0,0.0,0.0,0.0,0.0,-3.8749,-3.8884,0.0,0.0,0.0,0.0,0.0,0.0,0.0,0.0,0.0,0.0,0.0,0.0,0.0,0.0,0.0,0.0,0.0,0.0,0.0,0.0,0.0,0.0,0.0,0.0,0.0,0.0,0.0,0.0,0.0,0.0,0.0,0.0,0.0,0.0,0.0,0.0,0.0,0.0,0.0,0.0,0.0,0.0,0.0,0.0,0.0,0.0,0.0,0.0,0.0,0.0,0.0,0.0,0.0,0.0,0.0,0.0,0.0,0.0,0.0,0.0,0.0,0.0,0.0,0.0,0.0,0.0,0.0,0.0,0.0,0.0,0.0,0.0,0.0,0.0,0.0,0.0,0.0,0.0,0.0,0.0,0.0,0.0,0.0,0.0,0.0,0.0,0.0,0.0,0.0,0.0,0.0,0.0,0.0,0.0,0.0,0.0,0.0,0.0,0.0,0.0,0.0,0.0,0.0,0.0,0.0,0.0,0.0,0.0,-3.7377,-3.739,-3.7485,-3.7485,-3.7485,-3.7512,-3.7935,-3.8165,-3.826,-3.826,0.0,0.0,0.0,0.0,0.0,0.0,0.0,0.0,0.0,0.0,0.0,0.0,0.0,0.0,0.0,0.0,0.0,0.0,0.0,0.0,0.0,0.0,0.0,0.0,0.0,0.0,0.0,0.0,0.0,0.0,0.0,0.0,0.0,0.0,0.0,0.0,0.0,0.0,-4.0489,-4.0489,-4.0489,-4.0489,0.0,0.0,0.0,0.0,0.0,0.0,0.0,0.0,0.0,0.0,0.0,0.0,0.0,0.0,0.0,0.0,0.0,0.0,0.0,0.0,0.0,0.0,0.0,0.0,0.0,0.0,0.0,0.0,0.0,0.0,0.0,0.0,0.0,0.0,0.0,0.0,0.0,0.0,0.0,0.0,0.0,0.0,0.0,0.0,-3.825,-3.825,0.0,0.0,0.0,0.0,0.0,0.0,0.0,0.0,0.0,0.0,0.0,0.0,0.0,-3.6985,-3.7485,-3.6999,-3.6999,-3.7485,-3.6985,-3.7012,-3.7485,-3.7485,-3.7485,-3.7472,-3.7039,0.0,-3.7607,-3.7607,0.0,0.0,0.0,0.0,0.0,0.0,0.0,0.0,0.0,0.0,0.0,0.0,0.0,0.0,0.0,0.0,0.0,0.0,0.0,0.0,0.0,0.0,0.0,0.0,0.0,0.0,0.0,0.0,0.0,0.0,0.0,0.0,0.0,0.0,0.0,0.0,-3.9687,-3.9551,-3.992,-3.992,-4.0136,-4.0489,-4.0489,-4.0489,-4.0505,-4.0436,0.0,0.0,0.0,0.0,0.0,0.0,0.0,0.0,0.0,0.0,0.0,0.0,0.0,0.0,0.0,0.0,0.0,0.0,0.0,0.0,0.0,0.0,0.0,0.0,0.0,0.0,0.0,0.0,0.0,0.0,0.0,0.0,0.0,0.0,0.0,0.0,0.0,0.0,0.0,-3.804,-3.7913,-3.7472,-3.8524,-3.8906,0.0,0.0,0.0,0.0,0.0,0.0,0.0,0.0,0.0,-3.609,-3.6103,-3.6239,-3.6469,-3.6239,-3.6239,-3.6469,-3.6564,-3.6741,-3.7026,-3.7336,-3.7485,-3.7472,-3.7201,-3.7241,-3.7458,-3.7148,-3.7161,-3.7406,0.0,0.0,0.0,0.0,-3.6305,-3.5898,0.0,0.0,0.0,0.0,0.0,0.0,0.0,0.0,0.0,0.0,0.0,0.0,0.0,0.0,0.0,0.0,0.0,0.0,0.0,0.0,0.0,0.0,0.0,0.0,0.0,0.0,0.0,0.0,-3.8738,-3.8769,-3.9228,-3.9228,-3.949,-3.9982,-3.9982,-4.0166,-4.0489,-4.0401,-4.0296,0.0,0.0,0.0,0.0,0.0,0.0,0.0,0.0,0.0,0.0,0.0,0.0,0.0,0.0,0.0,0.0,0.0,0.0,0.0,0.0,0.0,0.0,0.0,0.0,0.0,0.0,0.0,0.0,0.0,0.0,0.0,0.0,0.0,0.0,0.0,0.0,0.0,0.0,-3.7256,-3.7242,-3.6663,-3.7829,-3.8279,0.0,0.0,0.0,0.0,0.0,0.0,-3.575,-3.5804,-3.5844,-3.571,-3.571,-3.5791,-3.594,-3.594,-3.6022,-3.6185,-3.6632,-3.6836,-3.6849,-3.7282,-3.7485,-3.7485,-3.7485,-3.7485,-3.7458,-3.7026,-3.6931,-3.7094,-3.7363,-3.7452,-3.7349,-3.6518,-3.6164,-3.5984,0.0,0.0,0.0,0.0,0.0,0.0,0.0,0.0,0.0,0.0,0.0,0.0,0.0,0.0,0.0,0.0,0.0,0.0,0.0,0.0,0.0,0.0,0.0,0.0,0.0,0.0,0.0,-3.8541,-3.8508,-3.8523,-3.8554,-3.8554,-3.8585,-3.8616,-3.8616,-3.929,-4.0489,-4.0489,-4.0296,-3.9996,0.0,0.0,0.0,0.0,0.0,0.0,0.0,0.0,0.0,0.0,0.0,0.0,0.0,0.0,0.0,0.0,0.0,0.0,0.0,0.0,0.0,0.0,0.0,0.0,0.0,0.0,0.0,0.0,0.0,0.0,0.0,0.0,0.0,0.0,0.0,0.0,0.0,0.0,0.0,-3.575,-3.652,0.0,0.0,0.0,0.0,-3.5871,-3.6872,-3.7028,-3.575,-3.6098,-3.6152,-3.571,-3.571,-3.5995,-3.6551,-3.6551,-3.6849,-3.7404,-3.7431,-3.7445,-3.7445,-3.7472,-3.7485,-3.7485,-3.7485,-3.7485,-3.7485,-3.7458,-3.777,-3.8274,-3.7702,-3.7752,-3.7954,-3.709,-3.6648,-3.6432,0.0,0.0,0.0,0.0,0.0,0.0,0.0,0.0,0.0,0.0,0.0,0.0,0.0,0.0,0.0,0.0,0.0,0.0,0.0,0.0,0.0,0.0,0.0,0.0,0.0,0.0,-3.7215,-3.7215,-3.7215,-3.743,-3.7861,-3.7861,-3.8092,-3.8508,-3.8508,-3.8719,-3.9079,-3.8944,-3.8823,-3.8686,-3.8415,-3.8227,0.0,0.0,0.0,0.0,0.0,0.0,0.0,0.0,0.0,0.0,0.0,0.0,0.0,0.0,0.0,0.0,0.0,0.0,0.0,0.0,0.0,0.0,0.0,0.0,0.0,0.0,0.0,0.0,0.0,0.0,0.0,0.0,0.0,0.0,0.0,0.0,0.0,-3.575,-3.6401,0.0,-3.6218,-3.6858,-3.7014,-3.6218,-3.627,-3.6177,-3.571,-3.5844,-3.6062,-3.6266,-3.628,-3.6578,-3.7147,-3.7202,-3.7268,-3.7485,-3.7878,-3.8055,-3.8068,-3.8491,-3.8667,-3.8667,-3.8667,-3.8667,-3.8667,-3.8667,-3.8355,-3.7783,-3.7452,-3.7279,-3.7197,-3.6781,-3.6471,-3.624,0.0,0.0,0.0,0.0,0.0,0.0,0.0,0.0,0.0,0.0,0.0,0.0,0.0,0.0,0.0,0.0,0.0,0.0,0.0,0.0,0.0,0.0,0.0,0.0,0.0,0.0,0.0,0.0,0.0,0.0,0.0,0.0,-3.74,-3.7831,-3.7831,-3.7734,-3.7571,-3.739,-3.7564,-3.7873,-3.7605,-3.7454,-3.7404,0.0,0.0,0.0,0.0,0.0,0.0,0.0,0.0,0.0,0.0,0.0,0.0,0.0,0.0,0.0,0.0,0.0,0.0,0.0,0.0,0.0,0.0,0.0,0.0,0.0,0.0,0.0,0.0,0.0,0.0,0.0,0.0,0.0,0.0,-3.6177,-3.6282,-3.575,-3.6177,-3.6415,-3.6178,-3.6375,-3.6415,-3.6178,-3.5884,-3.571,-3.571,-3.59,-3.6198,-3.6592,-3.6809,-3.7216,-3.7783,-3.7783,-3.7892,-3.8095,-3.8532,-3.8708,-3.8735,-3.9129,-3.9305,-3.9305,-3.9305,-3.9305,-3.9305,-3.9305,-3.8786,-3.7939,-3.7822,-3.7548,-3.7285,-3.7109,-3.6932,-3.6711,0.0,0.0,0.0,0.0,0.0,0.0,0.0,0.0,0.0,0.0,0.0,0.0,0.0,0.0,0.0,0.0,0.0,0.0,0.0,0.0,0.0,0.0,0.0,0.0,0.0,0.0,0.0,0.0,0.0,0.0,0.0,0.0,0.0,0.0,-3.6492,-3.6383,-3.6179,-3.6068,-3.6635,-3.7613,-3.7613,-3.7496,-3.731,0.0,0.0,0.0,0.0,0.0,0.0,0.0,0.0,0.0,0.0,0.0,0.0,0.0,0.0,0.0,0.0,0.0,0.0,0.0,0.0,0.0,0.0,0.0,0.0,0.0,0.0,0.0,0.0,0.0,0.0,0.0,0.0,0.0,-3.5831,-3.571,-3.571,-3.571,-3.571,-3.5723,-3.571,-3.571,-3.5723,-3.571,-3.571,-3.5723,-3.575,-3.628,-3.6619,-3.6659,-3.7201,-3.7811,-3.8437,-3.845,-3.8735,-3.9305,-3.9305,-3.9305,-3.9305,-3.9305,-3.9305,-3.9305,-3.9305,-3.9305,-3.9305,-3.9305,-3.9158,-3.8908,-3.8908,-3.8594,-3.82,-3.82,-3.8057,-3.79,0.0,0.0,0.0,0.0,0.0,0.0,0.0,0.0,0.0,0.0,0.0,0.0,0.0,0.0,0.0,0.0,0.0,0.0,0.0,0.0,0.0,0.0,0.0,0.0,0.0,0.0,0.0,0.0,0.0,0.0,0.0,0.0,0.0,0.0,0.0,-3.632,-3.6053,-3.6005,-3.6041,-3.6094,-3.6094,-3.5718,-3.5156,0.0,0.0,0.0,0.0,0.0,0.0,0.0,0.0,0.0,0.0,0.0,0.0,0.0,0.0,0.0,0.0,0.0,0.0,0.0,0.0,0.0,0.0,0.0,0.0,0.0,0.0,0.0,0.0,0.0,0.0,0.0,-3.5911,-3.5937,-3.571,-3.571,-3.571,-3.571,-3.6018,-3.6058,-3.571,-3.6018,-3.6058,-3.5723,-3.571,-3.59,-3.6334,-3.651,-3.6999,-3.7894,-3.8084,-3.845,-3.9061,-3.9061,-3.9142,-3.9305,-3.9305,-3.9305,-3.9305,-3.9305,-3.9305,-3.9305,-3.9305,-3.9305,-3.9292,-3.91,-3.8877,-3.8679,-3.8679,-3.8485,-3.8167,-3.8057,-3.7946,-3.79,0.0,0.0,0.0,0.0,0.0,0.0,0.0,0.0,0.0,0.0,0.0,0.0,0.0,0.0,0.0,0.0,0.0,0.0,0.0,0.0,0.0,0.0,0.0,0.0,0.0,0.0,0.0,0.0,0.0,0.0,0.0,0.0,0.0,0.0,0.0,0.0,-3.6005,-3.6005,-3.5797,-3.5472,-3.5133,-3.4725,-3.4279,-3.3842,-3.338,-3.282,-3.2254,-3.206,-3.1852,-3.0809,0.0,0.0,0.0,0.0,0.0,0.0,0.0,0.0,0.0,0.0,0.0,0.0,0.0,0.0,0.0,0.0,0.0,0.0,0.0,0.0,0.0,0.0,0.0,0.0,-3.571,-3.571,-3.571,-3.571,-3.5764,-3.5978,-3.6232,-3.6272,-3.6018,-3.6232,-3.6192,-3.5723,-3.594,-3.6239,-3.6578,-3.708,-3.7691,-3.8396,-3.8667,-3.8952,-3.9305,-3.9305,-3.9305,-3.9305,-3.9305,-3.9305,-3.9305,-3.9305,-3.9305,-3.9305,-3.9305,-3.9305,-3.9305,-3.9011,-3.8787,0.0,0.0,0.0,0.0,0.0,-3.79,-3.79,0.0,0.0,0.0,0.0,0.0,0.0,0.0,0.0,0.0,0.0,0.0,0.0,0.0,0.0,0.0,0.0,0.0,0.0,0.0,0.0,0.0,0.0,0.0,0.0,0.0,0.0,0.0,0.0,0.0,0.0,0.0,0.0,0.0,0.0,0.0,0.0,-3.6005,-3.5973,-3.5718,-3.5294,-3.4509,-3.4163,-3.4027,-3.3136,-3.2713,-3.2464,-3.1426,-3.1082,-3.0895,-3.0075,0.0,0.0,0.0,0.0,0.0,0.0,0.0,0.0,0.0,0.0,0.0,0.0,0.0,0.0,0.0,0.0,0.0,0.0,0.0,0.0,0.0,0.0,0.0,0.0,-3.571,-3.571,-3.571,-3.571,-3.5884,-3.6351,-3.6431,-3.6431,-3.6391,-3.6431,-3.6286,-3.5859,-3.6307,-3.6659,-3.6795,-3.784,0.0,0.0,0.0,-3.9305,-3.9305,-3.9305,-3.9305,-3.9305,-3.9305,-3.9305,-3.9305,-3.9305,-3.9305,-3.9305,-3.9305,-3.9305,-3.9305,-3.9011,-3.8711,-3.8512,-3.8272,-3.8057,-3.79,-3.79,-3.79,-3.79,0.0,0.0,0.0,0.0,0.0,0.0,0.0,0.0,0.0,0.0,0.0,0.0,0.0,0.0,0.0,0.0,0.0,0.0,0.0,0.0,0.0,0.0,0.0,0.0,0.0,0.0,0.0,0.0,0.0,0.0,0.0,0.0,0.0,0.0,0.0,0.0,0.0,-3.5831,-3.527,-3.4461,-3.3699,-3.3339,-3.3101,-3.2313,-3.1429,-3.0608,-3.0394,-3.0216,-3.0037,-2.9856,-2.9792,-2.9792,-2.9792,0.0,0.0,0.0,0.0,0.0,0.0,0.0,0.0,0.0,0.0,0.0,0.0,0.0,0.0,0.0,0.0,0.0,0.0,0.0,0.0,-3.571,-3.571,-3.571,-3.571,-3.571,-3.5884,-3.6351,-3.6693,-3.6772,-3.6431,-3.6693,-3.6756,-3.6429,-3.6537,-3.7026,-3.8016,-3.8288,-3.864,-3.9115,-3.9237,-3.9305,-3.9305,-3.9305,-3.9305,-3.9305,0.0,0.0,-3.9305,-3.9305,-3.9305,-3.9305,-3.9305,-3.9305,-3.9261,-3.8859,-3.8421,-3.8037,-3.7992,-3.7933,-3.79,-3.79,-3.79,-3.79,0.0,0.0,0.0,0.0,0.0,0.0,0.0,0.0,0.0,0.0,0.0,0.0,0.0,0.0,0.0,0.0,0.0,0.0,0.0,0.0,0.0,0.0,0.0,0.0,0.0,0.0,0.0,0.0,0.0,0.0,0.0,0.0,0.0,0.0,0.0,0.0,0.0,-3.5382,-3.4828,-3.4197,-3.3003,-3.2384,-3.2132,-3.1368,-3.0684,-3.0075,-2.9972,-2.9908,-2.9792,-2.9792,-2.9792,-2.9792,-2.9792,-3.0011,-3.0254,0.0,0.0,0.0,0.0,0.0,0.0,0.0,0.0,0.0,0.0,0.0,0.0,0.0,0.0,-3.571,-3.571,0.0,-3.571,-3.571,-3.571,-3.571,-3.571,-3.5884,-3.6218,-3.6654,-3.6875,-3.6915,-3.6733,-3.707,-3.7114,-3.6633,-3.7084,-3.7657,-3.8369,-3.8708,-3.8993,-3.9292,-3.9305,-3.9305,-3.9305,-3.9305,-3.9305,-3.9305,-3.9305,-3.9305,-3.9305,-3.9305,-3.9305,-3.9305,-3.9305,-3.9305,-3.9261,-3.8782,-3.8344,-3.79,-3.79,-3.79,-3.79,-3.79,-3.79,-3.79,0.0,0.0,0.0,0.0,0.0,0.0,0.0,0.0,0.0,0.0,0.0,0.0,0.0,0.0,0.0,0.0,0.0,0.0,0.0,0.0,0.0,0.0,0.0,0.0,0.0,0.0,0.0,0.0,0.0,0.0,0.0,0.0,0.0,0.0,0.0,0.0,0.0,-3.4975,-3.438,-3.3973,-3.2456,-3.1613,-3.122,-3.0621,-3.0254,-3.0011,-2.9869,-2.9792,-2.9792,-2.9792,-2.9792,-2.9792,-2.9869,-3.0011,-3.019,-3.0406,-3.0609,0.0,0.0,0.0,0.0,0.0,0.0,0.0,0.0,-3.5127,-3.5277,-3.5642,-3.571,-3.571,-3.571,-3.571,-3.571,-3.571,-3.571,-3.571,-3.571,-3.6098,-3.6549,-3.6954,-3.707,-3.7109,-3.7109,-3.7455,-3.7467,-3.6934,-3.7702,-3.8276,-3.8559,-3.9047,-3.9305,-3.9305,-3.9305,-3.9305,-3.9305,-3.9305,-3.9305,-3.9305,-3.9305,-3.9305,-3.9305,-3.9305,-3.9305,-3.9305,-3.9305,-3.9247,-3.9203,-3.8769,-3.8344,-3.7933,-3.79,-3.79,-3.79,-3.79,-3.79,-3.79,0.0,0.0,0.0,0.0,0.0,0.0,0.0,0.0,0.0,0.0,0.0,0.0,0.0,0.0,0.0,0.0,0.0,0.0,0.0,0.0,0.0,0.0,0.0,0.0,0.0,0.0,0.0,0.0,0.0,0.0,0.0,0.0,0.0,0.0,0.0,0.0,0.0,-3.4828,-3.3939,-3.3248,-3.2398,-3.1442,-3.0508,-3.0444,-3.0152,-2.983,-2.9792,-2.9792,-2.9792,-2.9792,-2.9792,-2.983,-3.0011,-3.019,-3.0406,-3.0609,-3.0811,-3.1235,-3.2385,-3.343,-3.4241,-3.4358,-3.4577,-3.4839,0.0,-3.5236,-3.544,-3.5642,-3.571,-3.571,-3.571,-3.571,-3.571,-3.571,-3.571,-3.571,-3.571,-3.6098,-3.6549,-3.6954,-3.7303,-3.7534,-3.7534,-3.776,-3.7886,-3.7924,-3.8218,-3.8616,-3.9169,-3.9264,-3.9305,-3.9305,-3.9305,-3.9305,-3.9305,-3.9305,-3.9305,-3.9305,-3.9305,-3.9305,-3.9305,-3.9305,-3.9305,-3.9305,-3.9305,-3.9145,-3.8908,-3.8679,-3.8408,-3.8167,-3.7979,-3.79,-3.79,-3.79,-3.79,-3.79,0.0,0.0,0.0,0.0,0.0,0.0,0.0,0.0,0.0,0.0,0.0,0.0,0.0,0.0,0.0,0.0,0.0,0.0,0.0,0.0,0.0,0.0,0.0,0.0,0.0,0.0,0.0,0.0,0.0,0.0,0.0,0.0,0.0,0.0,0.0,0.0,0.0,0.0,-3.3492,-3.3087,-3.1809,-3.0998,-3.0533,-3.0305,-3.0113,-2.9972,-2.983,-2.9792,0.0,0.0,-2.9792,-2.983,-3.0049,-3.0152,-3.0368,-3.1134,-3.111,-3.1096,-3.2346,-3.3522,-3.4439,-3.4577,-3.4714,-3.488,-3.5195,-3.5358,-3.548,-3.5669,-3.571,-3.571,-3.571,-3.571,-3.571,-3.571,-3.571,-3.571,-3.571,-3.6324,-3.6797,-3.6978,-3.79,-3.8438,-3.8192,-3.8581,-3.8802,-3.8698,-3.8719,-3.8915,-3.9264,-3.9305,-3.9305,-3.9305,-3.9305,-3.9543,-4.0071,-4.0071,-4.0071,-4.0071,-4.0071,-3.9779,-3.9305,-3.9305,-3.9305,-3.9305,-3.9145,-3.8922,-3.8711,-3.8498,-3.8226,-3.8011,-3.7946,-3.79,-3.79,-3.79,-3.79,-3.79,0.0,0.0,0.0,0.0,0.0,0.0,0.0,0.0,0.0,0.0,0.0,0.0,0.0,0.0,0.0,0.0,0.0,0.0,0.0,0.0,0.0,0.0,0.0,0.0,0.0,0.0,0.0,0.0,0.0,0.0,0.0,0.0,0.0,0.0,0.0,0.0,0.0,0.0,-3.3178,-3.3052,-3.1445,-3.0736,-3.066,-3.0394,-3.0228,-3.0152,-2.9908,-2.9792,0.0,0.0,-2.983,-2.9934,-3.0113,-3.0228,-3.0457,-3.1307,-3.1408,-3.1448,-3.2437,-3.3522,-3.4452,-3.4618,-3.4797,-3.4962,-3.5236,-3.5399,-3.5521,-3.5669,-3.571,-3.571,-3.571,-3.571,-3.571,-3.571,-3.571,-3.5764,-3.5884,-3.6508,-3.7127,-3.7413,-3.8619,-3.9406,-3.9291,-3.9456,-3.9462,-3.9269,-3.9137,-3.9166,-3.9278,-3.9305,-3.9305,-3.9305,-3.9543,-3.9954,-4.0603,-4.0859,-4.0986,-4.0986,-4.0731,-4.0273,-3.9675,-3.9424,-3.9247,-3.9203,-3.8997,-3.8787,-3.8557,-3.8304,-3.8135,-3.7979,-3.79,-3.79,-3.79,-3.79,-3.79,-3.79,0.0,0.0,0.0,0.0,0.0,0.0,0.0,0.0,0.0,0.0,0.0,0.0,0.0,0.0,0.0,0.0,0.0,0.0,0.0,0.0,0.0,0.0,0.0,0.0,0.0,0.0,0.0,0.0,0.0,0.0,0.0,0.0,0.0,0.0,0.0,0.0,0.0,0.0,0.0,-3.3087,-3.1579,-3.0874,-3.0698,-3.0698,-3.0571,-3.033,-2.9934,0.0,0.0,0.0,-2.9934,-3.0113,-3.033,-3.0533,0.0,-3.0949,-3.1809,-3.2646,-3.2685,-3.3522,-3.4397,-3.4397,-3.4743,-3.5086,-3.5127,-3.5399,-3.5669,-3.571,-3.571,-3.571,-3.571,-3.571,-3.571,-3.571,-3.571,-3.5844,-3.6312,-3.6733,-3.7413,-3.8414,-3.9448,-4.0321,-4.0974,-4.0203,-3.9704,-3.969,-3.9449,-3.9278,-3.9305,-3.9305,-3.9305,-3.9305,-4.0114,-4.0546,-4.0603,-4.1505,-4.1949,-4.1949,-4.1029,-4.0603,-4.0518,-3.9675,-3.9158,-3.8908,-3.8908,-3.8787,-3.8557,-3.8304,-3.82,-3.8167,-3.7979,-3.79,-3.79,-3.79,-3.79,-3.79,0.0,0.0,0.0,0.0,0.0,0.0,0.0,0.0,0.0,0.0,0.0,0.0,0.0,0.0,0.0,0.0,0.0,0.0,0.0,0.0,0.0,0.0,0.0,0.0,0.0,0.0,0.0,0.0,0.0,0.0,0.0,0.0,0.0,0.0,0.0,0.0,0.0,0.0,0.0,0.0,-3.2137,-3.1394,-3.0874,-3.0736,-3.0973,-3.1294,0.0,0.0,0.0,0.0,-3.1318,-3.1792,-3.201,-3.1783,-3.1381,-3.1086,-3.2167,-3.334,-3.2843,-3.3522,-3.4481,-3.4784,-3.499,-3.5154,-3.544,-3.5602,-3.571,-3.571,-3.571,-3.571,-3.571,-3.571,-3.571,-3.571,-3.571,-3.5844,-3.6312,-3.7473,-3.8345,-3.8564,-4.0621,-4.1763,-4.1157,-4.1302,-4.1121,-4.0407,-4.0377,-4.0303,-4.0158,-4.0144,-4.046,-4.1071,-4.1394,-4.1796,-4.2397,-4.2695,-4.2548,-4.199,-4.0474,-4.0027,-4.0546,-3.9706,-3.9145,-3.8908,-3.8756,-3.8575,-3.8317,-3.8103,-3.8024,-3.7965,-3.7946,-3.79,-3.79,-3.79,-3.79,-3.79,0.0,0.0,0.0,0.0,0.0,0.0,0.0,0.0,0.0,0.0,0.0,0.0,0.0,0.0,0.0,0.0,0.0,0.0,0.0,0.0,0.0,0.0,0.0,0.0,0.0,0.0,0.0,0.0,0.0,0.0,0.0,0.0,0.0,0.0,0.0,0.0,0.0,0.0,0.0,0.0,0.0,-3.2051,-3.1394,-3.1542,-3.17,0.0,0.0,0.0,0.0,0.0,-3.2263,-3.2664,-3.255,-3.2037,-3.1468,-3.1086,-3.2129,-3.3301,-3.2843,-3.3522,-3.4481,-3.4867,-3.5044,-3.5195,-3.5521,-3.5642,-3.571,-3.571,-3.571,-3.571,-3.571,-3.571,-3.571,-3.571,-3.6017,-3.6336,-3.6575,-3.8198,-3.9328,-3.9153,-4.1424,-4.2687,-4.188,-4.2619,-4.264,-4.1269,-4.1254,-4.1225,-4.1113,-4.1113,-4.138,-4.199,-4.2319,-4.271,-4.3284,-4.36,-4.3324,-4.2441,-4.131,-4.0873,-4.1071,-4.0158,-3.9618,-3.9384,-3.8845,-3.8453,-3.8167,-3.7979,-3.79,-3.79,-3.79,-3.79,-3.79,-3.79,-3.79,-3.79,0.0,0.0,0.0,0.0,0.0,0.0,0.0,0.0,0.0,0.0,0.0,0.0,0.0,0.0,0.0,0.0,0.0,0.0,0.0,0.0,0.0,0.0,0.0,0.0,0.0,0.0,0.0,0.0,0.0,0.0,0.0,0.0,0.0,0.0,0.0,0.0,0.0,0.0,0.0,0.0,0.0,0.0,-3.2218,-3.2932,0.0,0.0,0.0,0.0,0.0,0.0,-3.2784,-3.282,-3.2074,-3.1492,-3.1099,-3.1024,-3.1797,-3.2685,-3.2685,-3.3522,-3.4481,-3.4756,-3.4962,-3.5154,-3.5358,-3.5562,-3.571,-3.571,-3.571,-3.571,-3.571,-3.571,-3.571,-3.571,-3.6531,-3.7141,-3.7017,-3.8961,-4.0323,-4.0173,-4.1938,-4.3129,-4.3041,-4.4128,-4.4074,-4.2263,0.0,-4.2099,-4.2073,-4.2073,-4.2114,-4.2114,-4.2926,-4.3364,-4.3364,-4.4135,-4.4135,-4.3364,-4.3284,-4.2831,-4.2032,-4.1029,-4.0489,-4.0258,-3.9069,-3.8453,-3.8167,-3.7979,-3.79,-3.79,-3.79,-3.79,-3.79,-3.79,-3.79,-3.79,0.0,0.0,0.0,0.0,0.0,0.0,0.0,0.0,0.0,0.0,0.0,0.0,0.0,0.0,0.0,0.0,0.0,0.0,0.0,0.0,0.0,0.0,0.0,0.0,0.0,0.0,0.0,0.0,0.0,0.0,0.0,0.0,0.0,0.0,0.0,0.0,0.0,0.0,0.0,0.0,0.0,0.0,-3.2932,0.0,0.0,0.0,0.0,0.0,0.0,-3.3526,-3.3443,-3.3705,-3.242,-3.2304,-3.2412,-3.1334,-3.1797,-3.2685,-3.2685,-3.3522,-3.4481,-3.4908,-3.5044,-3.5195,-3.5562,-3.5669,-3.571,-3.571,-3.571,-3.571,-3.571,-3.571,-3.571,-3.571,-3.6531,-3.7141,-3.7017,-3.9704,-4.1518,-4.0891,-4.3348,-4.471,-4.3756,-4.467,-4.4949,-4.4004,-4.3765,-4.3515,-4.3215,-4.3175,-4.3427,-4.3927,-4.4135,-4.4251,-4.4251,-4.3849,-4.3849,-4.4251,-4.2966,-4.2563,-4.2911,-4.1309,-4.0489,-4.0258,-3.9069,-3.8453,-3.8167,-3.7979,-3.79,-3.79,-3.79,-3.79,-3.79,-3.79,-3.79,-3.79,0.0,0.0,0.0,0.0,0.0,0.0,0.0,0.0,0.0,0.0,0.0,0.0,0.0,0.0,0.0,0.0,0.0,0.0,0.0,0.0,0.0,0.0,0.0,0.0,0.0,0.0,0.0,0.0,0.0,0.0,0.0,0.0,0.0,0.0,0.0,0.0,0.0,0.0,0.0,0.0,0.0,0.0,0.0,0.0,0.0,0.0,0.0,0.0,0.0,-3.3973,-3.3973,-3.4095,-3.2953,-3.2648,-3.2596,-3.2072,-3.2288,-3.2856,-3.3568,-3.4151,-3.4701,-3.5113,-3.5236,-3.5318,-3.5642,-3.5977,-3.6217,-3.6217,-3.6217,-3.6308,-3.6688,-3.6163,-3.5977,-3.6766,-3.742,-3.7875,-3.8008,-4.0816,-4.2499,-4.1573,-4.4037,-4.541,-4.4373,-4.5098,-4.5478,-4.5151,-4.473,-4.4412,-4.4182,-4.4066,-4.4197,-4.4572,-4.461,-4.461,-4.461,-4.4135,-4.4135,-4.4572,-4.36,-4.3403,-4.381,-4.2438,-4.1491,-4.0972,0.0,-3.8877,-3.8362,-3.8024,-3.79,-3.79,-3.79,-3.79,-3.79,-3.79,-3.79,-3.79,0.0,0.0,0.0,0.0,0.0,0.0,0.0,0.0,0.0,0.0,0.0,0.0,0.0,0.0,0.0,0.0,0.0,0.0,0.0,0.0,0.0,0.0,0.0,0.0,0.0,0.0,0.0,0.0,0.0,0.0,0.0,0.0,0.0,0.0,0.0,0.0,0.0,0.0,0.0,0.0,0.0,0.0,0.0,0.0,0.0,0.0,0.0,0.0,0.0,0.0,-3.438,-3.4177,-3.3422,-3.2861,-3.2544,-3.3115,-3.3089,-3.3264,-3.4728,-3.4995,-3.4921,-3.5318,-3.5399,-3.548,-3.579,-3.6401,-3.6922,-3.7039,-3.7078,-3.7256,-3.7988,-3.6986,-3.657,-3.8115,-3.8657,-3.8971,-3.9233,-4.1844,-4.3275,-4.2151,-4.4257,-4.5557,-4.4977,-4.5447,-4.5807,-4.5807,-4.5278,-4.4949,-4.4949,-4.4761,-4.461,-4.461,-4.461,-4.461,-4.461,-4.461,-4.461,-4.461,-4.461,-4.461,-4.4572,-4.3693,-4.2886,-4.2073,-4.0675,-3.959,-3.8679,-3.8239,-3.7979,-3.79,-3.79,-3.79,-3.79,-3.79,-3.79,-3.79,0.0,0.0,0.0,0.0,0.0,0.0,0.0,0.0,0.0,0.0,-4.1913,-4.1971,0.0,0.0,0.0,0.0,0.0,0.0,0.0,0.0,0.0,0.0,0.0,0.0,0.0,0.0,0.0,0.0,0.0,0.0,0.0,0.0,0.0,0.0,0.0,0.0,0.0,0.0,0.0,0.0,0.0,0.0,0.0,0.0,0.0,0.0,0.0,0.0,0.0,0.0,-3.4839,-3.4177,-3.3422,-3.363,-3.4171,-3.4243,-3.4173,-3.4292,-3.5113,-3.5221,-3.5086,-3.5358,-3.5399,-3.5629,-3.648,-3.678,-3.7078,-3.7762,-3.7875,-3.7951,-3.8063,-3.7988,-3.8003,-3.8138,-3.9101,-3.9688,-3.9145,-4.1738,-4.3462,-4.2793,-4.4543,-4.5771,-4.5646,-4.5735,-4.5807,-4.5807,-4.5405,-4.5129,-4.5129,-4.4964,-4.4761,-4.461,-4.461,-4.461,-4.461,-4.461,-4.461,-4.461,-4.461,-4.461,-4.4572,-4.3693,-4.314,-4.278,-4.1589,0.0,-3.9384,-3.9104,-3.8549,-3.79,-3.79,-3.79,-3.79,-3.79,-3.79,-3.79,0.0,0.0,0.0,0.0,0.0,0.0,0.0,0.0,-4.0169,-4.0812,-4.1655,-4.2162,-4.2096,-4.1947,0.0,0.0,0.0,0.0,0.0,0.0,0.0,0.0,0.0,0.0,0.0,0.0,-3.5686,-3.5863,0.0,0.0,0.0,-3.5894,-3.5799,-3.5688,0.0,0.0,0.0,0.0,0.0,0.0,0.0,0.0,0.0,0.0,0.0,0.0,0.0,0.0,0.0,0.0,-3.5669,-3.5485,-3.4312,-3.4545,-3.5326,-3.5659,-3.537,-3.5166,-3.638,-3.6323,-3.5817,-3.5588,-3.5857,-3.6322,-3.678,-3.7218,-3.7738,-3.8561,-3.873,-3.8855,-3.9269,-3.8745,-3.8546,-3.9535,-3.9839,-4.0069,-4.0328,-4.2294,-4.3602,-4.3341,-4.4795,-4.5807,-4.5807,-4.5807,-4.5807,-4.5807,-4.5442,-4.5182,-4.5182,-4.4927,-4.4685,-4.461,-4.461,-4.461,-4.461,-4.461,-4.461,-4.461,-4.461,-4.461,-4.4572,-4.4058,-4.3497,-4.2955,-4.2167,-4.1254,-4.0244,-3.9519,-3.8957,-3.8517,-3.807,-3.79,-3.79,-3.79,-3.79,-3.79,0.0,0.0,0.0,0.0,0.0,0.0,0.0,-3.9238,-3.9648,-4.0255,-4.1095,-4.1852,-4.2361,-4.2332,-4.2218,0.0,0.0,0.0,0.0,0.0,0.0,0.0,0.0,0.0,0.0,0.0,0.0,-3.6037,-3.6037,0.0,0.0,0.0,0.0,0.0,-3.5784,-3.5718,-3.5587,0.0,0.0,0.0,0.0,-3.5554,0.0,0.0,0.0,0.0,0.0,0.0,0.0,0.0,-3.6561,-3.7064,-3.58,-3.5844,-3.6465,-3.6847,-3.6519,-3.6321,-3.7595,-3.7424,-3.6805,-3.6348,-3.6702,-3.7179,-3.7372,-3.789,-3.8598,-3.9391,-3.955,-3.9763,-4.0385,-3.9499,-3.9196,-4.078,-4.0562,-4.0497,-4.1407,-4.2787,-4.3722,-4.369,-4.4938,-4.5807,-4.5807,-4.5807,-4.5807,-4.5807,-4.5442,-4.5182,-4.5092,-4.4776,-4.461,-4.461,-4.461,-4.461,-4.461,-4.461,-4.461,-4.461,-4.461,-4.461,-4.4572,-4.4435,-4.3957,-4.3195,-4.2831,-4.2017,-4.0845,-3.9913,-3.9254,-3.8836,-3.8194,-3.79,-3.79,-3.79,-3.79,-3.79,0.0,0.0,0.0,0.0,0.0,0.0,0.0,-3.89,-3.9394,-4.0047,-4.0383,-4.0793,-4.1451,-4.2527,-4.2961,0.0,0.0,0.0,0.0,0.0,0.0,0.0,0.0,0.0,0.0,0.0,0.0,-3.6179,-3.6179,0.0,0.0,0.0,0.0,0.0,0.0,-3.5973,-3.5941,-3.5941,0.0,0.0,0.0,0.0,0.0,0.0,0.0,0.0,0.0,-3.6353,-3.6869,-3.6869,-3.7471,-3.8152,-3.8025,-3.8007,-3.7934,-3.7272,-3.7545,-3.8026,-3.8075,-3.8026,-3.7951,-3.7913,-3.7951,-3.8175,-3.8891,-3.9124,-3.9427,-4.0231,-4.0385,-4.042,-4.0489,-4.0509,-4.0612,-4.0799,0.0,-4.1207,-4.1323,-4.2685,-4.3687,-4.3687,-4.4954,-4.5807,-4.5807,-4.5807,-4.5807,-4.5807,-4.5442,-4.5017,-4.4648,-4.4625,-4.461,-4.461,-4.461,-4.461,-4.461,-4.461,-4.461,-4.461,-4.461,-4.461,-4.461,-4.4587,-4.432,-4.3895,-4.3856,-4.2629,0.0,-4.0518,-3.9502,-3.8024,-3.7946,-3.79,-3.79,-3.79,-3.79,-3.79,0.0,0.0,0.0,0.0,0.0,0.0,0.0,-3.8848,-3.9193,-3.9461,-4.0032,-4.0502,-4.0771,-4.1609,-4.2207,0.0,0.0,0.0,0.0,0.0,0.0,0.0,0.0,0.0,0.0,0.0,-3.6211,-3.6383,-3.6383,0.0,0.0,0.0,0.0,0.0,0.0,-3.6068,-3.6005,-3.6005,0.0,0.0,0.0,0.0,0.0,0.0,0.0,0.0,0.0,0.0,-3.7781,-3.7781,-3.8323,-3.8928,-3.8463,-3.8925,-3.9477,-3.8777,-3.8717,-3.8904,-3.8832,-3.8818,-3.8708,-3.8213,-3.8473,-3.8891,-3.9233,-3.9305,-3.9535,-4.0335,-4.0489,-4.0489,-4.0489,-4.0662,0.0,0.0,0.0,0.0,-4.1456,-4.2771,-4.3706,-4.3687,-4.4918,-4.5807,-4.5807,-4.5807,-4.5698,-4.5442,-4.5294,-4.5017,-4.461,-4.461,-4.461,-4.461,-4.461,-4.461,-4.461,-4.461,-4.461,-4.461,-4.461,-4.461,-4.4587,-4.4473,-4.432,-4.4181,-4.391,-4.2981,0.0,-4.0887,-3.9826,-3.8639,-3.8103,-3.79,-3.79,-3.79,-3.79,-3.79,0.0,0.0,0.0,0.0,0.0,-3.8664,-3.8664,-3.8958,-3.9177,-3.9177,-3.9704,-4.0113,-4.0113,-4.0696,-4.128,-4.1782,0.0,0.0,0.0,0.0,0.0,0.0,0.0,0.0,0.0,0.0,-3.6352,-3.6492,-3.6492,-3.6492,0.0,0.0,-3.6414,-3.6274,0.0,0.0,0.0,0.0,0.0,0.0,0.0,0.0,0.0,0.0,0.0,0.0,0.0,0.0,0.0,0.0,0.0,-3.9705,-3.9143,0.0,0.0,0.0,-3.9404,-3.9606,-3.9356,-3.9463,-3.9499,-3.8928,-3.9233,-3.9657,-3.9657,-3.9657,-3.9814,-4.0385,-4.0489,-4.0489,-4.0489,-4.0662,0.0,0.0,0.0,-4.1357,-4.1555,-4.2805,-4.3706,-4.3687,-4.4918,-4.5807,-4.5807,-4.5735,-4.5552,-4.522,-4.5129,-4.498,-4.4625,-4.461,-4.461,-4.461,-4.461,-4.461,-4.461,-4.461,-4.461,-4.461,-4.461,-4.461,-4.4587,-4.4473,-4.4358,-4.4281,-4.3988,-4.3275,0.0,-4.1435,-4.0375,-3.9121,-3.8517,-3.8148,-3.79,-3.79,-3.79,-3.79,0.0,0.0,0.0,0.0,0.0,0.0,0.0,-3.9265,-3.9388,-3.9388,-3.9388,-3.9388,-3.9388,-4.0023,-4.0412,-4.0427,0.0,0.0,0.0,0.0,0.0,0.0,0.0,0.0,0.0,0.0,-3.6492,-3.6492,-3.6492,-3.6492,-3.6492,-3.6492,-3.6492,-3.6492,0.0,0.0,0.0,0.0,0.0,0.0,0.0,0.0,0.0,0.0,0.0,0.0,0.0,0.0,0.0,0.0,0.0,0.0,0.0,-4.0489,0.0,0.0,-3.9369,-4.0301,-3.9514,-3.9884,-4.0489,-4.0489,-4.0489,-4.0489,-4.0489,-4.0489,-4.0489,-4.0489,-4.0489,-4.0489,-4.0489,-4.0662,0.0,0.0,0.0,0.0,-4.1555,-4.2821,-4.3687,-4.3687,-4.4918,-4.5807,-4.5807,-4.5625,-4.5405,-4.522,-4.5002,0.0,-4.461,-4.461,-4.461,-4.461,-4.461,-4.461,-4.461,-4.461,-4.461,-4.461,-4.461,-4.461,-4.461,-4.461,-4.4511,-4.4281,-4.4281,-4.3536,0.0,-4.229,-4.1042,-3.921,-3.921,-3.8671,-3.79,-3.79,-3.79,-3.79,0.0,0.0,0.0,0.0,0.0,0.0,0.0,-3.9265,-3.9388,-3.9388,-3.9388,-3.9388,-3.9388,-3.9604,-3.9903,-4.0367,0.0,0.0,0.0,0.0,0.0,0.0,0.0,0.0,0.0,0.0,-3.6492,-3.6492,-3.6492,-3.6492,-3.6492,-3.6492,-3.6492,-3.6492,-3.6492,-3.6492,0.0,0.0,0.0,0.0,0.0,0.0,-3.8148,0.0,0.0,0.0,0.0,0.0,0.0,0.0,0.0,0.0,0.0,0.0,0.0,0.0,0.0,-4.0455,-4.0196,-4.0301,-4.0489,-4.0489,-4.0489,-4.0489,-4.0489,-4.0489,-4.0489,-4.0489,-4.0489,-4.0489,-4.0489,-4.078,0.0,0.0,0.0,0.0,-4.1588,-4.2821,-4.3687,-4.3687,-4.4918,-4.5735,-4.5589,-4.5552,-4.5352,-4.5039,-4.4949,-4.4799,-4.461,-4.461,-4.461,-4.461,-4.461,-4.461,-4.461,-4.461,-4.461,-4.461,-4.461,-4.461,-4.461,-4.461,-4.4587,-4.4511,-4.4205,-4.3497,-4.2423,-4.1518,-4.0375,-3.9121,-3.8549,-3.8148,-3.79,-3.79,-3.79,-3.79,0.0,0.0,0.0,0.0,0.0,0.0,0.0,-3.9301,-3.9388,-3.9388,-3.9388,-3.9388,-3.9388,-3.9388,-3.961,-4.0102,0.0,0.0,0.0,0.0,0.0,0.0,0.0,0.0,0.0,-3.7461,-3.7123,-3.6876,-3.6876,-3.6738,-3.6492,-3.6492,-3.663,-3.6876,-3.6876,-3.7015,0.0,0.0,0.0,0.0,0.0,0.0,-3.897,0.0,0.0,0.0,0.0,0.0,0.0,0.0,0.0,0.0,0.0,0.0,0.0,0.0,-4.0489,-4.0489,-4.0489,-4.0489,-4.0489,-4.0489,-4.0489,-4.0489,-4.0489,-4.0489,-4.0489,-4.0489,-4.0489,-4.0489,-4.0489,-4.083,-4.1117,0.0,0.0,0.0,-4.1588,-4.2821,-4.3892,-4.4413,-4.5286,-4.5698,-4.5515,-4.5442,-4.5241,-4.4911,-4.4836,-4.4723,-4.461,-4.461,-4.461,-4.461,-4.461,-4.461,-4.461,-4.461,-4.461,-4.461,-4.461,-4.461,-4.461,-4.461,-4.4549,-4.4473,-4.4205,-4.3723,0.0,-4.174,-4.0618,-3.9637,-3.8729,-3.8194,-3.79,-3.79,-3.79,-3.79,0.0,0.0,0.0,0.0,0.0,0.0,0.0,0.0,0.0,-3.9424,-3.9388,-3.9388,-3.9388,-3.9388,-3.9481,-3.9681,0.0,0.0,0.0,0.0,0.0,0.0,0.0,0.0,-3.86,-3.8539,-3.82,-3.7569,-3.7569,-3.7246,-3.663,-3.663,-3.6969,-3.7569,-3.7569,-3.7923,0.0,0.0,0.0,0.0,-3.929,-3.9551,0.0,0.0,0.0,0.0,0.0,0.0,0.0,0.0,0.0,0.0,0.0,0.0,0.0,0.0,0.0,0.0,0.0,-4.0489,-4.0489,-4.0489,-4.0489,-4.0489,-4.0489,-4.0489,0.0,-4.0489,-4.0489,-4.0489,-4.0524,-4.0848,-4.1102,-4.1102,-4.1388,-4.1604,-4.1652,-4.29,-4.4255,-4.5649,-4.5771,-4.5698,-4.5515,-4.5294,-4.5092,-4.4874,-4.4685,-4.461,-4.461,-4.461,-4.461,-4.461,-4.461,-4.461,-4.461,-4.461,-4.461,-4.461,-4.461,-4.461,-4.461,-4.461,-4.4511,0.0,-4.4281,-4.4065,0.0,-4.2684,-4.1616,-4.0504,-3.9549,-3.8671,-3.79,-3.79,-3.79,-3.79,0.0,0.0,0.0,0.0,0.0,0.0,0.0,0.0,0.0,0.0,-3.9388,-3.9388,-3.9388,-3.9388,-3.9481,0.0,0.0,0.0,0.0,0.0,0.0,0.0,0.0,0.0,-3.9277,-3.8769,-3.8431,-3.8262,-3.8262,-3.8185,-3.8031,-3.8031,-3.8123,-3.8262,-3.8262,-3.8354,0.0,0.0,0.0,0.0,-3.9982,-4.0259,0.0,0.0,0.0,0.0,-4.0489,-4.0489,0.0,0.0,0.0,0.0,0.0,0.0,0.0,0.0,-4.0489,-4.0489,-4.0489,0.0,-4.0489,-4.0489,-4.0489,-4.0489,0.0,-4.0489,-4.0489,-4.0489,-4.0489,-4.0558,-4.0696,-4.0916,-4.1135,-4.1239,-4.1456,-4.1778,-4.2347,-4.3611,-4.4812,-4.5697,-4.5662,-4.5478,-4.5294,-4.5092,-4.4889,-4.4701,-4.461,-4.461,-4.461,-4.461,-4.461,-4.461,-4.461,-4.461,-4.461,-4.461,-4.461,-4.461,-4.461,-4.461,-4.461,-4.461,-4.4572,-4.4511,-4.4205,0.0,-4.3832,-4.2563,-4.1505,-4.0504,-3.9549,-3.8671,-3.79,-3.79,-3.79,-3.79,0.0,0.0,0.0,0.0,0.0,0.0,0.0,0.0,0.0,0.0,0.0,0.0,0.0,0.0,0.0,0.0,0.0,0.0,0.0,0.0,0.0,0.0,0.0,-3.9951,-3.9951,-3.9582,-3.9277,-3.897,-3.897,-3.8816,-3.8508,-3.8508,-3.8677,-3.8985,-3.9293,-3.9431,-3.9428,-3.9782,-3.9951,-3.9982,-4.0336,0.0,0.0,0.0,0.0,0.0,-4.0489,-4.0489,0.0,-4.0489,-4.0489,-4.0489,0.0,0.0,0.0,0.0,-4.0489,-4.0489,-4.0489,-4.0489,-4.0489,-4.0489,-4.0489,-4.0489,-4.0489,0.0,-4.0489,-4.0489,-4.0489,-4.0524,-4.0627,-4.0848,-4.1018,-4.1187,-4.1321,-4.1767,-4.2858,-4.3983,-4.4986,-4.5728,-4.5625,-4.5405,-4.522,-4.5002,-4.4799,-4.4625,-4.461,-4.461,-4.461,-4.461,-4.461,-4.461,-4.461,-4.461,-4.461,-4.461,-4.461,-4.461,-4.461,-4.461,-4.461,-4.461,-4.4496,-4.432,-4.4089,0.0,-4.3581,-4.2017,-4.1071,-4.0475,-3.9149,-3.8317,-3.79,-3.79,-3.773,-3.7495,0.0,0.0,0.0,0.0,0.0,0.0,0.0,0.0,0.0,0.0,0.0,0.0,0.0,0.0,0.0,0.0,0.0,0.0,0.0,0.0,0.0,0.0,0.0,-4.0489,-4.0489,-4.0489,-4.0213,-3.9644,-3.9644,-3.9351,-3.8816,-3.8816,-3.9123,-3.9659,-4.0243,-4.0489,-4.0489,-4.0489,-4.0489,-4.0489,-4.0489,0.0,0.0,0.0,0.0,0.0,0.0,0.0,0.0,-4.0489,-4.0489,-4.0489,-4.0489,0.0,0.0,0.0,0.0,0.0,-4.0489,-4.0489,-4.0489,-4.0489,-4.0489,-4.0489,-4.0489,0.0,-4.0489,-4.0489,-4.0489,-4.0489,-4.0524,-4.0696,-4.0867,-4.1102,-4.1323,-4.1888,-4.3153,-4.4193,-4.5005,-4.5619,-4.5552,-4.5331,-4.5167,-4.4964,-4.4761,-4.461,-4.461,-4.461,-4.461,-4.461,-4.461,-4.461,-4.461,-4.461,-4.461,-4.461,-4.461,-4.461,-4.461,-4.4572,-4.4534,-4.4534,-4.4358,-4.3988,0.0,0.0,-4.325,-4.1657,-4.0859,-4.0461,-3.8814,-3.803,-3.7756,-3.7665,-3.7312,-3.6854,0.0,0.0,0.0,0.0,0.0,0.0,0.0,0.0,0.0,0.0,0.0,0.0,0.0,0.0,0.0,0.0,0.0,0.0,0.0,0.0,0.0,0.0,-4.0802,-4.0489,-4.0489,-4.0489,-4.0443,-4.0336,-4.0336,-4.029,-4.0182,-4.0182,-4.0243,-4.0336,-4.0443,-4.0489,-4.0489,-4.0489,-4.0489,-4.0489,-4.0489,0.0,0.0,0.0,0.0,0.0,0.0,0.0,0.0,-4.0489,-4.0489,-4.0489,-4.0489,0.0,0.0,0.0,0.0,0.0,-4.0489,-4.0489,-4.0489,-4.0489,-4.0489,-4.0489,-4.0489,-4.0489,-4.0489,-4.0489,-4.0489,-4.0558,-4.073,-4.0765,-4.0901,-4.1223,-4.2278,-4.309,-4.3153,-4.4309,-4.5169,-4.5278,-4.5114,-4.4986,-4.4964,-4.4761,-4.461,-4.461,-4.461,-4.461,-4.461,-4.461,-4.461,-4.461,-4.461,-4.461,-4.461,-4.461,-4.461,-4.461,-4.461,-4.4511,-4.4358,-4.4358,-4.4205,-4.3988,0.0,-4.3729,-4.3596,-4.3076,-4.1961,-4.0504,-3.9731,-3.8491,-3.7077,-3.6567,-3.6319,-3.6175,0.0,0.0,0.0,0.0,0.0,0.0,0.0,0.0,0.0,0.0,0.0,0.0,0.0,0.0,0.0,0.0,0.0,0.0,0.0,0.0,0.0,-4.1525,-4.087,-4.0489,-4.0489,-4.0489,-4.0489,-4.0489,-4.0489,-4.0489,-4.0489,-4.0489,-4.0489,-4.0489,-4.0489,-4.0489,-4.0489,-4.0489,-4.0489,-4.0489,0.0,0.0,0.0,0.0,0.0,0.0,0.0,0.0,0.0,0.0,-4.0489,-4.0489,-4.0489,0.0,0.0,0.0,0.0,0.0,-4.0489,-4.0489,-4.0489,-4.0489,-4.0489,-4.0489,-4.0489,-4.0489,-4.0489,-4.0489,-4.0489,-4.0524,-4.0627,-4.0627,-4.0696,-4.0851,-4.2209,-4.3185,-4.3003,-4.4273,-4.5182,-4.5182,-4.5002,-4.4911,-4.4911,-4.4723,-4.461,-4.461,-4.461,-4.461,-4.461,-4.461,-4.461,-4.461,-4.461,-4.461,-4.461,-4.461,-4.461,-4.461,-4.461,-4.4534,-4.4458,-4.4458,-4.4358,-4.4166,0.0,-4.3713,-4.3109,-4.2461,-4.121,-3.9536,-3.8768,-3.7653,-3.6449,-3.5874,-3.5665,-3.5587,0.0,0.0,0.0,0.0,0.0,0.0,0.0,0.0,0.0,0.0,0.0,0.0,0.0,0.0,0.0,0.0,0.0,0.0,0.0,0.0,-4.2205,-4.1525,-4.087,-4.0489,-4.0489,-4.0489,-4.0489,-4.0489,-4.0489,-4.0489,-4.0489,-4.0489,-4.0489,-4.0489,-4.0489,-4.0489,-4.0489,-4.0489,-4.0489,-4.0489,0.0,0.0,0.0,0.0,0.0,0.0,0.0,0.0,0.0,0.0,0.0,0.0,0.0,0.0,0.0,-4.0489,-4.0489,-4.0489,-4.0489,-4.0489,-4.0489,-4.0489,-4.0489,-4.0489,-4.0489,-4.0489,-4.0489,-4.0489,-4.0489,-4.0489,-4.0489,-4.0524,-4.0558,-4.0489,-4.193,-4.2987,-4.2855,-4.4126,-4.5055,-4.5055,-4.4927,-4.4836,-4.4836,-4.4685,-4.461,-4.461,-4.461,-4.461,-4.461,-4.461,-4.461,-4.461,-4.461,-4.461,-4.461,-4.4456,-4.4456,-4.461,-4.461,-4.4495,-4.4303,-4.4303,-4.4097,-4.3731,-4.3731,-4.3252,-4.2431,-4.17,-4.0376,-3.8708,-3.7841,-3.6753,-3.5652,-3.5247,-3.509,-3.5012,0.0,0.0,0.0,0.0,0.0,0.0,0.0,0.0,0.0,0.0,0.0,0.0,0.0,0.0,0.0,0.0,0.0,0.0,0.0,0.0,-4.2205,-4.1525,-4.087,-4.0489,-4.0489,-4.0489,-4.0489,-4.0489,-4.0489,-4.0489,-4.0489,-4.0489,-4.0489,-4.0489,-4.0489,-4.0489,-4.0489,-4.0489,-4.0489,-4.0489,-4.0489,0.0,0.0,0.0,0.0,0.0,0.0,0.0,0.0,0.0,0.0,0.0,0.0,0.0,-4.0489,-4.0489,-4.0489,-4.0489,-4.0489,-4.0489,-4.0489,-4.0489,-4.0489,-4.0489,-4.0489,-4.0489,-4.0489,-4.0489,-4.0489,-4.0489,-4.0489,-4.0662,-4.073,-4.0524,-4.1805,-4.2772,-4.2638,-4.3778,-4.4648,-4.4648,-4.461,-4.461,-4.461,-4.461,-4.461,-4.461,-4.461,-4.461,-4.461,-4.461,-4.461,-4.461,-4.461,-4.461,-4.461,-4.3994,-4.3994,-4.461,-4.461,-4.4173,-4.3387,-4.3387,-4.2923,-4.2075,-4.2075,-4.1978,-4.1776,-4.1701,-4.0524,-3.8747,-3.8104,-3.647,-3.4515,-3.4476,-3.4463,-3.4463,0.0,0.0,0.0,0.0,0.0,0.0,0.0,0.0,0.0,0.0,0.0,0.0,0.0,0.0,0.0,0.0,0.0,0.0,0.0,0.0,-4.3015,-4.2769,-4.2109,-4.1558,-4.1109,-4.0715,-4.0489,-4.0489,-4.0489,-4.0489,-4.0489,-4.0489,-4.0489,-4.0489,-4.0489,-4.0489,-4.0489,-4.0489,-4.0489,-4.0489,-4.0489,-4.0489,0.0,0.0,0.0,0.0,0.0,0.0,0.0,0.0,-4.0489,0.0,0.0,0.0,-4.0489,-4.0489,-4.0489,-4.0489,-4.0489,-4.0489,-4.0489,-4.0489,-4.0489,-4.0489,-4.0489,-4.0489,-4.0489,-4.0489,-4.0489,-4.0489,-4.0489,-4.0558,-4.0593,-4.0524,-4.1714,-4.2659,-4.2617,-4.3741,-4.461,-4.461,-4.461,-4.461,-4.461,-4.461,-4.461,-4.461,-4.461,-4.461,-4.461,-4.461,-4.4425,-4.3994,-4.3994,-4.3793,-4.3356,-4.3094,-4.311,-4.3356,-4.3356,-4.3181,-4.2861,-4.2861,-4.2686,-4.2352,-4.2352,-4.194,-4.1267,-4.1267,-3.982,-3.7489,-3.6239,-3.5191,-3.4397,-3.4397,-3.4397,-3.4397,0.0,0.0,0.0,0.0,0.0,0.0,0.0,0.0,0.0,0.0,0.0,0.0,0.0,0.0,0.0,0.0,0.0,0.0,-4.4281,-4.3781,-4.3423,-4.3196,-4.2552,-4.1965,-4.1525,-4.0836,-4.0489,-4.0489,-4.0489,-4.0489,-4.0489,-4.0489,-4.0489,-4.0489,-4.0489,-4.0489,-4.0489,-4.0489,-4.0489,-4.0489,-4.0489,-4.0489,0.0,0.0,0.0,0.0,0.0,0.0,0.0,0.0,0.0,0.0,0.0,0.0,0.0,0.0,-4.0489,-4.0489,-4.0489,-4.0489,-4.0489,-4.0489,-4.0489,-4.0489,-4.0489,-4.0489,-4.0489,-4.0489,-4.0489,-4.0489,-4.0489,-4.0489,-4.0489,-4.0489,-4.1694,-4.2602,-4.2602,-4.3741,-4.461,-4.461,-4.461,-4.461,-4.461,-4.461,-4.461,-4.461,-4.461,-4.4533,-4.4317,-4.4302,-4.3994,-4.3294,-4.3264,-4.3048,-4.2602,-4.2402,-4.2294,-4.2294,-4.2063,-4.2063,-4.2294,-4.2294,-4.2171,-4.1955,-4.1955,-4.1464,-4.0679,-4.075,-3.9299,-3.6802,-3.5101,-3.4397,-3.4397,-3.4397,-3.4397,-3.4397,0.0,0.0,0.0,0.0,0.0,0.0,0.0,0.0,0.0,0.0,0.0,0.0,0.0,0.0,0.0,0.0,0.0,0.0,-4.3571,-4.3512,-4.3196,-4.2552,-4.1901,-4.1525,-4.1525,-4.087,-4.0489,-4.0489,-4.0489,-4.0489,-4.0489,-4.0489,-4.0489,-4.0489,-4.0489,-4.0489,-4.0489,-4.0489,-4.0489,-4.0505,-4.0505,-4.0505,-4.052,0.0,0.0,0.0,0.0,0.0,0.0,0.0,-4.0505,0.0,0.0,0.0,0.0,0.0,-4.0489,-4.0489,-4.0489,-4.0489,-4.0489,-4.0489,-4.0489,-4.0489,-4.0489,-4.0489,-4.0489,-4.0489,-4.0489,-4.0489,-4.0489,-4.0489,-4.0489,-4.0489,-4.1694,-4.2602,-4.2602,-4.3741,-4.461,-4.461,-4.461,-4.461,-4.461,-4.461,-4.461,-4.461,-4.461,-4.4317,-4.3639,-4.3593,-4.3264,-4.2617,-4.2602,-4.2602,-4.2586,-4.1925,-4.1586,-4.1586,-4.0843,-4.0858,-4.1586,-4.1586,-4.1201,-4.0489,-4.0489,-4.0296,-4.0011,-4.0207,-3.9081,-3.7049,-3.5142,-3.4397,-3.4397,-3.4397,-3.4397,-3.4397,0.0,0.0,0.0,0.0,0.0,0.0,0.0,0.0,0.0,0.0,0.0,0.0,0.0,0.0,0.0,0.0,0.0,0.0,-4.4281,-4.4265,-4.4179,-4.4006,-4.3785,-4.3456,-4.2923,-4.1804,-4.0956,-4.0489,-4.0489,-4.0489,-4.0489,-4.0489,-4.0489,-4.0489,-4.0489,-4.0489,-4.0489,-4.0489,-4.0782,-4.1278,-4.1278,-4.1571,-4.2001,0.0,0.0,0.0,0.0,0.0,0.0,0.0,0.0,0.0,0.0,0.0,0.0,0.0,-4.0489,-4.0489,-4.0489,-4.0489,-4.0489,-4.0489,-4.0489,-4.0489,-4.0489,-4.0489,-4.0489,-4.0489,-4.0489,-4.0489,-4.0489,-4.0489,-4.0489,-4.0489,-4.1294,-4.2063,-4.254,-4.334,-4.4086,-4.4526,-4.461,-4.461,-4.461,-4.461,-4.4409,-4.3947,-4.3917,-4.3608,-4.2925,-4.2894,-4.2586,-4.1925,-4.1909,-4.1663,-4.112,-4.0815,-4.0723,-4.0812,-4.0508,-4.0508,-4.0812,-4.0812,-4.0689,-4.0489,-4.0489,-4.0401,-4.0137,-3.9298,-3.8613,-3.7838,-3.6042,-3.5305,-3.5237,-3.4634,-3.4397,-3.4397,0.0,0.0,0.0,0.0,0.0,0.0,0.0,0.0,0.0,0.0,0.0,0.0,0.0,0.0,0.0,0.0,0.0,0.0,0.0,-4.5449,-4.5331,-4.5043,-4.4764,-4.4038,-4.2738,-4.1917,-4.1176,-4.0489,-4.0489,-4.0489,-4.0489,-4.0489,-4.0489,-4.0505,-4.0832,-4.0955,-4.0935,-4.1212,-4.1601,-4.2001,-4.2001,-4.2248,-4.2602,0.0,0.0,0.0,0.0,0.0,0.0,0.0,0.0,0.0,0.0,0.0,0.0,-4.0489,-4.0489,-4.0489,-4.0489,-4.0489,-4.0489,-4.0489,-4.0489,-4.0489,-4.0489,-4.0489,-4.0489,-4.0489,-4.0489,-4.0489,-4.0489,-4.0489,-4.0489,-4.0489,-4.1124,-4.174,-4.2155,-4.2771,-4.334,-4.3756,-4.3802,-4.3802,-4.3802,-4.3802,-4.3633,-4.3217,-4.3187,-4.291,-4.2248,-4.2202,-4.1894,-4.1201,-4.1115,-4.09,-4.0489,-4.0366,-4.0366,-4.0489,-4.0436,-4.0436,-4.0489,-4.0489,-4.0489,-4.0489,-4.042,-4.0401,-4.0296,-3.8942,-3.8487,-3.8436,-3.6464,-3.5749,-3.5709,-3.4758,-3.4397,-3.4397,0.0,0.0,0.0,0.0,0.0,0.0,0.0,0.0,0.0,0.0,0.0,0.0,0.0,0.0,0.0,0.0,0.0,0.0,0.0,0.0,-4.6498,-4.5838,-4.5226,-4.3948,-4.1912,-4.1831,-4.1464,-4.0778,-4.0586,-4.0489,-4.0489,-4.0566,-4.0597,-4.0628,-4.137,-4.1694,-4.1724,-4.234,-4.2648,-4.2694,-4.2694,-4.274,-4.2786,-4.2786,0.0,0.0,0.0,0.0,0.0,0.0,0.0,0.0,0.0,0.0,-4.0597,-4.0597,-4.0551,-4.0489,-4.0489,-4.0489,-4.0489,-4.0489,-4.0489,-4.0489,-4.0489,-4.0489,-4.0489,-4.0489,-4.0489,-4.0489,-4.0489,-4.0489,-4.0489,-4.0489,-4.1078,-4.1524,-4.1586,-4.2125,-4.254,-4.2602,-4.2602,-4.2602,-4.2602,-4.2602,-4.2586,-4.2525,-4.2525,-4.2217,-4.1504,-4.1458,-4.1166,-4.0486,-4.0331,-4.0366,-4.0489,-4.0366,-4.0366,-4.0489,-4.0489,-4.0489,-4.0489,-4.0489,-4.0489,-4.0489,-4.0366,-4.0401,-4.0385,-3.9015,-3.8635,-3.8767,-3.6543,-3.583,-3.583,-3.4799,-3.4397,-3.4397,0.0,0.0,0.0,0.0,0.0,0.0,0.0,0.0,0.0,0.0,0.0,0.0,0.0,0.0,0.0,0.0,0.0,0.0,0.0,0.0,-4.6718,-4.6566,-4.6431,-4.5848,-4.4829,-4.4269,-4.3676,-4.294,-4.1291,-4.0489,-4.0505,-4.1109,-4.137,-4.1401,-4.2094,-4.2386,-4.2402,-4.254,-4.2894,-4.3393,-4.3393,-4.3716,-4.4156,-4.4156,-4.4156,0.0,0.0,0.0,0.0,0.0,0.0,0.0,-4.2386,-4.1925,-4.137,-4.137,-4.0935,-4.0489,-4.0489,-4.0489,-4.0489,-4.0489,-4.0489,-4.0489,-4.0489,-4.0489,-4.0489,-4.0489,-4.0489,-4.0489,-4.0489,-4.0489,-4.0489,-4.0489,-4.0628,-4.0955,-4.1524,-4.1724,-4.2017,-4.254,-4.2602,-4.2602,-4.2602,-4.2602,-4.2386,-4.1848,-4.1817,-4.1438,-4.0642,-4.0561,-4.043,-4.0117,-4.0242,-4.0296,-4.0331,-4.0296,-4.0366,0.0,-4.0401,-4.0401,-4.0489,-4.0489,-4.0489,-4.0489,-4.047,-4.0455,-4.042,-3.9139,-3.8686,-3.8561,-3.6503,-3.5749,-3.5669,-3.4758,-3.4397,-3.4397,0.0,0.0,0.0,0.0,0.0,0.0,0.0,0.0,0.0,0.0,0.0,0.0,0.0,0.0,0.0,0.0,0.0,0.0,0.0,0.0,0.0,-4.7344,-4.6989,-4.6455,-4.5763,-4.5065,-4.4359,-4.3643,-4.2202,-4.1489,-4.1489,-4.1909,-4.2078,-4.2109,-4.2771,-4.3079,-4.3094,-4.3417,-4.3741,-4.4086,-4.4086,-4.4302,-4.461,-4.461,-4.461,-4.461,-4.461,0.0,0.0,0.0,0.0,0.0,0.0,0.0,-4.2078,-4.2078,-4.1586,-4.1047,-4.1047,-4.0751,-4.0489,-4.0489,-4.0489,-4.0489,-4.0489,-4.0489,-4.0489,-4.0489,-4.0489,-4.0489,-4.0489,-4.0489,-4.0489,-4.0489,-4.0489,-4.0628,-4.1032,-4.1078,-4.1217,-4.1535,-4.1601,-4.1601,-4.1601,-4.1601,-4.1427,-4.1019,-4.0988,-4.0729,-4.0187,-4.0172,-4.0101,-4.0011,-4.0031,-4.0086,-4.0312,-4.0207,-4.0261,-4.0489,-4.0436,-4.0436,-4.0489,-4.0489,-4.0489,-4.0489,-4.0489,-4.0489,-4.0455,-3.9758,-3.9493,-3.9356,-3.7228,-3.6478,-3.6399,-3.495,-3.4397,-3.4397,0.0,0.0,0.0,0.0,0.0,0.0,0.0,0.0,0.0,0.0,0.0,0.0,0.0,0.0,0.0,0.0,0.0,0.0,0.0,0.0,0.0,-4.8108,-4.7513,-4.6871,-4.6175,-4.544,-4.4712,-4.406,-4.3309,-4.2956,-4.294,-4.2833,-4.2771,-4.2802,-4.3485,-4.3778,-4.3824,-4.4379,-4.461,-4.461,-4.461,-4.461,-4.461,-4.461,-4.461,-4.461,-4.461,-4.461,-4.461,-4.461,0.0,0.0,0.0,0.0,-4.2771,-4.2771,-4.2294,-4.1771,-4.1771,-4.1247,-4.0659,-4.052,-4.0489,-4.0489,-4.0489,-4.0489,-4.0489,-4.0489,-4.0489,-4.0489,-4.0489,-4.0489,-4.0489,-4.0489,-4.0489,-4.0489,-4.0489,-4.0489,-4.0489,-4.0489,-4.0489,-4.047,-4.047,-4.042,-4.0366,-4.0277,-4.0242,-4.0172,-3.996,-3.996,-3.9925,-3.9889,-3.9803,-3.991,-4.0242,-4.0137,-4.0226,-4.0489,-4.0489,-4.0489,-4.0489,-4.0489,-4.0489,-4.0489,-4.0489,-4.0489,-4.0489,-4.0176,-4.0126,-4.0025,-3.8026,-3.7242,-3.7011,-3.5305,-3.4551,-3.4397,0.0,0.0,0.0,0.0,0.0,0.0,0.0,0.0,0.0,0.0,-4.9001,-4.9001,0.0,0.0,0.0,0.0,0.0,0.0,-4.9001,0.0,0.0,-4.8866,-4.8765,-4.8371,-4.7636,-4.6893,-4.614,-4.5428,-4.4691,-4.431,-4.4295,-4.3747,-4.3485,-4.3516,-4.4178,-4.4486,-4.4486,-4.4579,-4.461,-4.461,-4.461,-4.461,-4.461,-4.461,-4.461,-4.461,-4.461,-4.461,-4.461,-4.461,-4.4548,0.0,0.0,0.0,-4.3485,-4.3485,-4.2987,-4.2479,-4.2479,-4.1971,-4.1309,-4.0659,-4.0489,-4.0489,-4.0489,-4.0489,-4.0489,-4.0489,-4.0489,-4.0489,-4.0489,-4.0489,-4.0489,-4.0489,-4.0489,-4.0489,-4.0489,-4.0489,-4.0489,-4.0489,-4.0401,-4.0347,-4.0347,-4.0172,-4.0066,-4.0031,-4.0046,-3.996,-3.9768,-3.9732,-3.9661,-3.9496,-3.9783,-3.9996,-4.0046,-4.0296,-4.047,-4.0489,-4.0489,-4.0489,-4.0489,-4.0489,-4.0489,-4.0489,-4.0489,-4.0489,-4.042,-3.9535,-3.9182,-3.9073,-3.7927,-3.6933,-3.6175,-3.591,-3.5196,-3.4397,0.0,0.0,0.0,0.0,0.0,0.0,0.0,0.0,0.0,0.0,0.0,-4.9001,0.0,0.0,0.0,-4.9001,-4.9001,-4.9001,-4.9001,-4.9001,-4.9001,-4.9001,-4.9001,-4.8861,-4.8513,-4.7389,-4.6638,-4.6324,-4.5179,-4.461,-4.461,-4.4317,-4.4178,-4.4178,-4.4486,-4.461,-4.461,-4.461,-4.461,-4.461,-4.461,-4.461,-4.461,-4.461,-4.461,-4.461,-4.461,-4.461,-4.461,-4.461,-4.461,-4.461,-4.461,0.0,0.0,0.0,-4.3701,-4.2987,-4.2232,-4.1817,-4.1432,-4.0674,-4.0489,-4.0489,-4.0489,-4.0489,-4.0489,-4.0489,-4.0489,-4.0489,-4.0489,-4.0489,-4.0489,-4.0489,-4.0489,-4.0489,-4.0489,-4.0489,-4.0489,-4.0489,-4.0366,-4.0312,-4.0312,-4.0101,-3.996,-3.9839,-3.9839,-3.9732,-3.9553,-3.9517,-3.9481,-3.9388,-3.9568,-3.9783,-4.0011,-4.0137,-4.0147,-3.992,-3.992,-3.992,-3.992,-3.992,-4.0136,-4.0489,-4.0489,-4.0489,-4.0455,-4.0025,-3.9834,-3.9728,-3.8745,-3.8063,-3.761,-3.6933,-3.6385,-3.5883,0.0,0.0,0.0,0.0,0.0,0.0,0.0,0.0,0.0,0.0,0.0,0.0,0.0,0.0,0.0,0.0,-4.9001,-4.9001,-4.9001,-4.9001,-4.9001,-4.9001,-4.9001,-4.9001,-4.9001,-4.7737,-4.7085,-4.7085,-4.5588,-4.4896,-4.4858,-4.4685,-4.461,-4.461,-4.461,-4.461,-4.461,-4.461,-4.461,-4.461,-4.461,-4.461,-4.461,-4.461,-4.461,-4.461,-4.461,-4.461,-4.461,-4.461,-4.461,-4.461,-4.461,-4.461,0.0,0.0,0.0,-4.3608,-4.2417,-4.1971,-4.1678,-4.0951,-4.0628,-4.0489,-4.0489,-4.0489,-4.0489,-4.0489,-4.0489,-4.0489,-4.0489,-4.0489,-4.0489,-4.0489,-4.0489,-4.0489,-4.0489,-4.0455,-4.047,-4.047,-4.0261,-4.0156,-4.0156,-3.996,-3.9783,-3.9625,-3.961,-3.9553,-3.9424,-3.9388,-3.9388,-3.9388,-3.9496,-3.96,-3.9753,-3.964,-3.9497,-3.9228,-3.9228,-3.9228,-3.9228,-3.9228,-3.9598,-4.0243,-4.0428,-4.0489,-4.0489,-4.0489,-4.0489,-4.042,-3.9677,-3.9233,-3.8876,-3.7913,-3.7434,-3.7088,0.0,0.0,0.0,0.0,0.0,0.0,0.0,0.0,0.0,0.0,0.0,0.0,-4.9001,-4.9001,-4.9001,-4.9001,-4.9001,-4.9001,-4.9001,-4.9001,-4.9001,-4.9001,-4.9001,0.0,-4.9001,-4.8242,-4.7852,-4.7852,-4.6378,-4.5624,-4.564,-4.4933,-4.461,-4.461,-4.461,-4.461,-4.461,-4.461,-4.461,-4.461,-4.461,-4.461,-4.461,-4.461,-4.461,-4.461,-4.461,-4.461,-4.461,-4.461,-4.461,-4.461,-4.461,-4.461,-4.461,0.0,0.0,0.0,-4.3701,-4.3017,-4.2402,-4.1709,-4.1032,-4.0489,-4.0489,-4.0489,-4.0489,-4.0489,-4.0489,-4.0489,-4.0489,-4.0489,-4.0489,-4.0489,-4.0489,-4.0489,-4.0489,-4.0401,-4.0296,-4.0296,-3.998,-3.9717,-3.9717,-3.9553,-3.9424,-3.9424,-3.9424,-3.9424,-3.9388,-3.9388,-3.9388,-3.9388,-3.9783,-3.9657,-3.907,-3.8754,-3.8567,-3.8554,-3.8554,-3.8554,-3.8554,-3.8554,-3.8923,-3.9582,-4.0213,-4.0489,-4.0489,-4.0489,-4.0489,-4.0489,-4.0455,-3.9834,-3.8964,-3.8723,-3.8003,-3.7165,0.0,0.0,0.0,0.0,0.0,0.0,0.0,0.0,0.0,0.0,0.0,0.0,0.0,-4.9001,-4.9001,-4.9001,-4.9001,-4.9001,-4.9001,-4.9001,-4.9001,-4.9001,-4.9001,-4.9001,-4.9001,-4.8274,-4.7885,-4.7885,-4.6413,-4.5697,-4.5697,-4.4933,-4.461,-4.461,-4.461,-4.461,-4.461,-4.461,-4.461,-4.461,-4.461,-4.461,-4.461,-4.461,-4.461,-4.461,-4.461,-4.461,-4.461,-4.461,-4.461,-4.461,-4.461,-4.461,-4.461,-4.461,-4.461,-4.4471,-4.3793,-4.3439,-4.2971,-4.1863,-4.1401,-4.1093,-4.0597,-4.0489,-4.0489,-4.0489,-4.0489,-4.0489,-4.0489,-4.0489,-4.0489,-4.0489,-4.0489,-4.0489,-4.0489,-4.0366,-4.0312,-4.0312,-3.993,-3.9681,-3.9681,-3.9517,-3.9388,-3.9388,-3.9388,-3.9388,-3.9388,-3.9388,-3.9251,-3.8973,-3.9099,-3.8955,-3.8495,-3.8499,-3.8292,-3.7861,-3.7861,-3.7861,-3.7861,-3.7861,-3.8231,-3.8908,-3.9585,-4.009,-4.0489,-4.0489,-4.0489,-4.0489,-4.0489,-4.0301,-3.9955,-3.9793,-3.9436,-3.8877,0.0,0.0,0.0,0.0,0.0,0.0,0.0,0.0,0.0,-4.9001,0.0,0.0,0.0,0.0,-4.9001,-4.9001,-4.9001,-4.9001,-4.9001,-4.9001,-4.9001,-4.9001,-4.9001,-4.8892,-4.8656,-4.8161,-4.7787,-4.7522,-4.6308,-4.5697,-4.5697,-4.4933,-4.461,-4.461,-4.461,-4.461,-4.461,-4.461,-4.461,-4.461,-4.461,-4.461,-4.461,-4.461,-4.461,-4.461,-4.461,-4.461,-4.461,-4.461,-4.461,-4.461,-4.461,-4.461,-4.461,-4.461,-4.461,-4.4517,-4.4071,-4.3778,-4.3347,-4.2202,-4.1771,-4.1417,-4.0659,-4.0489,-4.0489,-4.0489,-4.0489,-4.0489,-4.0489,-4.0489,-4.0489,-4.0436,-4.0436,-4.0401,-4.0331,-4.0191,-4.0086,-4.0086,-3.9803,-3.9589,-3.9589,-3.9496,-3.9388,-3.9388,-3.9388,0.0,-3.9388,-3.92,-3.8887,-3.8469,-3.8281,-3.8102,-3.7958,-3.7874,-3.7615,-3.7153,-3.7153,-3.7153,-3.7153,-3.7153,-3.7523,-3.82,-3.8646,-3.9354,-4.0166,-4.0397,-4.0489,-4.0489,-4.0489,-4.0489,-4.0489,-4.0347,-4.0207,-3.9996,0.0,0.0,0.0,0.0,0.0,0.0,0.0,0.0,-4.9001,-4.9001,0.0,0.0,0.0,0.0,0.0,-4.9001,-4.9001,-4.9001,-4.9001,-4.9001,-4.9001,-4.9001,-4.9001,-4.8656,-4.795,-4.7917,-4.7589,-4.6846,-4.6111,-4.5733,-4.5697,-4.4971,-4.461,-4.461,-4.461,-4.461,-4.461,-4.461,-4.461,-4.461,-4.461,-4.461,-4.461,-4.461,-4.461,-4.461,-4.461,-4.461,-4.461,-4.461,-4.461,-4.461,-4.461,-4.461,-4.461,-4.461,-4.461,-4.461,0.0,0.0,0.0,-4.2771,-4.2109,-4.1432,-4.0659,-4.0489,-4.0505,-4.0489,-4.0489,-4.0489,-4.0489,-4.0489,-4.047,-4.0296,-4.0312,-4.0242,-4.0031,-3.9839,-3.9681,-3.9681,-3.9517,-3.9388,-3.9388,-3.9388,-3.9388,-3.9388,-3.9388,-3.9373,-3.9394,-3.8721,-3.8236,-3.7974,-3.7458,-3.7286,-3.7477,-3.683,-3.6492,-3.6492,-3.6492,-3.6492,-3.6492,-3.6492,-3.6846,-3.7477,-3.7492,-3.8262,-3.9505,-4.0182,-4.0474,-4.0489,-4.0489,-4.0489,-4.0489,-4.0331,-4.0296,-4.0277,0.0,0.0,0.0,0.0,0.0,0.0,0.0,-4.9001,-4.9001,0.0,0.0,0.0,-4.9001,-4.9001,-4.9001,-4.9001,-4.9001,-4.9001,-4.9001,-4.9001,-4.9001,-4.9001,-4.9001,-4.8892,-4.8688,0.0,0.0,0.0,0.0,0.0,0.0,0.0,-4.461,-4.461,-4.461,-4.461,-4.461,-4.461,-4.461,-4.461,-4.461,-4.461,-4.461,-4.461,-4.461,-4.461,-4.461,-4.461,-4.461,-4.461,-4.461,-4.461,-4.461,-4.461,-4.461,-4.461,-4.461,-4.4572,-4.4435,0.0,0.0,0.0,0.0,0.0,-4.0766,0.0,-4.0366,-4.0489,-4.0296,-4.0191,-4.047,-4.0436,-4.0312,-4.0101,-4.0207,-4.0242,-4.0031,-3.9839,-3.9681,-3.9681,-3.9517,-3.9388,-3.9388,-3.9388,-3.9388,0.0,-3.9388,-3.92,-3.8691,-3.7854,-3.7343,-3.7261,-3.69,-3.6737,-3.6769,-3.6584,-3.6492,-3.6492,-3.6492,-3.6492,-3.6492,-3.6492,-3.6599,-3.6799,-3.7292,-3.8,-3.8846,-3.949,-4.0043,-4.0489,-4.0489,-4.0489,-4.0505,-4.047,-4.0366,-4.0312,0.0,0.0,0.0,0.0,0.0,0.0,0.0,-4.9001,-4.9001,0.0,0.0,0.0,-4.9001,-4.9001,-4.9001,-4.9001,-4.9001,-4.9001,-4.9001,-4.9001,-4.9001,-4.9001,-4.9001,-4.8861,-4.8545,0.0,0.0,0.0,0.0,0.0,0.0,0.0,0.0,-4.461,-4.461,-4.461,-4.461,-4.461,-4.461,-4.461,-4.461,-4.461,-4.461,-4.461,-4.461,-4.461,-4.461,-4.461,-4.461,-4.461,-4.461,-4.461,-4.461,-4.461,-4.461,-4.461,-4.4549,-4.4473,-4.432,-4.4396,-4.4097,-4.2652,0.0,0.0,-4.0812,-4.0436,-4.0401,0.0,-4.0296,-4.0172,-4.0366,-4.0261,-4.0101,-3.9925,-3.998,-3.998,-3.9783,-3.9661,-3.9589,-3.9589,-3.9481,-3.9388,-3.9388,-3.9388,-3.9388,-3.9388,-3.9155,-3.8607,-3.7732,-3.7249,-3.6884,-3.6677,-3.6566,-3.6492,-3.6492,-3.6492,-3.6492,-3.6492,-3.6492,-3.6492,-3.6492,-3.6492,-3.6492,-3.6507,-3.6907,-3.7461,-3.8138,-3.8831,-3.9628,-4.0489,-4.0489,-4.0489,-4.0489,-4.0489,-4.0455,-4.0366,0.0,0.0,0.0,0.0,0.0,0.0,0.0,-4.9001,-4.9001,0.0,-4.9001,-4.9001,-4.9001,-4.9001,-4.9001,-4.9001,-4.9001,-4.9001,-4.9001,-4.9001,-4.9001,-4.9001,-4.9001,-4.8688,-4.8032,0.0,0.0,0.0,0.0,0.0,0.0,0.0,0.0,0.0,0.0,-4.4685,-4.461,-4.461,-4.461,-4.461,-4.461,-4.461,-4.461,-4.461,-4.461,-4.461,-4.461,-4.461,-4.461,-4.461,-4.461,-4.461,-4.461,-4.461,-4.461,-4.461,-4.4473,-4.432,-4.432,-4.432,-4.3999,-4.2652,-4.2441,0.0,-4.0812,-4.0455,-4.042,0.0,-4.0296,-4.0207,-4.0277,-4.0101,-3.9925,-3.9732,-3.9681,-3.9625,-3.9424,-3.9388,-3.9388,-3.9388,-3.9388,-3.9388,-3.9388,-3.9388,-3.9388,-3.9388,-3.8721,-3.7818,-3.6755,-3.6799,-3.6675,-3.6211,-3.6383,-3.6492,-3.6492,-3.6492,-3.6492,-3.6492,-3.6492,-3.6492,-3.6492,-3.6492,-3.6492,-3.6492,-3.6492,-3.6876,-3.7554,-3.8231,-3.9228,-4.0397,-4.0459,-4.0489,-4.0489,-4.0489,-4.0489,-4.0489,-4.8909,0.0,0.0,0.0,0.0,0.0,0.0,-4.9001,-4.9001,-4.9001,-4.9001,-4.9001,-4.9001,-4.9001,-4.9001,-4.9001,-4.9001,-4.9001,-4.9001,-4.9001,-4.9001,-4.9001,-4.9001,-4.894,-4.8798,0.0,0.0,0.0,0.0,0.0,0.0,0.0,0.0,0.0,0.0,-4.5179,-4.461,-4.461,-4.461,-4.461,-4.461,-4.461,-4.461,-4.461,-4.461,-4.461,-4.461,-4.461,-4.461,-4.461,-4.461,-4.461,-4.461,-4.461,-4.461,-4.461,-4.4572,-4.4511,-4.4358,-4.4435,-4.4173,-4.2689,-4.2316,0.0,-4.0653,-4.0086,-3.991,0.0,-3.9818,-3.9661,-3.9996,-3.9874,-3.9768,-3.9717,-3.9681,-3.9625,-3.9424,-3.9388,-3.9388,-3.9388,-3.9388,-3.9388,-3.9388,-3.9388,-3.9388,-3.9388,-3.8287,-3.7338,-3.6725,-3.6377,-3.6205,-3.6211,-3.6383,-3.6492,-3.6492,-3.6492,-3.6492,-3.6492,-3.6492,-3.6492,-3.6492,-3.6492,-3.6492,-3.6492,-3.6492,-3.6876,-3.7554,-3.8231,-3.8985,-3.9736,-4.0274,-4.0489,-4.0489,-4.0489,-4.0489,-4.0489,-4.897,-4.9001,0.0,0.0,0.0,0.0,0.0,0.0,-4.9001,-4.9001,-4.9001,-4.9001,-4.9001,-4.9001,-4.9001,-4.9001,-4.9001,-4.9001,-4.9001,-4.9001,-4.9001,-4.9001,-4.9001,-4.9001,-4.9001,-4.9001,0.0,0.0,0.0,0.0,0.0,0.0,0.0,0.0,-4.5311,-4.4933,-4.461,-4.461,-4.461,-4.461,-4.461,-4.461,-4.461,-4.461,-4.461,-4.461,-4.461,-4.461,-4.461,-4.461,-4.461,-4.461,-4.461,-4.461,-4.4587,-4.4473,-4.4473,-4.4396,-4.422,-4.4281,-4.4075,-4.2541,-4.2242,0.0,0.0,-3.9996,-3.9889,-3.996,-3.9747,-3.9625,-3.9803,-3.9696,-3.9553,-3.9553,-3.9553,-3.9517,-3.9409,-3.9388,-3.9388,-3.9388,-3.9388,-3.9388,-3.9388,-3.9388,-3.914,-3.8467,-3.7793,-3.7087,-3.6405,-3.6123,-3.61,-3.6352,-3.646,-3.6492,-3.6492,-3.6492,-3.6492,-3.6492,-3.6492,-3.6492,-3.6492,-3.6492,-3.6492,-3.6492,-3.6492,-3.6676,-3.7046,-3.7723,-3.8415,-3.9108,-4.0105,-4.0489,-4.0489,-4.0489,-4.0489,-4.0489,-4.897,-4.9001,0.0,0.0,0.0,0.0,0.0,0.0,-4.9001,-4.9001,-4.9001,-4.9001,-4.9001,-4.9001,-4.9001,-4.9001,-4.9001,-4.9001,-4.9001,-4.9001,-4.9001,-4.9001,-4.9001,-4.9001,-4.9001,-4.9001,0.0,0.0,0.0,0.0,0.0,0.0,0.0,0.0,-4.5067,-4.4723,-4.461,-4.461,-4.461,-4.461,-4.461,-4.461,-4.461,-4.461,-4.461,-4.461,-4.461,-4.461,-4.461,-4.461,-4.461,-4.461,-4.461,-4.461,-4.4572,-4.4396,-4.4358,-4.432,-4.4166,-4.4151,-4.383,-4.2399,-4.2041,-4.1666,0.0,0.0,0.0,-3.9889,-3.9768,-3.9661,-3.9661,-3.9517,0.0,-3.9388,0.0,0.0,0.0,-3.9388,0.0,-3.9388,-3.9388,-3.9388,-3.9388,-3.9388,-3.882,-3.7509,-3.7404,-3.7004,-3.6049,-3.6005,-3.6132,-3.6492,-3.6492,-3.6492,-3.6492,-3.6492,-3.6492,-3.6492,-3.6492,-3.6492,-3.6492,-3.6492,-3.6492,-3.6492,-3.6492,-3.6492,-3.6538,-3.7215,-3.7831,-3.8446,-3.9767,-4.0382,-4.0489,-4.0489,-4.0489,-4.0489,-4.9001,-4.9001,-4.9001,0.0,0.0,0.0,0.0,0.0,-4.9001,-4.9001,-4.9001,-4.9001,-4.9001,-4.9001,-4.9001,-4.9001,-4.9001,-4.9001,-4.9001,-4.9001,-4.9001,-4.9001,-4.9001,-4.9001,-4.9001,-4.9001,-4.9001,0.0,0.0,0.0,0.0,0.0,0.0,0.0,-4.5588,-4.5216,-4.461,-4.461,-4.461,-4.461,-4.461,-4.461,-4.461,-4.461,-4.461,-4.461,-4.461,-4.461,-4.461,-4.461,-4.461,-4.461,-4.461,-4.461,-4.4587,-4.4572,-4.4587,-4.4572,-4.4549,-4.4103,-4.3473,-4.2499,-4.169,-4.0906,-3.9934,0.0,-3.946,-3.946,0.0,-3.9409,-3.9409,0.0,0.0,-3.9388,-3.9388,-3.9388,-3.9388,-3.9388,-3.9388,-3.9388,-3.9388,-3.9388,-3.9388,-3.9388,-3.882,-3.7509,-3.7404,-3.7004,-3.6049,-3.6005,-3.6132,-3.6492,-3.6492,-3.6492,-3.6492,-3.6492,-3.6492,-3.6492,-3.6492,-3.6492,-3.6492,-3.6492,-3.6492,-3.6492,-3.6492,-3.6492,-3.6538,-3.7215,-3.7538,-3.7754,-3.9108,-3.9967,-4.0489,-4.0489,-4.0489,-4.0489,-4.9001,-4.9001,-4.9001,-4.9001,0.0,0.0,0.0,0.0,-4.9001,-4.9001,-4.9001,-4.9001,-4.9001,-4.9001,-4.9001,-4.9001,-4.9001,-4.9001,-4.9001,-4.9001,-4.9001,-4.9001,-4.9001,-4.9001,-4.9001,-4.9001,-4.9001,0.0,-4.8688,0.0,0.0,0.0,0.0,0.0,-4.5913,-4.5274,-4.461,-4.461,-4.461,-4.461,-4.461,-4.461,-4.461,-4.461,-4.461,-4.461,-4.461,-4.461,-4.461,-4.461,-4.461,-4.461,-4.461,-4.461,-4.4587,-4.4473,-4.4511,-4.4549,-4.432,-4.3868,-4.3195,-4.221,-4.1395,-4.0583,-3.9703,-3.9445,-3.9388,-3.9388,0.0,0.0,0.0,0.0,0.0,0.0,-3.9388,-3.9388,0.0,0.0,-3.9388,-3.9388,0.0,0.0,-3.9388,-3.9388,-3.882,-3.7509,-3.7404,-3.7004,-3.6049,-3.6005,-3.6132,-3.6492,-3.6492,-3.6492,-3.6492,-3.6492,-3.6492,-3.6492,-3.6492,-3.6492,-3.6492,-3.6492,-3.6492,-3.6492,-3.6492,-3.6492,-3.6507,-3.6799,-3.7153,-3.7554,-3.8123,-3.9,-3.9905,-3.9905,-4.0151,-4.0489,-4.9001,-4.9001,-4.9001,-4.9001,0.0,0.0,0.0,-4.9001,-4.9001,-4.9001,-4.9001,-4.9001,-4.9001,-4.9001,-4.9001,-4.9001,-4.9001,-4.9001,-4.9001,-4.9001,-4.9001,-4.9001,-4.9001,-4.9001,-4.9001,-4.9001,-4.9001,0.0,0.0,0.0,0.0,0.0,0.0,0.0,-4.5733,-4.5104,-4.461,-4.461,-4.461,-4.461,-4.461,-4.461,-4.461,-4.461,-4.461,-4.461,-4.461,-4.461,-4.461,-4.461,-4.461,0.0,-4.461,-4.461,-4.4572,-4.4435,-4.4473,-4.4458,-4.4166,-4.3503,-4.2741,-4.1904,-4.1075,-4.0248,-3.9565,-3.9388,-3.9388,-3.9388,-3.9388,0.0,0.0,0.0,-3.9388,-3.9388,0.0,-3.9388,-3.9388,-3.9388,-3.9388,-3.9388,-3.9388,0.0,0.0,-3.9388,-3.882,-3.7509,-3.7404,-3.7004,-3.6049,-3.6005,-3.6132,-3.6492,-3.6492,-3.6492,-3.6492,-3.6492,-3.6492,-3.6492,-3.6492,-3.6492,-3.6492,-3.6492,-3.6492,-3.6492,-3.6492,-3.6492,-3.6492,-3.6492,-3.6784,-3.723,-3.723,-3.7938,-3.8985,-3.9136,-3.9431,-3.9659,-4.9001,-4.9001,-4.9001,-4.9001,-4.9001,-4.9001,0.0,-4.9001,-4.9001,-4.9001,-4.9001,-4.9001,-4.9001,-4.9001,-4.9001,-4.9001,-4.9001,-4.9001,-4.9001,-4.9001,-4.9001,-4.9001,-4.9001,-4.9001,-4.9001,-4.9001,-4.9001,0.0,0.0,0.0,0.0,0.0,0.0,0.0,-4.4955,-4.461,-4.461,-4.461,-4.461,-4.461,-4.461,-4.461,-4.461,-4.461,-4.461,-4.461,-4.461,-4.461,0.0,-4.461,-4.461,0.0,0.0,0.0,-4.461,-4.4572,-4.4473,-4.432,-4.4281,-4.3168,-4.1977,-4.1745,-4.0728,-3.9676,-3.946,-3.9388,-3.9388,-3.9388,-3.9388,-3.9388,-3.9388,-3.9388,-3.9388,-3.9388,-3.9388,0.0,0.0,-3.9388,-3.9388,-3.9388,-3.9388,-3.9388,0.0,-3.9388,-3.882,-3.7509,-3.7404,-3.7004,-3.6049,-3.6005,-3.6132,-3.6492,-3.6492,-3.6492,-3.6492,-3.6492,-3.6492,-3.6492,-3.6492,-3.6492,-3.6492,-3.6492,-3.6492,-3.6492,-3.6492,-3.6492,-3.6492,-3.6492,-3.6507,-3.6522,-3.6522,-3.6953,-3.7646,-3.8292,-3.8138,-3.76,-4.9001,-4.9001,-4.9001,-4.9001,-4.9001,-4.9001,-4.9001,-4.9001,-4.9001,-4.9001,-4.9001,-4.9001,-4.9001,-4.9001,-4.9001,-4.9001,-4.9001,-4.9001,-4.9001,-4.9001,-4.9001,-4.9001,-4.9001,-4.9001,-4.9001,-4.9001,-4.9001,-4.9001,0.0,0.0,0.0,0.0,0.0,0.0,0.0,-4.6237,-4.5311,-4.5311,-4.503,-4.461,-4.461,-4.461,-4.461,-4.461,-4.461,-4.461,-4.461,-4.461,0.0,-4.461,-4.461,-4.461,-4.461,-4.4511,-4.4396,-4.4396,-4.4243,0.0,0.0,0.0,-4.164,-4.1017,0.0,-3.9481,-3.9424,-3.9388,-3.9388,-3.9388,-3.9388,-3.9388,-3.9388,-3.9388,-3.9388,-3.9388,-3.9388,-3.9388,0.0,-3.9388,-3.9388,-3.9388,-3.9388,-3.9388,-3.9388,0.0,0.0,-3.7479,-3.703,-3.6568,-3.6019,-3.6005,-3.6132,-3.6492,-3.6492,-3.6492,-3.6492,-3.6492,-3.6492,-3.6492,-3.6492,-3.6492,-3.6492,-3.6492,-3.6492,-3.6492,-3.6492,-3.6492,-3.6492,-3.6492,-3.6492,-3.6445,-3.5999,-3.5968,-3.6245,-3.6923,-3.7307,-3.7399,-4.9001,-4.9001,-4.9001,-4.9001,-4.9001,-4.9001,-4.9001,-4.9001,-4.9001,-4.9001,-4.9001,-4.9001,-4.9001,-4.9001,-4.9001,-4.9001,-4.9001,-4.9001,-4.9001,-4.9001,-4.9001,-4.9001,-4.9001,-4.9001,-4.9001,-4.9001,-4.9001,-4.9001,-4.9001,-4.9001,0.0,0.0,0.0,0.0,0.0,-4.683,-4.5697,-4.5697,-4.5274,-4.461,-4.461,-4.461,-4.461,-4.461,-4.461,-4.461,0.0,-4.461,-4.461,-4.461,-4.4534,-4.4496,-4.4496,-4.4358,-4.4205,-4.4205,-4.3898,-4.3432,-4.2854,-4.1979,0.0,-4.0539,-3.9903,0.0,-3.9388,-3.9388,-3.9388,-3.9388,-3.9388,-3.9388,-3.9388,-3.9388,-3.9388,-3.9388,-3.9388,-3.9388,0.0,-3.9388,-3.9388,-3.9388,-3.9388,-3.9388,-3.9388,-3.8796,-3.8123,-3.7464,-3.6836,-3.6343,-3.6004,0.0,-3.6132,-3.6492,-3.6492,-3.6492,-3.6492,-3.6492,-3.6492,-3.6492,-3.6492,-3.6492,-3.6492,-3.6492,-3.6492,-3.6492,-3.6492,-3.6492,-3.6492,-3.6492,-3.6492,-3.6445,-3.6014,-3.5691,-3.5537,-3.5737,-3.5861,-3.583,-4.9001,-4.9001,-4.9001,-4.9001,-4.9001,-4.9001,-4.9001,-4.9001,-4.9001,-4.9001,-4.9001,-4.9001,-4.9001,-4.9001,-4.9001,-4.9001,-4.9001,-4.9001,-4.9001,-4.9001,-4.9001,-4.9001,-4.9001,-4.9001,-4.9001,-4.9001,-4.9001,-4.9001,-4.9001,0.0,0.0,0.0,0.0,0.0,-4.7221,-4.6464,-4.5769,-4.5769,-4.5311,-4.461,-4.461,-4.461,-4.461,-4.461,-4.461,-4.461,-4.461,-4.461,-4.461,-4.4587,-4.4473,-4.4281,-4.4281,-4.4127,-4.3988,-4.3988,-4.3363,-4.2695,-4.265,-4.1535,-4.0382,-4.0367,-3.9888,0.0,0.0,0.0,-3.9388,-3.9388,-3.9388,-3.9388,-3.9388,-3.9388,-3.9388,-3.9388,-3.9388,-3.9388,-3.9388,-3.9388,-3.9388,-3.9388,-3.9388,-3.9388,-3.9388,-3.8766,-3.8078,-3.7464,-3.6806,-3.6313,-3.6004,-3.6005,-3.6132,-3.6492,-3.6492,-3.6492,-3.6492,-3.6492,-3.6492,-3.6492,-3.6492,-3.6492,-3.6492,-3.6492,-3.6492,-3.6492,-3.6492,-3.6492,-3.6492,-3.6492,-3.6492,-3.6492,-3.6445,-3.6014,-3.5337,-3.469,-3.3896,-3.3033,-4.9001,-4.9001,-4.9001,-4.9001,-4.9001,-4.9001,-4.9001,-4.9001,-4.9001,-4.9001,-4.9001,-4.9001,-4.9001,-4.9001,-4.9001,-4.9001,-4.9001,-4.9001,-4.9001,-4.9001,-4.9001,-4.9001,-4.9001,-4.9001,-4.9001,-4.9001,-4.9001,-4.9001,-4.9001,0.0,-4.9001,0.0,0.0,0.0,0.0,-4.7737,-4.6499,-4.6499,-4.5769,-4.461,-4.461,-4.461,-4.461,0.0,-4.461,-4.461,-4.461,-4.461,-4.4587,-4.4435,-4.4358,-4.4281,-4.4127,-4.3949,-4.3769,-4.3769,-4.3169,-4.2383,-4.185,-4.1063,-4.0277,-3.9783,-3.9544,-3.9388,0.0,0.0,0.0,0.0,0.0,0.0,0.0,-3.9388,-3.9388,-3.9388,-3.9388,-3.9388,-3.9388,-3.9388,-3.9388,-3.9388,-3.9388,-3.9388,-3.9388,-3.8347,-3.7599,-3.7419,-3.6387,-3.5832,-3.5988,0.0,0.0,-3.6492,-3.6492,-3.6492,-3.6492,-3.6492,-3.6492,-3.6492,-3.6492,-3.6492,-3.6492,-3.6492,-3.6492,-3.6492,-3.6492,-3.6492,-3.6492,-3.6492,-3.6492,-3.6445,-3.5938,-3.4999,-3.3921,-3.3752,-3.3159,-3.2392,-4.9001,-4.9001,-4.9001,-4.9001,-4.9001,-4.9001,-4.9001,-4.9001,-4.9001,-4.9001,-4.9001,-4.9001,-4.9001,-4.9001,-4.9001,-4.9001,-4.9001,-4.9001,-4.9001,-4.9001,-4.9001,-4.9001,-4.9001,-4.9001,-4.9001,-4.9001,-4.9001,-4.9001,-4.9001,0.0,-4.9001,0.0,0.0,0.0,0.0,-4.7869,-4.6742,-4.6111,-4.5348,-4.461,-4.461,-4.461,0.0,-4.461,-4.4549,-4.4473,-4.4473,-4.4473,-4.4473,-4.4358,-4.4166,-4.4026,-4.391,-4.3714,-4.3518,-4.3518,-4.2788,-4.1886,-4.1512,-4.0696,-3.9888,-3.9478,-3.9388,-3.9388,-3.9388,-3.9388,-3.9388,0.0,-3.9388,-3.9388,0.0,0.0,-3.9388,-3.9388,-3.9388,-3.9388,-3.9388,-3.9388,-3.9388,-3.9388,-3.9388,-3.9388,-3.9388,-3.8197,-3.7404,-3.7404,-3.6222,0.0,0.0,0.0,0.0,-3.6492,-3.6492,-3.6492,-3.6492,-3.6492,-3.6492,-3.6492,-3.6492,-3.6492,-3.6492,-3.6492,-3.6492,-3.6492,-3.6492,-3.6492,-3.6492,-3.6492,-3.6492,-3.6384,-3.5444,-3.4597,-3.3798,-3.3126,-3.254,-3.2124,-4.9001,-4.9001,-4.9001,-4.9001,-4.9001,-4.9001,-4.9001,-4.9001,-4.9001,-4.9001,-4.9001,-4.9001,-4.9001,-4.9001,-4.9001,-4.9001,-4.9001,-4.9001,-4.9001,-4.9001,-4.9001,-4.9001,-4.9001,-4.9001,-4.9001,-4.9001,-4.9001,-4.9001,-4.9001,0.0,0.0,0.0,0.0,0.0,0.0,-4.7456,-4.6569,-4.5179,-4.4587,-4.461,-4.461,-4.4572,-4.4572,-4.4572,-4.4435,-4.4243,-4.4243,-4.4243,-4.4243,-4.4243,-4.3988,-4.369,-4.3651,-4.3503,-4.3275,-4.32,-4.2342,-4.1392,-4.1265,-4.0352,-3.9388,-3.9388,-3.9388,-3.9388,-3.9388,-3.9388,-3.9388,-3.9388,-3.9388,-3.9388,0.0,0.0,-3.9388,-3.9388,-3.9388,-3.9388,-3.9388,-3.9388,-3.9388,-3.9388,-3.9388,0.0,-3.929,-3.8153,-3.7404,-3.7404,-3.6222,0.0,0.0,0.0,0.0,-3.6492,-3.6492,-3.6492,-3.6492,0.0,-3.6492,-3.6492,-3.6492,-3.6492,-3.6492,-3.6492,-3.6492,-3.6492,-3.6492,-3.6492,-3.6492,-3.6492,-3.6492,-3.6353,-3.5028,-3.4551,-3.4429,-3.289,-3.2277,-3.2287,-4.9001,-4.9001,-4.9001,-4.9001,-4.9001,-4.9001,-4.9001,-4.9001,-4.9001,-4.9001,-4.9001,-4.9001,-4.9001,-4.9001,-4.9001,-4.9001,-4.9001,-4.9001,-4.9001,-4.9001,-4.9001,-4.9001,-4.9001,-4.9001,-4.9001,-4.9001,-4.9001,-4.9001,-4.9001,-4.9001,0.0,0.0,0.0,0.0,-4.8242,-4.7171,-4.5841,-4.4783,0.0,-4.461,-4.461,-4.4496,-4.4358,-4.4358,-4.4243,-4.4065,-4.4065,-4.4065,-4.4026,-4.3871,-4.3769,-4.3651,-4.3423,-4.3329,-4.3185,-4.2686,-4.2021,-4.1265,-4.0726,-4.0008,-3.9388,-3.9388,-3.9388,-3.9388,-3.9388,-3.9388,-3.9388,-3.9388,-3.9388,-3.9388,-3.9388,0.0,0.0,-3.9388,-3.9388,-3.9388,-3.9388,-3.9388,-3.9388,-3.9388,-3.9388,-3.9185,-3.8631,-3.7868,-3.7404,-3.7404,-3.6222,0.0,0.0,0.0,0.0,0.0,-3.6492,0.0,0.0,0.0,-3.6492,-3.6492,-3.6492,-3.6492,-3.6492,-3.6492,-3.6492,-3.6492,-3.6492,-3.6492,-3.6492,-3.6492,-3.6492,-3.6353,-3.5028,-3.4844,-3.5107,-3.3478,-3.3195,-3.3575,-4.9001,-4.9001,-4.9001,-4.9001,-4.9001,-4.9001,-4.9001,-4.9001,-4.9001,-4.9001,-4.9001,-4.9001,-4.9001,-4.9001,-4.9001,-4.9001,-4.9001,-4.9001,-4.9001,-4.9001,-4.9001,-4.9001,-4.9001,-4.9001,-4.9001,-4.9001,-4.9001,-4.9001,-4.9001,-4.897,0.0,0.0,0.0,-4.808,-4.6934,-4.5845,-4.4768,0.0,0.0,-4.4281,-4.4281,-4.4243,-4.4127,-4.4127,-4.4026,-4.3832,-4.3832,-4.3754,-4.366,-4.3675,-4.3596,-4.3463,-4.3329,-4.3105,-4.2776,-4.25,-4.1692,-4.0801,-4.0487,-3.9918,-3.9388,-3.9388,-3.9388,-3.9388,-3.9388,-3.9388,-3.9388,-3.9388,-3.9388,-3.9388,-3.9388,-3.9388,0.0,0.0,-3.9388,-3.9388,-3.9388,-3.9388,-3.9388,-3.9388,-3.9388,-3.9155,-3.8467,-3.7793,-3.727,-3.6956,-3.6043,0.0,0.0,0.0,0.0,0.0,0.0,0.0,0.0,0.0,0.0,-3.6492,-3.6492,-3.6492,-3.6492,-3.6492,-3.6492,-3.6492,-3.6492,-3.6492,-3.6492,-3.6492,-3.6492,-3.6384,-3.5429,-3.5153,-3.5201,-3.3953,-3.3864,-3.4272,-4.9001,-4.9001,-4.9001,-4.9001,-4.9001,-4.9001,-4.9001,-4.9001,-4.9001,-4.9001,-4.9001,-4.9001,-4.9001,-4.9001,-4.9001,-4.9001,-4.9001,-4.9001,-4.9001,-4.9001,-4.9001,-4.9001,-4.9001,-4.9001,-4.9001,-4.9001,-4.9001,-4.9001,-4.9001,0.0,0.0,0.0,0.0,0.0,0.0,0.0,0.0,0.0,-4.3949,-4.3988,-4.3988,-4.3988,-4.3949,-4.3949,-4.3793,-4.3596,-4.3596,-4.3463,-4.3329,-4.3557,-4.3463,-4.329,-4.329,-4.2895,-4.2366,-4.2231,-4.1324,-4.0367,-4.0232,-3.9813,-3.9388,-3.9388,-3.9388,-3.9388,-3.9388,-3.9388,-3.9388,-3.9388,-3.9388,-3.9388,-3.9388,-3.9388,0.0,0.0,0.0,-3.9388,-3.9388,-3.9388,-3.9388,-3.9388,-3.9254,-3.8931,-3.8242,-3.7584,-3.6956,-3.6327,-3.5804,0.0,-3.591,0.0,0.0,0.0,0.0,-3.646,-3.6492,0.0,-3.6492,-3.6492,-3.6492,-3.6492,-3.6492,-3.6492,-3.6492,-3.6492,-3.6492,-3.6492,-3.6492,-3.6492,-3.6492,-3.643,-3.5707,-3.5431,-3.5309,-3.4471,-3.4469,-3.4886,-4.9001,-4.9001,-4.9001,-4.9001,-4.9001,-4.9001,-4.9001,-4.9001,-4.9001,-4.9001,-4.9001,-4.9001,-4.9001,-4.9001,-4.9001,-4.9001,-4.9001,-4.9001,-4.9001,-4.9001,-4.9001,-4.9001,-4.9001,-4.9001,-4.9001,-4.9001,-4.9001,-4.9001,-4.9001,-4.8961,0.0,0.0,0.0,0.0,0.0,0.0,0.0,-4.3808,-4.3832,-4.3988,-4.3988,-4.3871,-4.3729,-4.3729,-4.3557,-4.3329,-4.3329,-4.3329,-4.329,-4.3329,-4.3329,-4.329,-4.329,-4.2895,-4.2276,-4.1692,-4.0965,-4.0277,-3.9679,-3.9433,-3.9388,-3.9388,-3.9388,-3.9388,-3.9388,-3.9388,-3.9388,-3.9388,-3.9388,-3.9388,-3.9388,-3.9388,-3.9388,0.0,0.0,-3.9388,-3.9388,-3.9388,-3.9388,-3.9388,-3.8871,-3.8227,-3.7569,-3.6941,-3.6297,-3.5654,-3.5549,0.0,0.0,0.0,0.0,-3.6211,0.0,-3.6305,-3.6492,-3.6492,-3.6492,-3.6492,-3.6492,-3.6492,-3.6492,-3.6492,-3.6492,-3.6492,-3.6492,-3.6492,-3.6492,-3.6492,-3.6492,-3.643,-3.5569,-3.5569,-3.5996,-3.5014,-3.5055,-3.5612,-4.9001,-4.9001,-4.9001,-4.9001,-4.9001,-4.9001,-4.9001,-4.9001,-4.9001,-4.9001,-4.9001,-4.9001,-4.9001,-4.9001,-4.9001,-4.9001,-4.9001,-4.9001,-4.9001,-4.9001,-4.9001,-4.9001,-4.9001,-4.9001,-4.9001,-4.9001,-4.9001,-4.9001,-4.8925,-4.8793,0.0,0.0,0.0,0.0,0.0,-4.4236,-4.3581,-4.3503,-4.3503,-4.3581,-4.3581,-4.3542,-4.3463,-4.3463,-4.3384,-4.329,-4.329,-4.329,-4.323,-4.288,-4.3015,-4.323,-4.2865,-4.2336,-4.1677,-4.0995,-4.0337,-3.9753,-3.9448,-3.9388,-3.9388,-3.9388,-3.9388,-3.9388,-3.9388,-3.9388,-3.9388,-3.9388,-3.9388,-3.9388,-3.9388,-3.9388,-3.9388,-3.9388,0.0,0.0,-3.9388,-3.9388,-3.9388,-3.9388,-3.8811,-3.8138,-3.7479,-3.6851,-3.6207,-3.5549,-3.5504,0.0,0.0,0.0,0.0,-3.6196,0.0,-3.6414,-3.6492,-3.6492,-3.6492,-3.6492,-3.6492,-3.6492,-3.6492,-3.6492,-3.6492,-3.6492,-3.6492,-3.6492,-3.6492,-3.6492,-3.6492,-3.6461,-3.5983,-3.5904,-3.6023,-3.5497,-3.5428,-3.5572,-4.9001,-4.9001,-4.9001,-4.9001,-4.9001,-4.9001,-4.9001,-4.9001,-4.9001,-4.9001,-4.9001,-4.9001,-4.9001,-4.9001,-4.9001,-4.9001,-4.9001,-4.9001,-4.9001,-4.9001,-4.9001,-4.9001,-4.9001,-4.9001,-4.9001,-4.9001,-4.897,-4.8956,-4.8849,-4.8681,0.0,0.0,0.0,0.0,-4.451,-4.4028,-4.329,-4.329,-4.329,-4.329,-4.329,-4.329,-4.329,-4.329,-4.329,-4.329,-4.329,-4.317,-4.297,-4.2545,-4.2536,-4.2686,-4.2261,-4.1662,-4.0995,-4.0531,-3.9933,-3.9388,-3.9388,-3.9388,-3.9388,-3.9388,-3.9388,-3.9388,-3.9388,-3.9388,-3.9388,-3.9388,-3.9388,-3.9388,-3.9388,-3.9388,-3.9388,-3.9388,0.0,0.0,-3.9388,-3.9388,-3.9388,-3.9388,-3.8631,-3.7913,-3.7464,-3.6671,-3.6013,-3.5549,0.0,0.0,0.0,0.0,0.0,0.0,0.0,0.0,0.0,-3.6414,-3.6445,-3.6492,-3.6492,-3.6492,-3.6492,-3.6492,-3.6492,-3.6492,-3.6492,-3.6492,-3.6492,-3.6492,-3.6492,-3.6492,-3.6258,-3.6085,-3.5973,-3.5735,-3.5572,-3.5504,-4.9001,-4.9001,-4.9001,-4.9001,-4.9001,-4.9001,-4.9001,-4.9001,-4.9001,-4.9001,-4.9001,-4.9001,-4.9001,-4.9001,-4.9001,-4.9001,-4.9001,-4.9001,-4.9001,-4.9001,-4.9001,-4.9001,-4.9001,-4.9001,-4.9001,-4.9001,-4.8956,-4.8818,-4.8818,0.0,-4.84,0.0,-4.6102,-4.451,-4.451,-4.4028,-4.329,-4.329,-4.329,-4.329,-4.329,-4.329,-4.329,-4.329,-4.329,-4.329,-4.329,-4.2925,-4.241,-4.2396,-4.1976,-4.1399,-4.1384,-4.0935,-4.0412,-4.0397,-3.9933,-3.9388,-3.9388,-3.9388,-3.9388,-3.9388,-3.9388,-3.9388,-3.9388,-3.9388,-3.9388,-3.9388,-3.9388,-3.9388,-3.9388,-3.9388,-3.9388,-3.9388,0.0,0.0,0.0,-3.9388,-3.9388,-3.9388,-3.8227,-3.7419,-3.7404,-3.6267,-3.5519,-3.5504,0.0,0.0,0.0,0.0,0.0,-3.5688,-3.572,0.0,-3.6196,-3.6196,-3.6305,-3.6492,-3.6492,-3.6492,-3.6492,-3.6492,-3.6492,-3.6492,-3.6492,-3.6492,-3.6492,-3.6492,-3.6492,-3.646,-3.6132,-3.6005,-3.5941,-3.5619,-3.5504,-3.5504,-4.9001,-4.9001,-4.9001,-4.9001,-4.9001,-4.9001,-4.9001,-4.9001,-4.9001,-4.9001,-4.9001,-4.9001,-4.9001,-4.9001,-4.9001,0.0,-4.9001,-4.9001,0.0,-4.9001,-4.9001,-4.9001,-4.9001,-4.9001,-4.9001,-4.9001,-4.897,-4.8956,0.0,0.0,0.0,-4.7799,-4.7089,-4.606,-4.5536,-4.4887,-4.4066,-4.3512,-4.329,-4.329,-4.329,-4.329,-4.329,-4.329,-4.329,-4.3245,-4.2821,-4.2575,-4.2261,-4.1324,-4.0891,-4.0636,-4.0187,-4.0202,-4.0307,-3.9858,-3.9589,-3.9388,-3.9388,-3.9388,-3.9388,-3.9388,-3.9388,-3.9388,-3.9388,-3.9388,-3.9388,-3.9388,-3.9388,-3.9388,-3.9388,-3.9388,-3.9388,-3.9388,-3.9388,0.0,-3.9388,-3.9388,-3.9388,-3.9388,-3.8227,-3.7404,-3.7404,-3.6252,0.0,0.0,0.0,0.0,0.0,0.0,0.0,0.0,-3.5831,0.0,-3.6196,-3.6196,-3.6305,-3.6492,-3.6492,-3.6492,-3.6492,-3.6492,-3.6492,-3.6492,-3.6492,-3.6492,-3.6492,-3.6492,-3.6414,-3.6274,-3.6068,-3.5926,-3.5767,-3.5587,-3.5504,-3.5504,-4.9001,-4.9001,-4.9001,-4.9001,-4.9001,-4.9001,-4.9001,-4.9001,-4.9001,-4.9001,-4.9001,-4.9001,-4.9001,-4.9001,0.0,-4.9001,-4.9001,-4.9001,-4.9001,-4.9001,-4.9001,-4.9001,-4.9001,-4.9001,-4.9001,-4.9001,0.0,-4.8909,-4.8658,-4.8388,-4.8179,-4.8179,-4.777,-4.6967,-4.6202,-4.5426,-4.4548,-4.3786,-4.3384,-4.329,-4.329,-4.329,-4.3275,-4.306,-4.297,-4.288,-4.2261,-4.1871,-4.1542,-4.0681,-4.0232,-3.9963,-3.9508,-3.9709,-3.9948,-3.9508,-3.9388,-3.9388,-3.9388,-3.9388,-3.9388,-3.9388,-3.9388,-3.9388,-3.9388,-3.9388,-3.9388,-3.9388,-3.9388,-3.9388,-3.9388,-3.9388,-3.9388,-3.9388,-3.9388,-3.9388,-3.9388,-3.9388,-3.9388,-3.9388,-3.8227,0.0,0.0,-3.6252,-3.5504,0.0,0.0,0.0,0.0,0.0,0.0,-3.5621,-3.5765,0.0,-3.6006,-3.6085,-3.6211,-3.6383,-3.646,-3.6492,-3.6492,-3.6492,-3.6492,-3.6492,-3.6492,-3.646,-3.6383,-3.6383,-3.6274,-3.6116,-3.5958,-3.5831,-3.5688,-3.5554,-3.5504,-3.5504,-4.9001,-4.9001,-4.9001,0.0,-4.9001,0.0,-4.9001,-4.9001,-4.9001,-4.9001,-4.9001,-4.9001,-4.9001,-4.9001,-4.9001,-4.9001,0.0,0.0,0.0,-4.9001,-4.9001,-4.9001,-4.9001,-4.9001,-4.9001,-4.9001,-4.8909,-4.8818,-4.8627,-4.8515,-4.8515,-4.8515,-4.8064,-4.7273,-4.6521,-4.5665,-4.4737,-4.3996,-4.3518,-4.329,-4.329,-4.326,-4.317,-4.262,-4.2366,-4.2246,-4.1587,-4.092,-4.0382,-4.0352,-3.9933,-3.9388,-3.9388,-3.9388,-3.9388,-3.9388,-3.9388,-3.9388,-3.9388,-3.9388,-3.9388,-3.9388,-3.9388,-3.9388,-3.9388,-3.9388,-3.9388,-3.9388,-3.9388,-3.9388,-3.9388,-3.9388,-3.9388,-3.9388,-3.9388,-3.9388,-3.9388,-3.9388,-3.9394,-3.9349,0.0,0.0,-3.7345,-3.6222,-3.5504,0.0,0.0,0.0,0.0,0.0,-3.5504,-3.5504,-3.5504,-3.5572,-3.5688,-3.5894,-3.6053,-3.6211,-3.6414,-3.6492,-3.6492,-3.6492,-3.6492,-3.6492,-3.6492,-3.6383,-3.6179,-3.6179,-3.6116,-3.5973,-3.5752,-3.5688,-3.5671,-3.5554,-3.5504,-3.5504,0.0,0.0,-4.9001,-4.9001,-4.9001,-4.9001,-4.9001,-4.9001,-4.9001,-4.9001,-4.9001,-4.9001,-4.9001,-4.9001,-4.9001,-4.9001,-4.9001,-4.9001,-4.9001,-4.9001,-4.9001,-4.9001,-4.9001,-4.9001,-4.9001,-4.9001,-4.8909,-4.8818,-4.8738,-4.8658,-4.8515,-4.8515,-4.8097,-4.7338,-4.6397,-4.5541,-4.4737,-4.3786,-4.3384,-4.329,-4.329,-4.303,-4.262,-4.2455,-4.2096,-4.1572,-4.0876,-4.0531,-4.0322,-3.9828,-3.9508,-3.9388,-3.9388,-3.9388,-3.9388,-3.9388,-3.9388,-3.9388,-3.9388,-3.9388,-3.9388,-3.9388,-3.9388,-3.9388,-3.9388,-3.9388,-3.9388,-3.9388,-3.9388,-3.9388,-3.9388,-3.9388,-3.9388,-3.9388,-3.9388,-3.9388,-3.9388,-3.9388,-3.923,0.0,-3.7898,-3.7225,-3.6746,-3.5983,-3.5504,0.0,0.0,0.0,0.0,-3.5504,-3.5504,-3.5504,-3.5504,-3.5572,-3.5688,-3.5894,-3.6132,-3.6414,-3.6492,-3.6492,-3.6492,-3.6492,-3.6414,-3.6274,-3.6274,-3.6179,-3.6068,-3.6068,-3.5926,-3.5752,-3.572,-3.5653,-3.5554,-3.5504,-3.5504,-3.5504,-4.9001,-4.9001,-4.9001,-4.9001,-4.9001,-4.9001,-4.9001,-4.9001,-4.9001,-4.9001,-4.9001,-4.9001,-4.9001,-4.9001,-4.9001,-4.9001,-4.9001,-4.9001,-4.9001,-4.9001,-4.9001,-4.9001,-4.9001,-4.9001,-4.9001,-4.9001,-4.897,-4.8894,-4.8894,-4.8832,-4.8704,-4.829,-4.7869,-4.7422,-4.6115,-4.5264,-4.4737,-4.3864,-4.3244,-4.2895,-4.2895,-4.2506,-4.1916,-4.1617,-4.125,-4.0846,-4.0187,-3.9948,-3.9903,-3.9508,-3.9388,-3.9388,-3.9388,-3.9388,-3.9388,-3.9388,-3.9388,-3.9388,-3.9388,-3.9388,-3.9388,-3.9388,-3.9388,-3.9388,-3.9388,-3.9388,-3.9388,-3.9388,-3.9388,-3.9388,-3.9388,-3.9388,-3.9388,-3.9388,-3.9388,-3.9388,-3.9388,-3.9388,-3.917,-3.8467,-3.7808,-3.7165,-3.6552,-3.5893,-3.5504,-3.5504,-3.5504,0.0,-3.5504,-3.5504,-3.5504,-3.5504,-3.5504,-3.5522,-3.5621,-3.5878,-3.6163,-3.6492,-3.6492,-3.6492,-3.6492,-3.6383,-3.6305,-3.6211,-3.6148,-3.6022,-3.5863,-3.5863,-3.5767,-3.5621,-3.5621,-3.5572,-3.5504,-3.5504,-3.5504,-3.5504,-4.9001,-4.9001,-4.9001,-4.9001,-4.9001,-4.9001,-4.9001,-4.9001,-4.9001,-4.9001,-4.9001,-4.9001,-4.9001,-4.9001,-4.9001,-4.9001,-4.9001,-4.9001,-4.9001,-4.9001,-4.9001,-4.9001,-4.9001,-4.9001,-4.9001,-4.9001,-4.9001,-4.9001,-4.9001,-4.9001,-4.897,-4.8193,-4.7704,-4.7423,-4.6028,-4.5169,-4.4624,-4.3967,-4.3193,-4.2396,-4.2291,-4.1856,-4.1175,-4.0606,-4.0337,-4.0172,-3.9619,-3.9388,-3.9388,-3.9388,-3.9388,-3.9388,-3.9388,-3.9388,-3.9388,-3.9388,-3.9388,-3.9388,-3.9388,-3.9388,-3.9388,-3.9388,-3.9388,-3.9388,-3.9388,-3.9388,-3.9388,-3.9388,-3.9388,-3.9388,-3.9388,-3.9388,-3.9388,-3.9388,-3.9388,-3.9388,-3.9388,0.0,-3.9125,-3.8332,-3.7749,-3.712,-3.6417,-3.5833,-3.5504,-3.5504,-3.5504,-3.5504,-3.5504,-3.5504,-3.5504,-3.5504,-3.5504,-3.5504,-3.5522,-3.5861,-3.6163,-3.646,-3.6492,-3.6492,-3.6492,-3.6274,-3.6179,-3.6148,-3.6037,-3.5846,-3.5671,-3.5671,-3.5589,-3.5504,-3.5504,-3.5504,-3.5504,-3.5504,-3.5504,-3.5504,-4.9001,-4.9001,-4.9001,-4.9001,-4.9001,-4.9001,-4.9001,-4.9001,-4.9001,-4.9001,-4.9001,-4.9001,-4.9001,-4.9001,-4.9001,-4.9001,-4.9001,-4.9001,-4.9001,-4.9001,-4.9001,-4.9001,-4.9001,-4.9001,-4.9001,-4.9001,-4.9001,-4.9001,-4.9001,-4.9001,-4.9001,-4.8861,-4.8113,-4.6949,-4.6934,-4.5885,-4.4082,-4.37,-4.3107,-4.2351,-4.1796,-4.113,-4.0546,-4.0442,-4.0053,-3.9559,-3.9454,-3.9388,-3.9388,-3.9388,-3.9388,-3.9388,-3.9388,-3.9388,-3.9388,-3.9388,-3.9388,-3.9388,-3.9388,-3.9388,-3.9388,-3.9388,-3.9388,-3.9388,-3.9388,-3.9388,-3.9388,-3.9388,-3.9388,-3.9388,-3.9388,-3.9388,-3.9388,-3.9388,-3.9388,-3.9388,-3.9388,0.0,-3.896,-3.7704,-3.7464,-3.6941,-3.5774,-3.5564,-3.5504,-3.5504,-3.5504,-3.5504,-3.5504,-3.5504,-3.5504,-3.5504,-3.5504,-3.5539,-3.5671,-3.591,-3.6085,-3.6242,-3.6414,-3.6492,-3.6492,-3.6274,-3.6148,-3.6037,-3.5831,-3.5653,-3.5522,-3.5522,-3.5537,-3.5504,-3.5504,-3.5504,-3.5504,-3.5504,-3.5504,-3.5504,-4.9001,-4.9001,-4.9001,-4.9001,-4.9001,-4.9001,-4.9001,-4.9001,-4.9001,-4.9001,-4.9001,-4.9001,-4.9001,-4.9001,-4.9001,-4.9001,-4.9001,-4.9001,-4.9001,-4.9001,-4.9001,-4.9001,-4.9001,-4.9001,-4.9001,-4.9001,-4.9001,-4.9001,-4.9001,-4.9001,-4.9001,-4.8465,-4.7885,-4.7204,-4.6763,-4.5572,-4.3881,-4.3596,-4.2665,-4.128,-4.098,-4.0457,-3.9873,-3.9873,-3.9694,-3.9388,-3.9388,-3.9388,-3.9388,-3.9388,-3.9388,-3.9388,-3.9388,-3.9388,-3.9388,-3.9388,-3.9388,-3.9388,-3.9388,-3.9388,-3.9388,-3.9388,-3.9388,-3.9388,-3.9388,-3.9388,-3.9388,-3.9388,-3.9388,-3.9388,-3.9388,-3.9388,-3.9388,-3.9388,-3.9388,0.0,0.0,-3.9095,-3.8497,-3.7524,-3.7105,-3.6537,-3.5594,-3.5504,-3.5504,-3.5504,-3.5504,-3.5504,-3.5504,-3.5504,-3.5504,-3.5504,-3.5504,-3.5572,-3.5688,-3.5894,-3.6068,-3.6196,-3.6274,-3.6352,-3.6352,-3.6053,-3.5879,-3.5831,-3.5653,-3.5554,-3.5504,-3.5504,-3.5504,-3.5504,-3.5504,-3.5504,-3.5504,-3.5504,-3.5504,-3.5504,-4.9001,-4.9001,-4.9001,-4.9001,-4.9001,-4.9001,-4.9001,-4.9001,-4.9001,-4.9001,-4.9001,-4.9001,-4.9001,-4.9001,-4.9001,-4.9001,-4.9001,-4.9001,-4.9001,-4.9001,-4.9001,-4.9001,-4.9001,-4.9001,-4.9001,-4.9001,-4.9001,-4.9001,-4.9001,-4.9001,-4.897,-4.8257,-4.7836,-4.7622,-4.6669,-4.5451,-4.4075,-4.3686,-4.2432,-4.0609,-4.0474,-4.0004,-3.9388,-3.9388,-3.9388,-3.9388,-3.9388,-3.9388,-3.9388,-3.9388,-3.9388,-3.9388,-3.9388,-3.9388,-3.9388,-3.9388,-3.9388,-3.9388,-3.9388,-3.9388,-3.9388,-3.9388,-3.9388,-3.9388,-3.9388,-3.9388,-3.9388,-3.9388,-3.9388,-3.9388,-3.9388,-3.9388,-3.9388,-3.9388,0.0,0.0,0.0,-3.8721,-3.8093,-3.7285,-3.6776,-3.6237,-3.5564,-3.5504,-3.5504,-3.5504,-3.5504,-3.5504,-3.5504,-3.5504,-3.5504,-3.5504,-3.5504,-3.5554,-3.5638,-3.5846,-3.599,-3.607,-3.6148,-3.6148,-3.6148,-3.5847,-3.5688,-3.5688,-3.5554,-3.5504,-3.5504,-3.5504,-3.5504,-3.5504,-3.5504,-3.5504,-3.5504,-3.5504,-3.5504,-3.5504,-4.9001,-4.9001,-4.9001,-4.9001,-4.9001,-4.9001,-4.9001,-4.9001,-4.9001,-4.9001,-4.9001,-4.9001,-4.9001,-4.9001,-4.9001,-4.9001,-4.9001,-4.9001,-4.9001,-4.9001,-4.9001,-4.9001,-4.9001,-4.9001,-4.9001,-4.9001,-4.9001,-4.9001,-4.9001,-4.9001,-4.9001,-4.894,-4.8513,-4.7852,-4.7463,-4.6438,-4.4931,-4.4054,-4.2782,-4.128,-4.0731,-4.0051,-3.9388,-3.9388,-3.9388,-3.9388,-3.9388,-3.9388,-3.9388,-3.9388,-3.9388,-3.9388,-3.9388,-3.9388,-3.9388,-3.9388,-3.9388,-3.9388,-3.9388,-3.9388,-3.9388,-3.9388,-3.9388,-3.9388,-3.9388,-3.9388,-3.9388,-3.9388,-3.9388,-3.9388,-3.9388,-3.9388,-3.9388,-3.9388,0.0,0.0,-3.8556,-3.8422,-3.7928,-3.6701,-3.6507,-3.6237,-3.5564,-3.5504,-3.5504,-3.5504,-3.5504,-3.5504,-3.5504,-3.5504,-3.5504,-3.5504,-3.5504,-3.5504,-3.5504,-3.5638,-3.572,-3.5752,-3.5941,-3.6005,-3.6005,-3.5799,-3.5688,-3.5688,-3.5554,-3.5504,-3.5504,-3.5504,-3.5504,-3.5504,-3.5504,-3.5504,-3.5504,-3.5504,-3.5504,-3.5504,-4.9001,-4.9001,-4.9001,-4.9001,-4.9001,-4.9001,-4.9001,-4.9001,-4.9001,-4.9001,-4.9001,-4.9001,-4.9001,-4.9001,-4.9001,-4.9001,-4.9001,-4.9001,-4.9001,-4.9001,-4.9001,-4.9001,-4.9001,-4.9001,-4.9001,-4.9001,-4.9001,-4.9001,-4.9001,-4.9001,-4.9001,-4.9001,-4.8624,-4.7874,-4.7637,-4.6374,-4.4448,-4.4009,-4.2665,-4.0816,-4.057,-4.0056,-3.9388,-3.9388,-3.9388,-3.9388,-3.9388,-3.9388,-3.9388,-3.9388,-3.9388,-3.9388,-3.9388,-3.9388,-3.9388,-3.9388,-3.9388,-3.9388,-3.9388,-3.9388,-3.9388,-3.9388,-3.9388,-3.9388,-3.9388,-3.9388,-3.9388,-3.9388,-3.9388,-3.9388,-3.9388,-3.9388,-3.9239,-3.8856,0.0,-3.8556,-3.7868,-3.7449,-3.703,-3.6552,-3.6133,-3.5774,-3.5534,-3.5504,-3.5504,-3.5504,-3.5504,-3.5504,-3.5504,-3.5504,-3.5504,-3.5504,-3.5504,-3.5504,-3.5504,-3.5638,-3.5688,-3.5688,-3.5784,-3.5831,-3.5831,-3.5653,-3.5572,-3.5572,-3.5537,-3.5504,-3.5504,-3.5504,-3.5504,-3.5504,-3.5504,-3.5504,-3.5504,-3.5504,-3.5504,-3.5504,-4.9001,-4.9001,-4.9001,-4.9001,-4.9001,-4.9001,-4.9001,-4.9001,-4.9001,-4.9001,-4.9001,-4.9001,-4.9001,-4.9001,-4.9001,-4.9001,-4.9001,-4.9001,-4.9001,-4.9001,-4.9001,-4.9001,-4.9001,-4.9001,-4.9001,-4.9001,-4.9001,-4.9001,-4.9001,-4.8883,-4.8663,-4.8663,-4.8274,-4.7534,-4.7113,-4.6029,-4.445,-4.3883,-4.2575,-4.0857,-4.0634,-4.0091,-3.9424,-3.9646,-3.9753,-3.9788,-3.9985,-4.0041,-4.0041,-3.9824,-3.9753,-3.9717,-3.9481,-3.9388,-3.9388,-3.9388,-3.9388,-3.9388,-3.9388,-3.9388,-3.9388,-3.9388,-3.9388,-3.9388,-3.9388,-3.9388,-3.9388,-3.9388,-3.9388,-3.9349,-3.9125,-3.9095,-3.8871,-3.8182,-3.8078,-3.7853,-3.721,-3.6746,-3.6417,-3.6207,-3.5774,-3.5504,-3.5504,-3.5504,-3.5504,-3.5504,-3.5504,-3.5504,-3.5504,-3.5504,-3.5504,-3.5504,-3.5504,-3.5504,-3.5504,-3.5604,-3.5653,-3.5653,-3.5653,-3.5653,-3.5638,-3.5554,-3.5504,-3.5504,-3.5504,-3.5504,-3.5504,-3.5504,-3.5504,-3.5504,-3.5504,-3.5504,-3.5504,-3.5504,-3.5504,-3.5504,-4.9001,-4.9001,-4.9001,-4.9001,-4.9001,-4.9001,-4.9001,-4.9001,-4.9001,-4.9001,-4.9001,-4.9001,-4.9001,-4.9001,-4.9001,-4.9001,-4.9001,-4.9001,-4.9001,-4.9001,-4.9001,-4.9001,-4.9001,-4.9001,-4.9001,-4.9001,-4.9001,-4.9001,-4.9001,-4.8612,-4.7872,-4.7872,-4.7513,-4.6752,-4.5816,-4.5404,-4.529,-4.3756,-4.2584,-4.1658,-4.0977,-4.02,-3.9481,-4.0216,-4.0512,-4.0581,-4.126,-4.1492,-4.1393,-4.0703,-4.0512,-4.0374,-3.9646,-3.9424,-3.9424,-3.9424,-3.9424,-3.9424,-3.9388,-3.9388,-3.9388,-3.9388,-3.9388,-3.9388,-3.9388,-3.9388,-3.9388,-3.9388,-3.9388,-3.92,-3.8512,-3.8392,-3.8167,-3.7509,-3.7404,-3.718,-3.6567,-3.6477,-3.6237,-3.5579,-3.5504,-3.5504,-3.5504,-3.5504,-3.5504,-3.5504,-3.5504,-3.5504,-3.5504,-3.5504,-3.5504,-3.5504,-3.5504,-3.5504,-3.5504,-3.5504,-3.5504,-3.5504,-3.5504,-3.5504,-3.5504,-3.5504,-3.5504,-3.5504,-3.5504,-3.5504,-3.5504,-3.5504,-3.5504,-3.5504,-3.5504,-3.5504,-3.5504,-3.5504,-3.5504,-3.5504,-4.9001,-4.9001,-4.9001,-4.9001,-4.9001,-4.9001,-4.9001,-4.9001,-4.9001,-4.9001,-4.9001,-4.9001,-4.9001,-4.9001,-4.9001,-4.9001,-4.9001,-4.9001,-4.9001,-4.9001,-4.8781,-4.8257,-4.8731,-4.9001,-4.9001,-4.9001,-4.8748,-4.824,-4.824,-4.7868,-4.7124,-4.7124,-4.6735,-4.6024,-4.5747,-4.5238,-4.4613,-4.4135,-4.3439,-4.2582,-4.2284,-4.1707,-4.1028,-4.1145,-4.1194,-4.1227,-4.1426,-4.1194,-4.0771,-4.0581,-4.0512,-4.0547,-4.0805,-4.0873,-4.0771,-4.0305,-4.0181,-4.0056,-3.9553,-3.9517,-3.9589,-3.946,-3.9388,-3.9388,-3.9388,-3.9388,-3.9388,-3.9388,-3.9035,-3.8631,-3.8422,-3.8018,-3.7494,-3.6866,-3.6761,-3.6537,-3.5893,-3.5804,-3.5729,-3.5534,-3.5504,-3.5504,-3.5504,-3.5504,-3.5504,-3.5504,-3.5504,-3.5504,-3.5504,-3.5504,-3.5504,-3.5504,-3.5504,-3.5504,-3.5504,-3.5504,-3.5504,-3.5504,-3.5504,-3.5504,-3.5504,-3.5504,-3.5504,-3.5504,-3.5504,-3.5504,-3.5504,-3.5504,-3.5504,-3.5504,-3.5504,-3.5504,-3.5504,-3.5504,-3.5504,-3.5504,-4.9001,-4.9001,-4.9001,-4.9001,-4.9001,-4.9001,-4.9001,-4.9001,-4.9001,-4.9001,-4.9001,-4.9001,-4.9001,-4.9001,-4.9001,-4.9001,-4.8731,-4.8443,-4.8156,-4.8139,-4.7936,-4.7479,-4.7902,-4.8139,-4.8139,-4.8139,-4.7919,-4.7462,-4.7462,-4.709,-4.6363,-4.6363,-4.5974,-4.5263,-4.5263,-4.4936,-4.4412,-4.4105,-4.3647,-4.3075,-4.2645,-4.2157,-4.1739,-4.1884,-4.1933,-4.1981,-4.2317,-4.2158,-4.1689,-4.1477,-4.1194,-4.0974,-4.136,-4.1492,-4.136,-4.0703,-4.0547,-4.0409,-3.9717,-3.9661,-3.9768,-3.9676,-3.9604,-3.9517,-3.9517,-3.9445,-3.9298,-3.9065,-3.8676,-3.8242,-3.7734,-3.7315,-3.6836,-3.6207,-3.6088,-3.5953,-3.5564,-3.5504,-3.5504,-3.5504,-3.5504,-3.5504,-3.5504,-3.5504,-3.5504,-3.5504,-3.5504,-3.5504,-3.5504,-3.5504,-3.5504,-3.5504,-3.5504,-3.5504,-3.5504,-3.5504,-3.5504,-3.5504,-3.5504,-3.5504,-3.5504,-3.5504,-3.5504,-3.5504,-3.5504,-3.5504,-3.5504,-3.5504,-3.5504,-3.5504,-3.5504,-3.5504,-3.5504,-3.5504,-3.5504,-3.5504,-4.8798,-4.8798,-4.8798,-4.8798,-4.8798,-4.8798,-4.8798,-4.8798,-4.8798,-4.8798,-4.8798,-4.8798,-4.8798,-4.8798,-4.8798,-4.8798,-4.8206,-4.753,-4.6836,-4.6786,-4.6752,-4.6701,-4.6701,-4.6667,-4.6583,-4.6718,-4.6752,-4.6701,-4.6701,-4.6312,-4.5602,-4.5602,-4.5229,-4.4615,-4.4615,-4.4615,-4.4542,-4.3869,-4.3529,-4.3336,-4.252,-4.2093,-4.1965,-4.2522,-4.2741,-4.2834,-4.3628,-4.3763,-4.3446,-4.2956,-4.2253,-4.1624,-4.1706,-4.1689,-4.1492,-4.0907,-4.0771,-4.0703,-4.0076,-4.0071,-4.0191,-4.0191,-4.0025,-3.9788,-3.9626,-3.9463,-3.9125,-3.8437,-3.8257,-3.7868,-3.6701,-3.6432,-3.6207,-3.5609,-3.5504,-3.5504,-3.5504,-3.5504,-3.5504,-3.5504,-3.5504,-3.5504,-3.5537,-3.5537,-3.5537,-3.5537,-3.5504,-3.5504,-3.5504,-3.5504,-3.5504,-3.5504,-3.5504,-3.5504,-3.5504,-3.5504,-3.5504,-3.5504,-3.5504,-3.5504,-3.5504,-3.5504,-3.5504,-3.5504,-3.5504,-3.5504,-3.5504,-3.5504,-3.5504,-3.5504,-3.5504,-3.5504,-3.5504,-3.5504,-3.5537,-3.5587,-4.7276,-4.7276,-4.7276,-4.7276,-4.7276,-4.7276,-4.7276,-4.7276,-4.7276,-4.7276,-4.7276,-4.7276,-4.7276,-4.7276,-4.7276,-4.7276,-4.7124,-4.6972,-4.6802,-4.6786,-4.6532,-4.5957,-4.594,-4.5669,-4.5106,-4.6194,-4.6515,-4.594,-4.594,-4.5551,-4.4852,-4.4852,-4.4767,-4.4615,-4.4615,-4.4615,-4.4598,-4.444,-4.4236,-4.4064,-4.3885,-4.371,-4.3608,-4.3713,-4.3789,-4.3789,-4.3981,-4.3578,-4.2972,-4.2847,-4.2615,-4.2506,-4.3309,-4.3096,-4.257,-4.2489,-4.2125,-4.169,-4.1543,-4.1657,-4.1804,-4.1804,-4.1294,-4.0478,-3.9195,-3.8757,-3.8422,-3.7764,-3.724,-3.6821,-3.6537,-3.6073,-3.5669,-3.5534,-3.5504,-3.5504,-3.5504,-3.5504,-3.5504,-3.5504,-3.5504,-3.5554,-3.5638,-3.5671,-3.5671,-3.5671,-3.5554,-3.5504,-3.5504,-3.5504,-3.5504,-3.5504,-3.5504,-3.5504,-3.5504,-3.5504,-3.5504,-3.5504,-3.5504,-3.5504,-3.5504,-3.5504,-3.5504,-3.5504,-3.5504,-3.5504,-3.5504,-3.5504,-3.5504,-3.5504,-3.5504,-3.5504,-3.5504,-3.5504,-3.5797,-3.6337,-4.6786,-4.6786,-4.6786,-4.6786,-4.6786,-4.6786,-4.6786,-4.6786,-4.6786,-4.6786,-4.6786,-4.6786,-4.6786,-4.6786,-4.665,-4.6312,-4.6278,-4.6126,-4.5783,-4.5766,-4.5568,-4.5179,-4.5179,-4.4976,-4.4615,-4.5376,-4.5551,-4.5179,-4.5179,-4.4976,-4.4615,-4.4615,-4.4615,-4.4615,-4.4615,-4.4615,-4.4615,-4.4615,-4.4542,-4.444,-4.4338,-4.4253,-4.4196,-4.4126,-4.4056,-4.4027,-4.4155,-4.3902,-4.3515,-4.3443,-4.3383,-4.3416,-4.3935,-4.3805,-4.3416,-4.3075,-4.2814,-4.2552,-4.2237,-4.2269,-4.2314,-4.196,-4.1464,-4.0894,-4.003,-3.9188,-3.8421,-3.7765,-3.7152,-3.6652,-3.6321,-3.5909,-3.5604,-3.5604,-3.5554,-3.5504,-3.5504,-3.5504,-3.5504,-3.5504,-3.5504,-3.5522,-3.5589,-3.5589,-3.5589,-3.5589,-3.5554,-3.5504,-3.5504,-3.5504,-3.5504,-3.5504,-3.5554,-3.5604,-3.5604,-3.5604,-3.5604,-3.5589,-3.5522,-3.5504,-3.5504,-3.5504,-3.5504,-3.5504,-3.5504,-3.5504,-3.5504,-3.5504,-3.5504,-3.5504,-3.5504,-3.5504,-3.5537,-3.5814,-3.6321,-3.692,-4.6413,-4.6413,-4.6413,-4.6413,-4.6413,-4.6413,-4.6413,-4.6413,-4.6413,-4.6413,-4.6413,-4.6413,-4.6413,-4.6413,-4.6177,-4.5568,-4.5517,-4.5246,-4.4649,-4.4615,-4.4615,-4.4615,-4.4615,-4.4615,-4.4615,-4.4615,-4.4615,-4.4615,-4.4615,-4.4615,-4.4615,-4.4615,-4.4615,-4.4615,-4.4615,-4.4615,-4.4615,-4.4615,-4.457,-4.4542,-4.4395,-4.4338,-4.431,-4.4212,-4.4114,-4.4044,-4.427,-4.4338,-4.4265,-4.4184,-4.4126,-4.4097,-4.4155,-4.4097,-4.386,-4.3393,-4.3303,-4.3229,-4.2816,-4.2671,-4.2505,-4.1887,-4.1365,-4.1003,-4.1093,-3.9832,-3.8464,-3.7842,-3.726,-3.6656,-3.6111,-3.5863,-3.5752,-3.5752,-3.5668,-3.5602,-3.5602,-3.5602,-3.5602,-3.5602,-3.5587,-3.5619,-3.5602,-3.5587,-3.5619,-3.5619,-3.5587,-3.5602,-3.5602,-3.5602,-3.5602,-3.5602,-3.5671,-3.5752,-3.5752,-3.5832,-3.5896,-3.5864,-3.575,-3.5619,-3.5504,-3.5504,-3.5504,-3.5504,-3.5504,-3.5504,-3.5504,-3.5504,-3.5504,-3.5504,-3.5504,-3.5504,-3.5587,-3.6321,-3.6981,-3.7488,-4.4902,-4.4902,-4.4902,-4.4902,-4.4902,-4.4902,-4.4902,-4.4902,-4.4902,-4.4902,-4.4902,-4.4902,-4.4902,-4.4902,-4.4869,-4.4767,-4.475,-4.4716,-4.4615,-4.4615,-4.4615,-4.4615,-4.4615,-4.4615,-4.4615,-4.4615,-4.4615,-4.4615,-4.4615,-4.4615,-4.4615,-4.4615,-4.4615,-4.4615,-4.4615,-4.4615,-4.4615,-4.4615,-4.4497,-4.4338,-4.4497,-4.4468,-4.431,-4.4468,-4.4514,-4.4514,-4.4542,-4.444,-4.431,-4.4281,-4.4212,-4.4155,-4.4429,-4.4006,-4.3532,-4.4179,-4.3943,-4.3588,-4.415,-4.3794,-4.3255,-4.3144,-4.1761,-4.0547,-4.106,-3.9525,-3.7826,-3.7171,-3.6553,-3.6127,-3.6035,-3.5973,-3.5973,-3.5973,-3.5941,-3.5941,-3.5941,-3.5941,-3.5941,-3.5941,-3.6022,-3.6053,-3.5941,-3.6037,-3.6116,-3.6116,-3.6005,-3.5941,-3.5941,-3.5941,-3.5941,-3.5941,-3.5941,-3.5973,-3.5973,-3.6492,-3.6692,-3.6554,-3.6492,-3.6117,-3.5504,-3.5504,-3.5504,-3.5504,-3.5504,-3.5504,-3.5504,-3.5504,-3.5504,-3.5504,-3.5504,-3.5504,-3.5651,-3.6845,-3.7648,-3.8266,-4.4615,-4.4615,-4.4615,-4.4615,-4.4615,-4.4615,-4.4615,-4.4615,-4.4615,-4.4615,-4.4615,-4.4615,-4.4615,-4.4615,-4.4615,-4.4615,-4.4615,-4.4615,-4.4615,-4.4615,-4.4615,-4.4615,-4.4615,-4.4615,-4.4615,-4.4615,-4.4615,-4.4615,-4.4615,-4.4615,-4.4615,-4.4615,-4.4615,-4.4615,-4.4615,-4.4615,-4.4615,-4.4615,-4.4542,-4.4485,-4.457,-4.4542,-4.4468,-4.457,-4.4542,-4.444,-4.444,-4.444,-4.4468,-4.4468,-4.4429,-4.44,-4.4542,-4.4327,-4.4093,-4.4485,-4.4367,-4.4078,-4.3945,-4.3673,-4.3189,-4.2361,-4.1476,-4.0764,-4.0611,-3.9571,-3.8536,-3.8258,-3.7429,-3.6784,-3.6784,-3.6414,-3.6116,-3.6116,-3.6068,-3.6005,-3.6005,-3.6005,-3.6005,-3.6005,-3.6352,-3.6445,-3.6037,-3.6662,-3.6799,-3.6148,-3.6352,-3.6352,-3.6037,-3.6005,-3.6005,-3.6005,-3.6321,-3.6492,-3.6492,-3.7041,-3.7251,-3.7191,-3.7086,-3.6677,-3.599,-3.5651,-3.5504,-3.5504,-3.5504,-3.5668,-3.6022,-3.6086,-3.6305,-3.6585,-3.6631,-3.6845,-3.7101,-3.731,-3.801,-3.8843]},{"header":{"parameterUnit":"m.s-1","parameterCategory":1,"la1":30.6,"la2":28.766,"lo1":-90.7593,"lo2":-88.6598,"dy":0.0162,"dx":0.0183,"nx":116,"ny":114,"refTime":"2023-08-05T06:00:00:Z","depth":0,"parameterNumber":3,"parameterNumberName":"V-component_of_WINDS"},"data":[0.0,0.0,0.0,0.0,0.0,0.0,0.0,0.0,0.0,0.0,0.0,0.0,0.0,0.0,0.0,0.0,0.0,0.0,0.0,0.0,0.0,0.0,0.0,0.0,0.0,0.0,0.0,0.0,0.0,0.0,0.0,0.0,0.0,0.0,0.0,0.0,0.0,0.0,0.0,0.0,0.0,0.0,0.0,0.0,0.0,0.0,0.0,0.0,0.0,0.0,0.0,0.0,0.0,0.0,0.0,0.0,0.0,0.0,0.0,0.0,0.0,0.0,0.0,0.0,0.0,0.0,0.0,0.0,0.0,0.0,0.0,0.0,0.0,0.0,0.0,0.0,0.0,0.0,0.0,0.0,0.0,0.0,0.0,0.0,0.0,0.0,0.0,0.0,0.0,0.0,0.0,0.0,0.0,0.0,0.0,0.0,0.0,0.0,0.0,0.0,0.0,0.0,0.0,0.0,0.0,0.0,0.0,0.0,0.0,0.0,0.0,0.0,0.0,0.0,0.0,0.0,0.0,0.0,0.0,0.0,0.0,0.0,0.0,0.0,0.0,0.0,0.0,0.0,0.0,0.0,0.0,0.0,0.0,0.0,0.0,0.0,0.0,0.0,0.0,0.0,0.0,0.0,0.0,0.0,0.0,0.0,0.0,0.0,0.0,0.0,0.0,0.0,0.0,0.0,0.0,0.0,0.0,0.0,0.0,0.0,0.0,0.0,0.0,0.0,0.0,0.0,0.0,0.0,0.0,0.0,0.0,0.0,0.0,0.0,0.0,0.0,0.0,0.0,0.0,0.0,0.0,0.0,0.0,0.0,0.0,0.0,0.0,0.0,0.0,0.0,0.0,0.0,0.0,0.0,0.0,0.0,0.0,0.0,0.0,0.0,0.0,0.0,0.0,0.0,0.0,0.0,0.0,0.0,0.0,0.0,0.0,0.0,0.0,0.0,0.0,0.0,0.0,0.0,0.0,0.0,0.0,0.0,0.0,0.0,0.0,0.0,0.0,0.0,0.0,0.0,0.0,0.0,0.0,0.0,0.0,0.0,0.0,0.0,0.0,0.0,0.0,0.0,0.0,0.0,0.0,0.0,0.0,0.0,0.0,0.0,0.0,0.0,0.0,0.0,0.0,0.0,0.0,0.0,0.0,0.0,0.0,0.0,0.0,0.0,0.0,0.0,0.0,0.0,0.0,0.0,0.0,0.0,0.0,0.0,0.0,0.0,0.0,0.0,0.0,0.0,0.0,0.0,0.0,0.0,0.0,0.0,0.0,0.0,0.0,0.0,0.0,0.0,0.0,0.0,0.0,0.0,0.0,0.0,0.0,0.0,0.0,0.0,0.0,0.0,0.0,0.0,0.0,0.0,0.0,0.0,0.0,0.0,0.0,0.0,0.0,0.0,0.0,0.0,0.0,0.0,0.0,0.0,0.0,0.0,0.0,0.0,0.0,0.0,0.0,0.0,0.0,0.0,0.0,0.0,0.0,0.0,0.0,0.0,0.0,0.0,0.0,0.0,0.0,0.0,0.0,0.0,0.0,0.0,0.0,0.0,0.0,0.0,0.0,0.0,0.0,0.0,0.0,0.0,0.0,0.0,0.0,0.0,0.0,0.0,0.0,0.0,0.0,0.0,0.0,0.0,0.0,0.0,0.0,0.0,0.0,0.0,0.0,0.0,0.0,0.0,0.0,0.0,0.0,0.0,0.0,0.0,0.0,0.0,0.0,0.0,0.0,0.0,0.0,0.0,0.0,0.0,0.0,0.0,0.0,0.0,0.0,0.0,0.0,0.0,0.0,0.0,0.0,0.0,0.0,0.0,0.0,0.0,0.0,0.0,0.0,0.0,0.0,0.0,0.0,0.0,0.0,0.0,0.0,0.0,0.0,0.0,0.0,0.0,0.0,0.0,0.0,0.0,0.0,0.0,0.0,0.0,0.0,0.0,0.0,0.0,0.0,0.0,0.0,0.0,0.0,0.0,0.0,0.0,0.0,0.0,0.0,0.0,0.0,0.0,0.0,0.0,0.0,0.0,0.0,0.0,0.0,0.0,0.0,0.0,0.0,0.0,0.0,0.0,0.0,0.0,0.0,0.0,0.0,0.0,0.0,0.0,0.0,0.0,0.0,0.0,0.0,0.0,0.0,0.0,0.0,0.0,0.0,0.0,0.0,0.0,0.0,0.0,0.0,0.0,0.0,0.0,0.0,0.0,0.0,0.0,0.0,0.0,0.0,0.0,0.0,0.0,0.0,0.0,0.0,0.0,0.0,0.0,0.0,0.0,0.0,0.0,0.0,0.0,0.0,0.0,0.0,0.0,0.0,0.0,0.0,0.0,0.0,0.0,0.0,0.0,0.0,0.0,0.0,0.0,0.0,0.0,0.0,0.0,0.0,0.0,0.0,0.0,0.0,0.0,0.0,0.0,0.0,0.0,0.0,0.0,0.0,0.0,0.0,0.0,0.0,0.0,0.0,0.0,0.0,0.0,0.0,0.0,0.0,0.0,0.0,0.0,0.0,0.0,0.0,0.0,0.0,0.0,0.0,0.0,0.0,0.0,0.0,0.0,0.0,0.0,0.0,0.0,0.0,0.0,0.0,0.0,0.0,0.0,0.0,0.0,0.0,0.0,0.0,0.0,0.0,0.0,0.0,0.0,0.0,0.0,0.0,0.0,0.0,0.0,0.0,0.0,0.0,0.0,0.0,0.0,0.0,0.0,0.0,0.0,0.0,0.0,0.0,0.0,0.0,0.0,0.0,0.0,0.0,0.0,0.0,0.0,0.0,0.0,0.0,0.0,0.0,0.0,0.0,0.0,0.0,0.0,0.0,0.0,0.0,0.0,0.0,0.0,0.0,0.0,0.0,0.0,0.0,0.0,0.0,0.0,0.0,0.0,0.0,0.0,0.0,0.0,0.0,0.0,0.0,0.0,0.0,0.0,0.0,0.0,0.0,0.0,0.0,0.0,0.0,0.0,0.0,0.0,0.0,0.0,0.0,0.0,0.0,0.0,0.0,0.0,0.0,0.0,0.0,0.0,0.0,0.0,0.0,0.0,0.0,0.0,0.0,0.0,0.0,0.0,0.0,0.0,0.0,0.0,0.0,0.0,0.0,0.0,0.0,0.0,0.0,0.0,0.0,0.0,0.0,0.0,0.0,0.0,0.0,0.0,0.0,0.0,0.0,0.0,0.0,0.0,0.0,0.0,0.0,0.0,0.0,0.0,0.0,0.0,0.0,0.0,0.0,0.0,0.0,0.0,0.0,0.0,0.0,0.0,0.0,0.0,0.0,0.0,0.0,0.0,0.0,0.0,0.0,0.0,0.0,0.0,0.0,0.0,0.0,0.0,0.0,0.0,0.0,0.0,0.0,0.0,0.0,0.0,0.0,0.0,0.0,0.0,0.0,0.0,0.0,0.0,0.0,0.0,0.0,0.0,0.0,0.0,0.0,0.0,0.0,0.0,0.0,0.0,0.0,0.0,0.0,0.0,0.0,0.0,0.0,0.0,0.0,0.0,0.0,0.0,0.0,0.0,0.0,0.0,0.0,0.0,0.0,0.0,0.0,0.0,0.0,0.0,0.0,0.0,0.0,0.0,0.0,0.0,0.0,0.0,0.0,0.0,0.0,0.0,0.0,0.0,0.0,0.0,0.0,0.0,0.0,0.0,0.0,0.0,0.0,0.0,0.0,0.0,0.0,0.0,0.0,0.0,0.0,0.0,0.0,0.0,0.0,0.0,0.0,0.0,0.0,0.0,0.0,0.0,0.0,0.0,0.0,0.0,0.0,0.0,0.0,0.0,0.0,0.0,0.0,0.0,0.0,0.0,0.0,0.0,0.0,0.0,0.0,0.0,0.0,0.0,0.0,0.0,0.0,0.0,0.0,0.0,0.0,0.0,0.0,0.0,0.0,0.0,0.0,0.0,0.0,0.0,0.0,0.0,0.0,0.0,0.0,0.0,0.0,0.0,0.0,0.0,0.0,0.0,0.0,0.0,0.0,0.0,0.0,0.0,0.0,0.0,0.0,0.0,0.0,0.0,0.0,0.0,0.0,0.0,0.0,0.0,0.0,0.0,0.0,0.0,0.0,0.0,0.0,0.0,0.0,0.0,0.0,0.0,0.0,0.0,0.0,0.0,0.0,0.0,0.0,0.0,0.0,0.0,0.0,0.0,0.0,0.0,0.0,0.0,0.0,0.0,0.0,0.0,0.0,0.0,0.0,0.0,0.0,0.0,0.0,0.0,0.0,0.0,0.0,0.0,0.0,0.0,0.0,0.0,0.0,0.0,0.0,0.0,0.0,0.0,0.0,0.0,0.0,0.0,0.0,0.0,0.0,0.0,0.0,0.0,0.0,0.0,0.0,0.0,0.0,0.0,0.0,0.0,0.0,0.0,0.0,0.0,0.0,0.0,0.0,0.0,0.0,0.0,0.0,0.0,0.0,0.0,0.0,0.0,0.0,0.0,0.0,0.0,0.0,0.0,0.0,0.0,0.0,0.0,0.0,0.0,0.0,0.0,0.0,0.0,0.0,0.0,0.0,0.0,0.0,0.0,0.0,0.0,0.0,0.0,0.0,0.0,0.0,0.0,0.0,0.0,0.0,0.0,0.0,0.0,0.0,0.0,0.0,0.0,0.0,0.0,0.0,0.0,0.0,0.0,0.0,0.0,0.0,0.0,0.0,0.0,0.0,0.0,0.0,0.0,0.0,0.0,0.0,0.0,0.0,0.0,0.0,0.0,0.0,0.0,0.0,0.0,0.0,0.0,0.0,0.0,0.0,0.0,0.0,0.0,0.0,0.0,0.0,0.0,0.0,0.0,0.0,0.0,0.0,0.0,0.0,0.0,0.0,0.0,0.0,0.0,0.0,0.0,0.0,0.0,0.0,0.0,0.0,0.0,0.0,0.0,0.0,0.0,0.0,0.0,0.0,0.0,0.0,0.0,0.0,0.0,0.0,0.0,0.0,0.0,0.0,0.0,0.0,0.0,0.0,0.0,0.0,0.0,0.0,0.0,0.0,0.0,0.0,0.0,0.0,0.0,0.0,0.0,0.0,0.0,0.0,0.0,0.0,0.0,0.0,0.0,0.0,0.0,0.0,0.0,0.0,0.0,0.0,0.0,0.0,0.0,0.0,0.0,0.0,0.0,0.0,0.0,0.0,0.0,0.0,0.0,0.0,0.0,0.0,0.0,0.0,0.0,0.0,0.0,0.0,0.0,0.0,0.0,0.0,0.0,0.0,0.0,0.0,0.0,0.0,0.0,0.0,0.0,0.0,0.0,0.0,0.0,0.0,0.0,0.0,0.0,0.0,0.0,0.0,0.0,0.0,0.0,0.0,0.0,0.0,0.0,0.0,0.0,0.0,0.0,0.0,0.0,0.0,0.0,0.0,0.0,0.0,0.0,0.0,0.0,0.0,0.0,0.0,0.0,0.0,0.0,0.0,0.0,0.0,0.0,0.0,0.0,0.0,0.0,0.0,0.0,0.0,0.0,0.0,0.0,0.0,0.0,0.0,0.0,0.0,0.0,0.0,0.0,0.0,0.0,0.0,0.0,0.0,0.0,0.0,0.0,0.0,0.0,0.0,0.0,0.0,0.0,0.0,0.0,0.0,0.0,0.0,0.0,0.0,0.0,0.0,0.0,0.0,0.0,0.0,0.0,0.0,0.0,0.0,0.0,0.0,0.0,0.0,0.0,0.0,0.0,0.0,0.0,0.0,0.0,0.0,0.0,0.0,0.0,0.0,0.0,0.0,0.0,0.0,0.0,0.0,0.0,0.0,0.0,0.0,0.0,0.0,0.0,0.0,0.0,0.0,0.0,0.0,0.0,0.0,0.0,0.0,0.0,0.0,0.0,0.0,0.0,0.0,0.0,0.0,0.0,0.0,0.0,0.0,0.0,0.0,0.0,0.0,0.0,0.0,0.0,0.0,0.0,0.0,0.0,0.0,0.0,0.0,0.0,0.0,0.0,0.0,0.0,0.0,0.0,0.0,0.0,0.0,0.0,0.0,0.0,0.0,0.0,0.0,0.0,0.0,0.0,0.0,0.0,0.0,0.0,0.0,0.0,0.0,0.0,0.0,0.0,0.0,0.0,0.0,0.0,0.0,0.0,0.0,0.0,-4.0308,-4.0378,0.0,0.0,0.0,0.0,0.0,0.0,0.0,0.0,0.0,0.0,0.0,0.0,0.0,0.0,0.0,0.0,0.0,0.0,0.0,0.0,0.0,0.0,0.0,0.0,0.0,0.0,0.0,0.0,0.0,0.0,0.0,0.0,0.0,0.0,0.0,0.0,0.0,0.0,0.0,0.0,0.0,0.0,0.0,0.0,0.0,0.0,0.0,0.0,0.0,0.0,0.0,0.0,0.0,0.0,0.0,0.0,0.0,0.0,0.0,0.0,0.0,0.0,0.0,0.0,0.0,0.0,0.0,0.0,0.0,0.0,0.0,0.0,0.0,0.0,0.0,0.0,0.0,0.0,0.0,0.0,0.0,0.0,0.0,0.0,0.0,0.0,0.0,0.0,0.0,0.0,0.0,0.0,0.0,0.0,0.0,0.0,0.0,0.0,0.0,0.0,0.0,0.0,0.0,0.0,0.0,0.0,0.0,0.0,0.0,0.0,0.0,0.0,0.0,0.0,-4.0126,-4.0266,0.0,0.0,0.0,0.0,0.0,0.0,0.0,0.0,0.0,0.0,0.0,0.0,0.0,0.0,0.0,0.0,0.0,0.0,0.0,0.0,0.0,0.0,0.0,0.0,0.0,0.0,0.0,0.0,0.0,0.0,0.0,0.0,0.0,0.0,0.0,0.0,0.0,0.0,0.0,0.0,0.0,0.0,0.0,0.0,0.0,0.0,0.0,0.0,0.0,0.0,0.0,0.0,0.0,0.0,0.0,0.0,0.0,0.0,0.0,0.0,0.0,0.0,0.0,0.0,0.0,0.0,0.0,0.0,0.0,0.0,0.0,0.0,0.0,0.0,0.0,0.0,0.0,0.0,0.0,0.0,0.0,0.0,0.0,0.0,0.0,0.0,0.0,0.0,0.0,0.0,0.0,0.0,0.0,0.0,0.0,0.0,0.0,0.0,0.0,0.0,0.0,0.0,0.0,0.0,0.0,0.0,0.0,0.0,-3.879,-3.8804,-3.8902,-3.8902,-3.8902,-3.893,-3.9283,-3.9521,-3.962,-3.962,0.0,0.0,0.0,0.0,0.0,0.0,0.0,0.0,0.0,0.0,0.0,0.0,0.0,0.0,0.0,0.0,0.0,0.0,0.0,0.0,0.0,0.0,0.0,0.0,0.0,0.0,0.0,0.0,0.0,0.0,0.0,0.0,0.0,0.0,0.0,0.0,0.0,0.0,-3.1705,-3.1705,-3.1705,-3.1705,0.0,0.0,0.0,0.0,0.0,0.0,0.0,0.0,0.0,0.0,0.0,0.0,0.0,0.0,0.0,0.0,0.0,0.0,0.0,0.0,0.0,0.0,0.0,0.0,0.0,0.0,0.0,0.0,0.0,0.0,0.0,0.0,0.0,0.0,0.0,0.0,0.0,0.0,0.0,0.0,0.0,0.0,0.0,0.0,-3.4139,-3.4139,0.0,0.0,0.0,0.0,0.0,0.0,0.0,0.0,0.0,0.0,0.0,0.0,0.0,-3.8299,-3.8902,-3.8313,-3.8313,-3.8902,-3.8299,-3.8327,-3.8902,-3.8902,-3.8902,-3.8888,-3.8355,0.0,-3.9029,-3.9029,0.0,0.0,0.0,0.0,0.0,0.0,0.0,0.0,0.0,0.0,0.0,0.0,0.0,0.0,0.0,0.0,0.0,0.0,0.0,0.0,0.0,0.0,0.0,0.0,0.0,0.0,0.0,0.0,0.0,0.0,0.0,0.0,0.0,0.0,0.0,0.0,-3.0316,-3.097,-3.1259,-3.1259,-3.1428,-3.1705,-3.1705,-3.1705,-3.1717,-3.1805,0.0,0.0,0.0,0.0,0.0,0.0,0.0,0.0,0.0,0.0,0.0,0.0,0.0,0.0,0.0,0.0,0.0,0.0,0.0,0.0,0.0,0.0,0.0,0.0,0.0,0.0,0.0,0.0,0.0,0.0,0.0,0.0,0.0,0.0,0.0,0.0,0.0,0.0,0.0,-3.4402,-3.4513,-3.502,-3.3859,-3.345,0.0,0.0,0.0,0.0,0.0,0.0,0.0,0.0,0.0,-3.7372,-3.7386,-3.7526,-3.7847,-3.7526,-3.7526,-3.7847,-3.7864,-3.8046,-3.8341,-3.8747,-3.8902,-3.8888,-3.8607,-3.8649,-3.8874,-3.8468,-3.8482,-3.8735,0.0,0.0,0.0,0.0,-3.8677,-3.8496,0.0,0.0,0.0,0.0,0.0,0.0,0.0,0.0,0.0,0.0,0.0,0.0,0.0,0.0,0.0,0.0,0.0,0.0,0.0,0.0,0.0,0.0,0.0,0.0,0.0,0.0,0.0,0.0,-2.9725,-3.029,-3.0718,-3.0718,-3.0922,-3.1308,-3.1308,-3.1452,-3.1705,-3.1849,-3.1981,0.0,0.0,0.0,0.0,0.0,0.0,0.0,0.0,0.0,0.0,0.0,0.0,0.0,0.0,0.0,0.0,0.0,0.0,0.0,0.0,0.0,0.0,0.0,0.0,0.0,0.0,0.0,0.0,0.0,0.0,0.0,0.0,0.0,0.0,0.0,0.0,0.0,0.0,-3.5278,-3.5264,-3.595,-3.4664,-3.4165,0.0,0.0,0.0,0.0,0.0,0.0,-3.694,-3.6915,-3.6875,-3.6978,-3.6978,-3.7063,-3.7217,-3.7217,-3.7302,-3.747,-3.7934,-3.8145,-3.8159,-3.8691,-3.8902,-3.8902,-3.8902,-3.8902,-3.8874,-3.8341,-3.8243,-3.8412,-3.8775,-3.9123,-3.9357,-3.8905,-3.8782,-3.8842,0.0,0.0,0.0,0.0,0.0,0.0,0.0,0.0,0.0,0.0,0.0,0.0,0.0,0.0,0.0,0.0,0.0,0.0,0.0,0.0,0.0,0.0,0.0,0.0,0.0,0.0,0.0,-3.0044,-3.0086,-3.0098,-3.0122,-3.0122,-3.0146,-3.017,-3.017,-3.0766,-3.1705,-3.1705,-3.1981,-3.2388,0.0,0.0,0.0,0.0,0.0,0.0,0.0,0.0,0.0,0.0,0.0,0.0,0.0,0.0,0.0,0.0,0.0,0.0,0.0,0.0,0.0,0.0,0.0,0.0,0.0,0.0,0.0,0.0,0.0,0.0,0.0,0.0,0.0,0.0,0.0,0.0,0.0,0.0,0.0,-3.694,-3.6123,0.0,0.0,0.0,0.0,-3.6822,-3.5763,-3.5602,-3.694,-3.6654,-3.6628,-3.6978,-3.6978,-3.7274,-3.785,-3.785,-3.8159,-3.8818,-3.8846,-3.886,-3.886,-3.8888,-3.8902,-3.8902,-3.8902,-3.8902,-3.8902,-3.8874,-3.9197,-3.9634,-3.9127,-3.935,-3.9995,-3.9601,-3.9559,-3.9758,0.0,0.0,0.0,0.0,0.0,0.0,0.0,0.0,0.0,0.0,0.0,0.0,0.0,0.0,0.0,0.0,0.0,0.0,0.0,0.0,0.0,0.0,0.0,0.0,0.0,0.0,-2.9076,-2.9076,-2.9076,-2.9244,-2.9581,-2.9581,-2.9761,-3.0086,-3.0086,-3.0387,-3.0876,-3.1047,-3.1228,-3.1398,-3.1667,-3.1864,0.0,0.0,0.0,0.0,0.0,0.0,0.0,0.0,0.0,0.0,0.0,0.0,0.0,0.0,0.0,0.0,0.0,0.0,0.0,0.0,0.0,0.0,0.0,0.0,0.0,0.0,0.0,0.0,0.0,0.0,0.0,0.0,0.0,0.0,0.0,0.0,0.0,-3.694,-3.6243,0.0,-3.6536,-3.5749,-3.5588,-3.6536,-3.6429,-3.6494,-3.6978,-3.6875,-3.7018,-3.7555,-3.7569,-3.7878,-3.855,-3.8524,-3.8677,-3.8902,-3.931,-3.9493,-3.9507,-3.9859,-4.0041,-4.0041,-4.0041,-4.0041,-4.0041,-4.0041,-3.9718,-3.9211,-3.9123,-3.9369,-3.9715,-3.9702,-3.9801,-3.9985,0.0,0.0,0.0,0.0,0.0,0.0,0.0,0.0,0.0,0.0,0.0,0.0,0.0,0.0,0.0,0.0,0.0,0.0,0.0,0.0,0.0,0.0,0.0,0.0,0.0,0.0,0.0,0.0,0.0,0.0,0.0,0.0,-2.922,-2.9556,-2.9556,-2.968,-2.9885,-3.0143,-3.0487,-3.0943,-3.1207,-3.1358,-3.1386,0.0,0.0,0.0,0.0,0.0,0.0,0.0,0.0,0.0,0.0,0.0,0.0,0.0,0.0,0.0,0.0,0.0,0.0,0.0,0.0,0.0,0.0,0.0,0.0,0.0,0.0,0.0,0.0,0.0,0.0,0.0,0.0,0.0,0.0,-3.6494,-3.6362,-3.694,-3.6494,-3.6256,-3.6575,-3.6296,-3.6256,-3.6575,-3.6836,-3.6978,-3.6978,-3.7175,-3.7484,-3.7892,-3.8116,-3.8538,-3.9211,-3.9211,-3.9324,-3.9535,-3.9901,-4.0083,-4.0112,-4.0519,-4.0702,-4.0702,-4.0702,-4.0702,-4.0702,-4.0702,-4.0252,-3.9631,-3.9769,-4.0002,-4.0247,-4.0409,-4.057,-4.0771,0.0,0.0,0.0,0.0,0.0,0.0,0.0,0.0,0.0,0.0,0.0,0.0,0.0,0.0,0.0,0.0,0.0,0.0,0.0,0.0,0.0,0.0,0.0,0.0,0.0,0.0,0.0,0.0,0.0,0.0,0.0,0.0,0.0,0.0,-2.851,-2.8618,-2.8843,-2.9013,-2.9865,-3.1075,-3.1075,-3.1185,-3.1377,0.0,0.0,0.0,0.0,0.0,0.0,0.0,0.0,0.0,0.0,0.0,0.0,0.0,0.0,0.0,0.0,0.0,0.0,0.0,0.0,0.0,0.0,0.0,0.0,0.0,0.0,0.0,0.0,0.0,0.0,0.0,0.0,0.0,-3.6861,-3.6978,-3.6978,-3.6978,-3.6978,-3.6993,-3.6978,-3.6978,-3.6993,-3.6978,-3.6978,-3.6993,-3.7021,-3.7569,-3.792,-3.7962,-3.8607,-3.924,-3.9802,-3.9816,-4.0112,-4.0702,-4.0702,-4.0702,-4.0702,-4.0702,-4.0702,-4.0702,-4.0702,-4.0702,-4.0702,-4.0702,-4.0816,-4.1001,-4.1001,-4.1296,-4.1688,-4.1688,-4.1897,-4.2092,0.0,0.0,0.0,0.0,0.0,0.0,0.0,0.0,0.0,0.0,0.0,0.0,0.0,0.0,0.0,0.0,0.0,0.0,0.0,0.0,0.0,0.0,0.0,0.0,0.0,0.0,0.0,0.0,0.0,0.0,0.0,0.0,0.0,0.0,0.0,-2.8697,-2.9,-2.9091,-2.9512,-3.0152,-3.0152,-3.0506,-3.1035,0.0,0.0,0.0,0.0,0.0,0.0,0.0,0.0,0.0,0.0,0.0,0.0,0.0,0.0,0.0,0.0,0.0,0.0,0.0,0.0,0.0,0.0,0.0,0.0,0.0,0.0,0.0,0.0,0.0,0.0,0.0,-3.6783,-3.673,-3.6978,-3.6978,-3.6978,-3.6978,-3.6733,-3.6693,-3.6978,-3.6733,-3.6693,-3.6993,-3.6978,-3.7175,-3.7625,-3.7807,-3.8313,-3.924,-3.9437,-3.9816,-4.0449,-4.0449,-4.0533,-4.0702,-4.0702,-4.0702,-4.0702,-4.0702,-4.0702,-4.0702,-4.0702,-4.0702,-4.0688,-4.0845,-4.1057,-4.1297,-4.1297,-4.1451,-4.1744,-4.1897,-4.2051,-4.2092,0.0,0.0,0.0,0.0,0.0,0.0,0.0,0.0,0.0,0.0,0.0,0.0,0.0,0.0,0.0,0.0,0.0,0.0,0.0,0.0,0.0,0.0,0.0,0.0,0.0,0.0,0.0,0.0,0.0,0.0,0.0,0.0,0.0,0.0,0.0,0.0,-2.9091,-2.9091,-2.9378,-2.983,-3.0139,-3.052,-3.0932,-3.1352,-3.1815,-3.2393,-3.3038,-3.3199,-3.3345,-3.4442,0.0,0.0,0.0,0.0,0.0,0.0,0.0,0.0,0.0,0.0,0.0,0.0,0.0,0.0,0.0,0.0,0.0,0.0,0.0,0.0,0.0,0.0,0.0,0.0,-3.6978,-3.6978,-3.6978,-3.6978,-3.6954,-3.6772,-3.6549,-3.651,-3.6733,-3.6549,-3.6589,-3.6993,-3.7217,-3.7526,-3.7878,-3.8397,-3.903,-3.976,-4.0041,-4.0336,-4.0702,-4.0702,-4.0702,-4.0702,-4.0702,-4.0702,-4.0702,-4.0702,-4.0702,-4.0702,-4.0702,-4.0702,-4.0702,-4.093,-4.1142,0.0,0.0,0.0,0.0,0.0,-4.2092,-4.2092,0.0,0.0,0.0,0.0,0.0,0.0,0.0,0.0,0.0,0.0,0.0,0.0,0.0,0.0,0.0,0.0,0.0,0.0,0.0,0.0,0.0,0.0,0.0,0.0,0.0,0.0,0.0,0.0,0.0,0.0,0.0,0.0,0.0,0.0,0.0,0.0,-2.9091,-2.9131,-2.9443,-3.0011,-3.0733,-3.1031,-3.118,-3.2069,-3.25,-3.2749,-3.3774,-3.4143,-3.4312,-3.5213,0.0,0.0,0.0,0.0,0.0,0.0,0.0,0.0,0.0,0.0,0.0,0.0,0.0,0.0,0.0,0.0,0.0,0.0,0.0,0.0,0.0,0.0,0.0,0.0,-3.6978,-3.6978,-3.6978,-3.6978,-3.6836,-3.6431,-3.6351,-3.6351,-3.6391,-3.6351,-3.6524,-3.7052,-3.7597,-3.7962,-3.8102,-3.9184,0.0,0.0,0.0,-4.0702,-4.0702,-4.0702,-4.0702,-4.0702,-4.0702,-4.0702,-4.0702,-4.0702,-4.0702,-4.0702,-4.0702,-4.0702,-4.0702,-4.093,-4.1241,-4.148,-4.1675,-4.1897,-4.2092,-4.2092,-4.2092,-4.2092,0.0,0.0,0.0,0.0,0.0,0.0,0.0,0.0,0.0,0.0,0.0,0.0,0.0,0.0,0.0,0.0,0.0,0.0,0.0,0.0,0.0,0.0,0.0,0.0,0.0,0.0,0.0,0.0,0.0,0.0,0.0,0.0,0.0,0.0,0.0,0.0,0.0,-2.9275,-2.9858,-3.0758,-3.1563,-3.1915,-3.2105,-3.2953,-3.3851,-3.4673,-3.4887,-3.5067,-3.5246,-3.5424,-3.5504,-3.5504,-3.5504,0.0,0.0,0.0,0.0,0.0,0.0,0.0,0.0,0.0,0.0,0.0,0.0,0.0,0.0,0.0,0.0,0.0,0.0,0.0,0.0,-3.6978,-3.6978,-3.6978,-3.6978,-3.6978,-3.6836,-3.6431,-3.6058,-3.5978,-3.6351,-3.6058,-3.6357,-3.7641,-3.7835,-3.8341,-3.9367,-3.9648,-4.0013,-4.0505,-4.0631,-4.0702,-4.0702,-4.0702,-4.0702,-4.0702,0.0,0.0,-4.0702,-4.0702,-4.0702,-4.0702,-4.0702,-4.0702,-4.0744,-4.1128,-4.1564,-4.1968,-4.2009,-4.2036,-4.2092,-4.2092,-4.2092,-4.2092,0.0,0.0,0.0,0.0,0.0,0.0,0.0,0.0,0.0,0.0,0.0,0.0,0.0,0.0,0.0,0.0,0.0,0.0,0.0,0.0,0.0,0.0,0.0,0.0,0.0,0.0,0.0,0.0,0.0,0.0,0.0,0.0,0.0,0.0,0.0,0.0,0.0,-2.9755,-3.0342,-3.0994,-3.229,-3.2883,-3.3129,-3.3934,-3.4606,-3.5213,-3.5326,-3.5407,-3.5504,-3.5504,-3.5504,-3.5504,-3.5504,-3.5294,-3.5034,0.0,0.0,0.0,0.0,0.0,0.0,0.0,0.0,0.0,0.0,0.0,0.0,0.0,0.0,-3.6978,-3.6978,0.0,-3.6978,-3.6978,-3.6978,-3.6978,-3.6978,-3.6836,-3.6536,-3.6098,-3.5844,-3.5804,-3.6018,-3.5642,-3.6076,-3.777,-3.7985,-3.8572,-3.9732,-4.0083,-4.0378,-4.0688,-4.0702,-4.0702,-4.0702,-4.0702,-4.0702,-4.0702,-4.0702,-4.0702,-4.0702,-4.0702,-4.0702,-4.0702,-4.0702,-4.0702,-4.0744,-4.1227,-4.1662,-4.2092,-4.2092,-4.2092,-4.2092,-4.2092,-4.2092,-4.2092,0.0,0.0,0.0,0.0,0.0,0.0,0.0,0.0,0.0,0.0,0.0,0.0,0.0,0.0,0.0,0.0,0.0,0.0,0.0,0.0,0.0,0.0,0.0,0.0,0.0,0.0,0.0,0.0,0.0,0.0,0.0,0.0,0.0,0.0,0.0,0.0,0.0,-3.0203,-3.082,-3.1267,-3.2812,-3.3679,-3.407,-3.4687,-3.5034,-3.5294,-3.5439,-3.5504,-3.5504,-3.5504,-3.5504,-3.5504,-3.5439,-3.5294,-3.5115,-3.4902,-3.475,0.0,0.0,0.0,0.0,0.0,0.0,0.0,0.0,-3.7586,-3.7419,-3.707,-3.6978,-3.6978,-3.6978,-3.6978,-3.6978,-3.6978,-3.6978,-3.6978,-3.6978,-3.6654,-3.6232,-3.5764,-3.5642,-3.5602,-3.5602,-3.5466,-3.6103,-3.7831,-3.8282,-3.895,-3.9929,-4.0435,-4.0702,-4.0702,-4.0702,-4.0702,-4.0702,-4.0702,-4.0702,-4.0702,-4.0702,-4.0702,-4.0702,-4.0702,-4.0702,-4.0702,-4.0702,-4.073,-4.0773,-4.1213,-4.1662,-4.2036,-4.2092,-4.2092,-4.2092,-4.2092,-4.2092,-4.2092,0.0,0.0,0.0,0.0,0.0,0.0,0.0,0.0,0.0,0.0,0.0,0.0,0.0,0.0,0.0,0.0,0.0,0.0,0.0,0.0,0.0,0.0,0.0,0.0,0.0,0.0,0.0,0.0,0.0,0.0,0.0,0.0,0.0,0.0,0.0,0.0,0.0,-3.0342,-3.1304,-3.2037,-3.2897,-3.3865,-3.4787,-3.4868,-3.5148,-3.5472,-3.5504,-3.5504,-3.5504,-3.5504,-3.5504,-3.5472,-3.5294,-3.5115,-3.4902,-3.475,-3.4597,-3.469,-3.5967,-3.7128,-3.8028,-3.8159,-3.8066,-3.7853,0.0,-3.7457,-3.7264,-3.707,-3.6978,-3.6978,-3.6978,-3.6978,-3.6978,-3.6978,-3.6978,-3.6978,-3.6978,-3.6654,-3.6232,-3.5764,-3.5399,-3.5154,-3.5154,-3.5911,-3.6906,-3.809,-3.9061,-3.9901,-4.0561,-4.0659,-4.0702,-4.0702,-4.0702,-4.0702,-4.0702,-4.0702,-4.0702,-4.0702,-4.0702,-4.0702,-4.0702,-4.0702,-4.0702,-4.0702,-4.0702,-4.0802,-4.1001,-4.1297,-4.1549,-4.1744,-4.1995,-4.2092,-4.2092,-4.2092,-4.2092,-4.2092,0.0,0.0,0.0,0.0,0.0,0.0,0.0,0.0,0.0,0.0,0.0,0.0,0.0,0.0,0.0,0.0,0.0,0.0,0.0,0.0,0.0,0.0,0.0,0.0,0.0,0.0,0.0,0.0,0.0,0.0,0.0,0.0,0.0,0.0,0.0,0.0,0.0,0.0,-3.1783,-3.2232,-3.352,-3.4351,-3.4817,-3.5016,-3.518,-3.5326,-3.5472,-3.5504,0.0,0.0,-3.5504,-3.5472,-3.5261,-3.5148,-3.4935,-3.4201,-3.4249,-3.484,-3.6002,-3.723,-3.8165,-3.8066,-3.7967,-3.7815,-3.7495,-3.7341,-3.7226,-3.7017,-3.6978,-3.6978,-3.6978,-3.6978,-3.6978,-3.6978,-3.6978,-3.6978,-3.6978,-3.6403,-3.5924,-3.571,-3.542,-3.5299,-3.5537,-3.6293,-3.7308,-3.8614,-3.9144,-3.9773,-4.0659,-4.0702,-4.0702,-4.0702,-4.0702,-4.0416,-3.9809,-3.9809,-3.9809,-3.9809,-3.9809,-4.0128,-4.0702,-4.0702,-4.0702,-4.0702,-4.0802,-4.1015,-4.1241,-4.1465,-4.1717,-4.1939,-4.2051,-4.2092,-4.2092,-4.2092,-4.2092,-4.2092,0.0,0.0,0.0,0.0,0.0,0.0,0.0,0.0,0.0,0.0,0.0,0.0,0.0,0.0,0.0,0.0,0.0,0.0,0.0,0.0,0.0,0.0,0.0,0.0,0.0,0.0,0.0,0.0,0.0,0.0,0.0,0.0,0.0,0.0,0.0,0.0,0.0,0.0,-3.211,-3.2268,-3.3942,-3.4664,-3.4731,-3.4964,-3.5082,-3.5148,-3.5407,-3.5504,0.0,0.0,-3.5472,-3.5359,-3.518,-3.5082,-3.4883,-3.4016,-3.4427,-3.5312,-3.6104,-3.723,-3.8179,-3.8028,-3.7891,-3.7739,-3.7457,-3.7303,-3.7187,-3.7017,-3.6978,-3.6978,-3.6978,-3.6978,-3.6978,-3.6978,-3.6978,-3.6954,-3.6836,-3.6191,-3.5697,-3.5737,-3.5621,-3.5716,-3.6161,-3.6874,-3.7777,-3.8843,-3.9308,-3.9856,-4.0674,-4.0702,-4.0702,-4.0702,-4.0416,-3.9954,-3.921,-3.8944,-3.881,-3.881,-3.9077,-3.9577,-4.0286,-4.0559,-4.073,-4.0773,-4.0916,-4.1142,-4.1438,-4.1619,-4.18,-4.1995,-4.2092,-4.2092,-4.2092,-4.2092,-4.2092,-4.2092,0.0,0.0,0.0,0.0,0.0,0.0,0.0,0.0,0.0,0.0,0.0,0.0,0.0,0.0,0.0,0.0,0.0,0.0,0.0,0.0,0.0,0.0,0.0,0.0,0.0,0.0,0.0,0.0,0.0,0.0,0.0,0.0,0.0,0.0,0.0,0.0,0.0,0.0,0.0,-3.2232,-3.3791,-3.4515,-3.4698,-3.4698,-3.4783,-3.4968,-3.5359,0.0,0.0,0.0,-3.5359,-3.518,-3.4968,-3.4817,0.0,-3.4448,-3.525,-3.6257,-3.6301,-3.723,-3.8202,-3.8202,-3.7915,-3.7625,-3.7586,-3.7303,-3.7017,-3.6978,-3.6978,-3.6978,-3.6978,-3.6978,-3.6978,-3.6978,-3.6978,-3.6875,-3.647,-3.6018,-3.5737,-3.59,-3.5989,-3.6305,-3.6894,-3.7819,-3.8342,-3.8412,-3.9795,-4.0674,-4.0702,-4.0702,-4.0702,-4.0702,-3.9766,-3.9241,-3.921,-3.8283,-3.7854,-3.7854,-3.8765,-3.921,-3.9299,-4.0286,-4.0816,-4.1001,-4.1001,-4.1142,-4.1438,-4.1619,-4.1688,-4.1744,-4.1995,-4.2092,-4.2092,-4.2092,-4.2092,-4.2092,0.0,0.0,0.0,0.0,0.0,0.0,0.0,0.0,0.0,0.0,0.0,0.0,0.0,0.0,0.0,0.0,0.0,0.0,0.0,0.0,0.0,0.0,0.0,0.0,0.0,0.0,0.0,0.0,0.0,0.0,0.0,0.0,0.0,0.0,0.0,0.0,0.0,0.0,0.0,0.0,-3.3206,-3.3962,-3.4515,-3.4664,-3.4399,-3.4002,0.0,0.0,0.0,0.0,-3.3953,-3.3429,-3.322,-3.3492,-3.3948,-3.4298,-3.495,-3.5674,-3.6158,-3.723,-3.8127,-3.7877,-3.7687,-3.7534,-3.7264,-3.7109,-3.6978,-3.6978,-3.6978,-3.6978,-3.6978,-3.6978,-3.6978,-3.6978,-3.6978,-3.6875,-3.647,-3.5872,-3.5601,-3.5883,-3.5467,-3.5669,-3.6895,-3.7434,-3.8095,-3.8935,-3.9247,-3.9519,-3.9722,-3.9708,-3.9414,-3.8805,-3.8432,-3.7965,-3.7263,-3.6951,-3.715,-3.7808,-3.9428,-3.9853,-3.9241,-4.0229,-4.0802,-4.1001,-4.1198,-4.1367,-4.1633,-4.1856,-4.1953,-4.198,-4.2051,-4.2092,-4.2092,-4.2092,-4.2092,-4.2092,0.0,0.0,0.0,0.0,0.0,0.0,0.0,0.0,0.0,0.0,0.0,0.0,0.0,0.0,0.0,0.0,0.0,0.0,0.0,0.0,0.0,0.0,0.0,0.0,0.0,0.0,0.0,0.0,0.0,0.0,0.0,0.0,0.0,0.0,0.0,0.0,0.0,0.0,0.0,0.0,0.0,-3.3262,-3.3962,-3.3825,-3.3624,0.0,0.0,0.0,0.0,0.0,-3.2975,-3.2522,-3.2692,-3.3248,-3.3894,-3.4298,-3.4986,-3.5711,-3.6158,-3.723,-3.8127,-3.7801,-3.7663,-3.7495,-3.7187,-3.707,-3.6978,-3.6978,-3.6978,-3.6978,-3.6978,-3.6978,-3.6978,-3.6978,-3.6652,-3.6336,-3.6178,-3.5387,-3.5102,-3.5877,-3.5223,-3.5267,-3.6728,-3.6561,-3.6985,-3.8652,-3.8554,-3.8527,-3.8675,-3.8675,-3.8419,-3.7808,-3.7441,-3.6964,-3.632,-3.5941,-3.6273,-3.7302,-3.8522,-3.8957,-3.872,-3.9722,-4.0315,-4.0517,-4.1114,-4.1507,-4.1744,-4.1995,-4.2092,-4.2092,-4.2092,-4.2092,-4.2092,-4.2092,-4.2092,-4.2092,0.0,0.0,0.0,0.0,0.0,0.0,0.0,0.0,0.0,0.0,0.0,0.0,0.0,0.0,0.0,0.0,0.0,0.0,0.0,0.0,0.0,0.0,0.0,0.0,0.0,0.0,0.0,0.0,0.0,0.0,0.0,0.0,0.0,0.0,0.0,0.0,0.0,0.0,0.0,0.0,0.0,0.0,-3.3073,-3.2362,0.0,0.0,0.0,0.0,0.0,0.0,-3.2429,-3.2393,-3.3213,-3.3845,-3.4312,-3.438,-3.5314,-3.6301,-3.6301,-3.723,-3.8127,-3.7929,-3.7739,-3.7534,-3.7341,-3.7148,-3.6978,-3.6978,-3.6978,-3.6978,-3.6978,-3.6978,-3.6978,-3.6978,-3.6056,-3.54,-3.5669,-3.4545,-3.4287,-3.5856,-3.519,-3.5159,-3.6518,-3.5259,-3.5295,-3.7474,0.0,-3.7658,-3.7717,-3.7717,-3.7671,-3.7671,-3.6743,-3.6225,-3.6225,-3.5343,-3.5343,-3.6225,-3.632,-3.6824,-3.7763,-3.8765,-3.9356,-3.9648,-4.0901,-4.1507,-4.1744,-4.1995,-4.2092,-4.2092,-4.2092,-4.2092,-4.2092,-4.2092,-4.2092,-4.2092,0.0,0.0,0.0,0.0,0.0,0.0,0.0,0.0,0.0,0.0,0.0,0.0,0.0,0.0,0.0,0.0,0.0,0.0,0.0,0.0,0.0,0.0,0.0,0.0,0.0,0.0,0.0,0.0,0.0,0.0,0.0,0.0,0.0,0.0,0.0,0.0,0.0,0.0,0.0,0.0,0.0,0.0,-3.2362,0.0,0.0,0.0,0.0,0.0,0.0,-3.1746,-3.1806,-3.1499,-3.2847,-3.3017,-3.2911,-3.4045,-3.5314,-3.6301,-3.6301,-3.723,-3.8127,-3.7763,-3.7663,-3.7495,-3.7148,-3.7017,-3.6978,-3.6978,-3.6978,-3.6978,-3.6978,-3.6978,-3.6978,-3.6978,-3.6056,-3.54,-3.5669,-3.4438,-3.3921,-3.5156,-3.4326,-3.423,-3.575,-3.4665,-3.4335,-3.5475,-3.5678,-3.5951,-3.6342,-3.6389,-3.6118,-3.5571,-3.5343,-3.5199,-3.5199,-3.5667,-3.5667,-3.5199,-3.6696,-3.7163,-3.673,-3.8437,-3.9356,-3.9648,-4.0901,-4.1507,-4.1744,-4.1995,-4.2092,-4.2092,-4.2092,-4.2092,-4.2092,-4.2092,-4.2092,-4.2092,0.0,0.0,0.0,0.0,0.0,0.0,0.0,0.0,0.0,0.0,0.0,0.0,0.0,0.0,0.0,0.0,0.0,0.0,0.0,0.0,0.0,0.0,0.0,0.0,0.0,0.0,0.0,0.0,0.0,0.0,0.0,0.0,0.0,0.0,0.0,0.0,0.0,0.0,0.0,0.0,0.0,0.0,0.0,0.0,0.0,0.0,0.0,0.0,0.0,-3.1267,-3.1267,-3.1106,-3.2313,-3.2648,-3.281,-3.3944,-3.5237,-3.6252,-3.6076,-3.7026,-3.7953,-3.7572,-3.7457,-3.738,-3.707,-3.6691,-3.6455,-3.6455,-3.6455,-3.6308,-3.5896,-3.648,-3.6691,-3.5816,-3.5047,-3.4555,-3.4524,-3.3422,-3.313,-3.4346,-3.3791,-3.3755,-3.4981,-3.4139,-3.3729,-3.4101,-3.4556,-3.4933,-3.5223,-3.5367,-3.5235,-3.4823,-3.4775,-3.4775,-3.4775,-3.5343,-3.5343,-3.4823,-3.5941,-3.6178,-3.5715,-3.7217,-3.827,-3.8881,0.0,-4.1057,-4.1591,-4.1953,-4.2092,-4.2092,-4.2092,-4.2092,-4.2092,-4.2092,-4.2092,-4.2092,0.0,0.0,0.0,0.0,0.0,0.0,0.0,0.0,0.0,0.0,0.0,0.0,0.0,0.0,0.0,0.0,0.0,0.0,0.0,0.0,0.0,0.0,0.0,0.0,0.0,0.0,0.0,0.0,0.0,0.0,0.0,0.0,0.0,0.0,0.0,0.0,0.0,0.0,0.0,0.0,0.0,0.0,0.0,0.0,0.0,0.0,0.0,0.0,0.0,0.0,-3.082,-3.1044,-3.1856,-3.2434,-3.2973,-3.3698,-3.4945,-3.5985,-3.5727,-3.6717,-3.7777,-3.738,-3.7303,-3.7226,-3.69,-3.6243,-3.5655,-3.5534,-3.5494,-3.5278,-3.443,-3.5561,-3.6016,-3.4319,-3.3678,-3.3284,-3.3066,-3.2253,-3.2241,-3.3603,-3.3502,-3.3557,-3.4201,-3.3706,-3.3281,-3.3281,-3.3965,-3.4335,-3.4335,-3.458,-3.4775,-3.4775,-3.4775,-3.4775,-3.4775,-3.4775,-3.4775,-3.4775,-3.4775,-3.4775,-3.4823,-3.5858,-3.679,-3.7717,-3.9108,-4.0287,-4.1297,-4.1731,-4.1995,-4.2092,-4.2092,-4.2092,-4.2092,-4.2092,-4.2092,-4.2092,0.0,0.0,0.0,0.0,0.0,0.0,0.0,0.0,0.0,0.0,-3.7163,-3.7215,0.0,0.0,0.0,0.0,0.0,0.0,0.0,0.0,0.0,0.0,0.0,0.0,0.0,0.0,0.0,0.0,0.0,0.0,0.0,0.0,0.0,0.0,0.0,0.0,0.0,0.0,0.0,0.0,0.0,0.0,0.0,0.0,0.0,0.0,0.0,0.0,0.0,0.0,-3.0419,-3.1044,-3.1856,-3.1636,-3.1312,-3.2495,-3.3802,-3.4896,-3.5266,-3.6473,-3.7625,-3.7341,-3.7303,-3.7056,-3.6163,-3.583,-3.5494,-3.4678,-3.4555,-3.4472,-3.4347,-3.443,-3.4444,-3.4264,-3.3101,-3.2426,-3.3139,-3.239,-3.2087,-3.291,-3.3186,-3.3331,-3.3469,-3.3381,-3.3281,-3.3281,-3.3828,-3.4162,-3.4162,-3.4347,-3.458,-3.4775,-3.4775,-3.4775,-3.4775,-3.4775,-3.4775,-3.4775,-3.4775,-3.4775,-3.4823,-3.5858,-3.6521,-3.6943,-3.8192,0.0,-4.0517,-4.076,-4.1339,-4.2092,-4.2092,-4.2092,-4.2092,-4.2092,-4.2092,-4.2092,0.0,0.0,0.0,0.0,0.0,0.0,0.0,0.0,-3.5538,-3.6108,-3.645,-3.6731,-3.6836,-3.6383,0.0,0.0,0.0,0.0,0.0,0.0,0.0,0.0,0.0,0.0,0.0,0.0,-2.9482,-2.9236,0.0,0.0,0.0,-2.9197,-2.9314,-2.9419,0.0,0.0,0.0,0.0,0.0,0.0,0.0,0.0,0.0,0.0,0.0,0.0,0.0,0.0,0.0,0.0,-2.993,-3.0508,-3.1099,-3.1104,-3.1048,-3.1967,-3.3492,-3.4937,-3.4979,-3.585,-3.6847,-3.7095,-3.6808,-3.6322,-3.583,-3.5318,-3.4733,-3.3817,-3.3594,-3.3479,-3.3023,-3.3606,-3.3804,-3.2735,-3.2333,-3.2016,-3.1721,-3.1726,-3.1897,-3.2217,-3.2845,-3.3281,-3.3281,-3.3281,-3.3281,-3.3281,-3.3779,-3.4125,-3.4125,-3.4396,-3.4677,-3.4775,-3.4775,-3.4775,-3.4775,-3.4775,-3.4775,-3.4775,-3.4775,-3.4775,-3.4823,-3.544,-3.6096,-3.6769,-3.7553,-3.8554,-3.9634,-4.0303,-4.0873,-4.1395,-4.1912,-4.2092,-4.2092,-4.2092,-4.2092,-4.2092,0.0,0.0,0.0,0.0,0.0,0.0,0.0,-3.4791,-3.477,-3.5381,-3.5488,-3.5745,-3.6501,-3.6235,-3.5978,0.0,0.0,0.0,0.0,0.0,0.0,0.0,0.0,0.0,0.0,0.0,0.0,-2.9052,-2.9052,0.0,0.0,0.0,0.0,0.0,-2.9302,-2.9443,-2.9663,0.0,0.0,0.0,0.0,-2.9702,0.0,0.0,0.0,0.0,0.0,0.0,0.0,0.0,-2.9739,-3.0081,-3.0441,-3.0749,-3.1075,-3.168,-3.3172,-3.4618,-3.46,-3.5128,-3.5776,-3.6269,-3.591,-3.5359,-3.5156,-3.4568,-3.3775,-3.2907,-3.2747,-3.2488,-3.1837,-3.2778,-3.3109,-3.1362,-3.1548,-3.1569,-3.0431,-3.1158,-3.1766,-3.1743,-3.265,-3.3281,-3.3281,-3.3281,-3.3281,-3.3281,-3.3779,-3.4125,-3.4211,-3.4592,-3.4775,-3.4775,-3.4775,-3.4775,-3.4775,-3.4775,-3.4775,-3.4775,-3.4775,-3.4775,-3.4823,-3.503,-3.5596,-3.6487,-3.6824,-3.775,-3.9015,-3.9913,-4.056,-4.1015,-4.1773,-4.2092,-4.2092,-4.2092,-4.2092,-4.2092,0.0,0.0,0.0,0.0,0.0,0.0,0.0,-3.3815,-3.372,-3.4279,-3.4186,-3.4306,-3.4859,-3.5764,-3.6128,0.0,0.0,0.0,0.0,0.0,0.0,0.0,0.0,0.0,0.0,0.0,0.0,-2.8843,-2.8843,0.0,0.0,0.0,0.0,0.0,0.0,-2.9131,-2.917,-2.917,0.0,0.0,0.0,0.0,0.0,0.0,0.0,0.0,0.0,-2.9438,-2.9856,-2.9856,-3.0074,-3.0348,-3.0382,-3.0436,-3.065,-3.1483,-3.2066,-3.2765,-3.3983,-3.4389,-3.4472,-3.4513,-3.4472,-3.4223,-3.3437,-3.3194,-3.2864,-3.2001,-3.1837,-3.1793,-3.1705,-3.1649,-3.1516,-3.1306,0.0,-3.0701,-3.0578,-3.1298,-3.1813,-3.1813,-3.2661,-3.3281,-3.3281,-3.3281,-3.3281,-3.3281,-3.3779,-3.431,-3.4726,-3.4787,-3.4775,-3.4775,-3.4775,-3.4775,-3.4775,-3.4775,-3.4775,-3.4775,-3.4775,-3.4775,-3.4775,-3.4835,-3.5175,-3.5704,-3.5752,-3.7057,0.0,-3.9299,-4.0374,-4.1953,-4.2051,-4.2092,-4.2092,-4.2092,-4.2092,-4.2092,0.0,0.0,0.0,0.0,0.0,0.0,0.0,-3.3696,-3.3474,-3.3703,-3.3815,-3.3985,-3.4211,-3.4914,-3.5416,0.0,0.0,0.0,0.0,0.0,0.0,0.0,0.0,0.0,0.0,0.0,-2.8803,-2.8618,-2.8618,0.0,0.0,0.0,0.0,0.0,0.0,-2.9013,-2.9091,-2.9091,0.0,0.0,0.0,0.0,0.0,0.0,0.0,0.0,0.0,0.0,-3.0187,-3.0187,-3.0415,-3.0689,-3.0458,-3.0755,-3.1191,-3.1192,-3.1916,-3.2789,-3.3386,-3.3522,-3.3649,-3.4181,-3.3888,-3.3437,-3.3066,-3.298,-3.2735,-3.1869,-3.1705,-3.1705,-3.1705,-3.1484,0.0,0.0,0.0,0.0,-3.0397,-3.1146,-3.1754,-3.1813,-3.271,-3.3281,-3.3281,-3.3281,-3.3431,-3.3779,-3.3977,-3.431,-3.4775,-3.4775,-3.4775,-3.4775,-3.4775,-3.4775,-3.4775,-3.4775,-3.4775,-3.4775,-3.4775,-3.4775,-3.4835,-3.4981,-3.5175,-3.538,-3.5716,-3.6709,0.0,-3.8885,-4.0,-4.1254,-4.1856,-4.2092,-4.2092,-4.2092,-4.2092,-4.2092,0.0,0.0,0.0,0.0,0.0,-3.3907,-3.3907,-3.3569,-3.3313,-3.3313,-3.3537,-3.3658,-3.3658,-3.4148,-3.4638,-3.4981,0.0,0.0,0.0,0.0,0.0,0.0,0.0,0.0,0.0,0.0,-2.8657,-2.851,-2.851,-2.851,0.0,0.0,-2.8578,-2.8724,0.0,0.0,0.0,0.0,0.0,0.0,0.0,0.0,0.0,0.0,0.0,0.0,0.0,0.0,0.0,0.0,0.0,-3.1091,-3.0858,0.0,0.0,0.0,-3.1908,-3.2649,-3.295,-3.2821,-3.2778,-3.3395,-3.3066,-3.2618,-3.2618,-3.2618,-3.2457,-3.1837,-3.1705,-3.1705,-3.1705,-3.1484,0.0,0.0,0.0,-3.0532,-3.0261,-3.11,-3.1754,-3.1813,-3.271,-3.3281,-3.3281,-3.3381,-3.363,-3.4075,-3.4162,-3.4359,-3.4787,-3.4775,-3.4775,-3.4775,-3.4775,-3.4775,-3.4775,-3.4775,-3.4775,-3.4775,-3.4775,-3.4775,-3.4835,-3.4981,-3.5126,-3.5223,-3.562,-3.6392,0.0,-3.8302,-3.9417,-4.0689,-4.1395,-4.1814,-4.2092,-4.2092,-4.2092,-4.2092,0.0,0.0,0.0,0.0,0.0,0.0,0.0,-3.324,-3.3124,-3.3124,-3.3124,-3.3124,-3.3124,-3.3583,-3.3909,-3.3922,0.0,0.0,0.0,0.0,0.0,0.0,0.0,0.0,0.0,0.0,-2.851,-2.851,-2.851,-2.851,-2.851,-2.851,-2.851,-2.851,0.0,0.0,0.0,0.0,0.0,0.0,0.0,0.0,0.0,0.0,0.0,0.0,0.0,0.0,0.0,0.0,0.0,0.0,0.0,-3.1705,0.0,0.0,-3.1951,-3.1913,-3.2791,-3.237,-3.1705,-3.1705,-3.1705,-3.1705,-3.1705,-3.1705,-3.1705,-3.1705,-3.1705,-3.1705,-3.1705,-3.1484,0.0,0.0,0.0,0.0,-3.0261,-3.1111,-3.1813,-3.1813,-3.271,-3.3281,-3.3281,-3.353,-3.3828,-3.4075,-3.4298,0.0,-3.4775,-3.4775,-3.4775,-3.4775,-3.4775,-3.4775,-3.4775,-3.4775,-3.4775,-3.4775,-3.4775,-3.4775,-3.4775,-3.4775,-3.4932,-3.5223,-3.5223,-3.6048,0.0,-3.7415,-3.8693,-4.0603,-4.0603,-4.1198,-4.2092,-4.2092,-4.2092,-4.2092,0.0,0.0,0.0,0.0,0.0,0.0,0.0,-3.324,-3.3124,-3.3124,-3.3124,-3.3124,-3.3124,-3.3232,-3.3483,-3.3872,0.0,0.0,0.0,0.0,0.0,0.0,0.0,0.0,0.0,0.0,-2.851,-2.851,-2.851,-2.851,-2.851,-2.851,-2.851,-2.851,-2.851,-2.851,0.0,0.0,0.0,0.0,0.0,0.0,-3.0006,0.0,0.0,0.0,0.0,0.0,0.0,0.0,0.0,0.0,0.0,0.0,0.0,0.0,0.0,-3.1749,-3.2045,-3.1913,-3.1705,-3.1705,-3.1705,-3.1705,-3.1705,-3.1705,-3.1705,-3.1705,-3.1705,-3.1705,-3.1705,-3.1362,0.0,0.0,0.0,0.0,-3.0216,-3.1111,-3.1813,-3.1813,-3.271,-3.3381,-3.358,-3.363,-3.3866,-3.4249,-3.4335,-3.4531,-3.4775,-3.4775,-3.4775,-3.4775,-3.4775,-3.4775,-3.4775,-3.4775,-3.4775,-3.4775,-3.4775,-3.4775,-3.4775,-3.4775,-3.4835,-3.4932,-3.532,-3.6096,-3.7204,-3.8211,-3.9417,-4.0689,-4.1339,-4.1814,-4.2092,-4.2092,-4.2092,-4.2092,0.0,0.0,0.0,0.0,0.0,0.0,0.0,-3.3197,-3.3124,-3.3124,-3.3124,-3.3124,-3.3124,-3.3124,-3.3163,-3.3427,0.0,0.0,0.0,0.0,0.0,0.0,0.0,0.0,0.0,-2.9268,-2.9003,-2.8811,-2.8811,-2.8703,-2.851,-2.851,-2.8619,-2.8811,-2.8811,-2.8919,0.0,0.0,0.0,0.0,0.0,0.0,-3.0446,0.0,0.0,0.0,0.0,0.0,0.0,0.0,0.0,0.0,0.0,0.0,0.0,0.0,-3.1705,-3.1705,-3.1705,-3.1705,-3.1705,-3.1705,-3.1705,-3.1705,-3.1705,-3.1705,-3.1705,-3.1705,-3.1705,-3.1705,-3.1705,-3.133,-3.0984,0.0,0.0,0.0,-3.0216,-3.1111,-3.1963,-3.2342,-3.2902,-3.3431,-3.3679,-3.3779,-3.4014,-3.4384,-3.4482,-3.4628,-3.4775,-3.4775,-3.4775,-3.4775,-3.4775,-3.4775,-3.4775,-3.4775,-3.4775,-3.4775,-3.4775,-3.4775,-3.4775,-3.4775,-3.4884,-3.4981,-3.532,-3.5883,0.0,-3.7997,-3.9139,-4.0159,-4.117,-4.1773,-4.2092,-4.2092,-4.2092,-4.2092,0.0,0.0,0.0,0.0,0.0,0.0,0.0,0.0,0.0,-3.3081,-3.3124,-3.3124,-3.3124,-3.3124,-3.2982,-3.2711,0.0,0.0,0.0,0.0,0.0,0.0,0.0,0.0,-3.0158,-3.011,-2.9845,-2.9352,-2.9352,-2.91,-2.8619,-2.8619,-2.8883,-2.9352,-2.9352,-2.9629,0.0,0.0,0.0,0.0,-3.0766,-3.097,0.0,0.0,0.0,0.0,0.0,0.0,0.0,0.0,0.0,0.0,0.0,0.0,0.0,0.0,0.0,0.0,0.0,-3.1705,-3.1705,-3.1705,-3.1705,-3.1705,-3.1705,-3.1705,0.0,-3.1705,-3.1705,-3.1705,-3.1661,-3.1273,-3.0972,-3.0972,-3.0556,-3.0227,-3.0262,-3.1169,-3.2227,-3.3166,-3.3331,-3.3431,-3.3679,-3.3977,-3.4211,-3.4433,-3.4677,-3.4775,-3.4775,-3.4775,-3.4775,-3.4775,-3.4775,-3.4775,-3.4775,-3.4775,-3.4775,-3.4775,-3.4775,-3.4775,-3.4775,-3.4775,-3.4932,0.0,-3.5223,-3.5524,0.0,-3.7023,-3.8134,-3.9285,-4.0246,-4.1198,-4.2092,-4.2092,-4.2092,-4.2092,0.0,0.0,0.0,0.0,0.0,0.0,0.0,0.0,0.0,0.0,-3.3124,-3.3124,-3.3124,-3.3124,-3.2982,0.0,0.0,0.0,0.0,0.0,0.0,0.0,0.0,0.0,-3.0687,-3.029,-3.0025,-2.9893,-2.9893,-2.9833,-2.9713,-2.9713,-2.9785,-2.9893,-2.9893,-2.9965,0.0,0.0,0.0,0.0,-3.1308,-3.1524,0.0,0.0,0.0,0.0,-3.1705,-3.1705,0.0,0.0,0.0,0.0,0.0,0.0,0.0,0.0,-3.1705,-3.1705,-3.1705,0.0,-3.1705,-3.1705,-3.1705,-3.1705,0.0,-3.1705,-3.1705,-3.1705,-3.1705,-3.1617,-3.1439,-3.1184,-3.0927,-3.0724,-3.0397,-3.0354,-3.0767,-3.1685,-3.2558,-3.3201,-3.3481,-3.3729,-3.3977,-3.4211,-3.4445,-3.4689,-3.4775,-3.4775,-3.4775,-3.4775,-3.4775,-3.4775,-3.4775,-3.4775,-3.4775,-3.4775,-3.4775,-3.4775,-3.4775,-3.4775,-3.4775,-3.4775,-3.4823,-3.4932,-3.532,0.0,-3.5812,-3.7163,-3.8283,-3.9285,-4.0246,-4.1198,-4.2092,-4.2092,-4.2092,-4.2092,0.0,0.0,0.0,0.0,0.0,0.0,0.0,0.0,0.0,0.0,0.0,0.0,0.0,0.0,0.0,0.0,0.0,0.0,0.0,0.0,0.0,0.0,0.0,-3.1284,-3.1284,-3.0995,-3.0687,-3.0446,-3.0446,-3.0326,-3.0086,-3.0086,-3.0218,-3.0458,-3.0699,-3.0807,-3.0874,-3.1151,-3.1284,-3.1308,-3.1585,0.0,0.0,0.0,0.0,0.0,-3.1705,-3.1705,0.0,-3.1705,-3.1705,-3.1705,0.0,0.0,0.0,0.0,-3.1705,-3.1705,-3.1705,-3.1705,-3.1705,-3.1705,-3.1705,-3.1705,-3.1705,0.0,-3.1705,-3.1705,-3.1705,-3.1661,-3.1528,-3.1273,-3.105,-3.0826,-3.0646,-3.0765,-3.1425,-3.2103,-3.2684,-3.3224,-3.353,-3.3828,-3.4075,-3.4298,-3.4531,-3.4787,-3.4775,-3.4775,-3.4775,-3.4775,-3.4775,-3.4775,-3.4775,-3.4775,-3.4775,-3.4775,-3.4775,-3.4775,-3.4775,-3.4775,-3.4775,-3.4775,-3.492,-3.5175,-3.5464,0.0,-3.6086,-3.775,-3.872,-3.9343,-4.0717,-4.1633,-4.2092,-4.2092,-4.1903,-4.1642,0.0,0.0,0.0,0.0,0.0,0.0,0.0,0.0,0.0,0.0,0.0,0.0,0.0,0.0,0.0,0.0,0.0,0.0,0.0,0.0,0.0,0.0,0.0,-3.1705,-3.1705,-3.1705,-3.1488,-3.1043,-3.1043,-3.0814,-3.0326,-3.0326,-3.0567,-3.1055,-3.1512,-3.1705,-3.1705,-3.1705,-3.1705,-3.1705,-3.1705,0.0,0.0,0.0,0.0,0.0,0.0,0.0,0.0,-3.1705,-3.1705,-3.1705,-3.1705,0.0,0.0,0.0,0.0,0.0,-3.1705,-3.1705,-3.1705,-3.1705,-3.1705,-3.1705,-3.1705,0.0,-3.1705,-3.1705,-3.1705,-3.1705,-3.1661,-3.1439,-3.1217,-3.0972,-3.1068,-3.1422,-3.2077,-3.2478,-3.2923,-3.3373,-3.363,-3.3927,-3.4113,-3.4347,-3.458,-3.4775,-3.4775,-3.4775,-3.4775,-3.4775,-3.4775,-3.4775,-3.4775,-3.4775,-3.4775,-3.4775,-3.4775,-3.4775,-3.4775,-3.4823,-3.4872,-3.4872,-3.5126,-3.562,0.0,0.0,-3.6452,-3.8088,-3.8944,-3.9329,-4.0901,-4.1684,-4.1932,-4.1831,-4.1439,-4.0931,0.0,0.0,0.0,0.0,0.0,0.0,0.0,0.0,0.0,0.0,0.0,0.0,0.0,0.0,0.0,0.0,0.0,0.0,0.0,0.0,0.0,0.0,-3.1238,-3.1705,-3.1705,-3.1705,-3.1669,-3.1585,-3.1585,-3.1548,-3.1464,-3.1464,-3.1512,-3.1585,-3.1669,-3.1705,-3.1705,-3.1705,-3.1705,-3.1705,-3.1705,0.0,0.0,0.0,0.0,0.0,0.0,0.0,0.0,-3.1705,-3.1705,-3.1705,-3.1705,0.0,0.0,0.0,0.0,0.0,-3.1705,-3.1705,-3.1705,-3.1705,-3.1705,-3.1705,-3.1705,-3.1705,-3.1705,-3.1705,-3.1705,-3.1617,-3.1395,-3.135,-3.1172,-3.0713,-3.1356,-3.2031,-3.2371,-3.3238,-3.3883,-3.3965,-3.415,-3.4286,-3.4347,-3.458,-3.4775,-3.4775,-3.4775,-3.4775,-3.4775,-3.4775,-3.4775,-3.4775,-3.4775,-3.4775,-3.4775,-3.4775,-3.4775,-3.4775,-3.4775,-3.4932,-3.5126,-3.5126,-3.532,-3.562,0.0,-3.5968,-3.6098,-3.6628,-3.7782,-3.92,-3.8958,-3.9859,-4.1178,-4.0612,-4.0336,-4.0176,0.0,0.0,0.0,0.0,0.0,0.0,0.0,0.0,0.0,0.0,0.0,0.0,0.0,0.0,0.0,0.0,0.0,0.0,0.0,0.0,0.0,-3.017,-3.1149,-3.1705,-3.1705,-3.1705,-3.1705,-3.1705,-3.1705,-3.1705,-3.1705,-3.1705,-3.1705,-3.1705,-3.1705,-3.1705,-3.1705,-3.1705,-3.1705,-3.1705,0.0,0.0,0.0,0.0,0.0,0.0,0.0,0.0,0.0,0.0,-3.1705,-3.1705,-3.1705,0.0,0.0,0.0,0.0,0.0,-3.1705,-3.1705,-3.1705,-3.1705,-3.1705,-3.1705,-3.1705,-3.1705,-3.1705,-3.1705,-3.1705,-3.1661,-3.1528,-3.1528,-3.1439,-3.1205,-3.1807,-3.2394,-3.27,-3.3514,-3.4125,-3.4125,-3.4298,-3.4384,-3.4384,-3.4628,-3.4775,-3.4775,-3.4775,-3.4775,-3.4775,-3.4775,-3.4775,-3.4775,-3.4775,-3.4775,-3.4775,-3.4775,-3.4775,-3.4775,-3.4775,-3.4872,-3.4969,-3.4969,-3.5126,-3.5368,0.0,-3.5556,-3.5615,-3.6265,-3.7187,-3.8263,-3.8516,-3.9418,-4.0481,-3.9842,-3.961,-3.9523,0.0,0.0,0.0,0.0,0.0,0.0,0.0,0.0,0.0,0.0,0.0,0.0,0.0,0.0,0.0,0.0,0.0,0.0,0.0,0.0,-2.9143,-3.017,-3.1149,-3.1705,-3.1705,-3.1705,-3.1705,-3.1705,-3.1705,-3.1705,-3.1705,-3.1705,-3.1705,-3.1705,-3.1705,-3.1705,-3.1705,-3.1705,-3.1705,-3.1705,0.0,0.0,0.0,0.0,0.0,0.0,0.0,0.0,0.0,0.0,0.0,0.0,0.0,0.0,0.0,-3.1705,-3.1705,-3.1705,-3.1705,-3.1705,-3.1705,-3.1705,-3.1705,-3.1705,-3.1705,-3.1705,-3.1705,-3.1705,-3.1705,-3.1705,-3.1705,-3.1661,-3.1617,-3.1705,-3.2174,-3.2688,-3.2958,-3.3707,-3.4261,-3.4261,-3.4396,-3.4482,-3.4482,-3.4677,-3.4775,-3.4775,-3.4775,-3.4775,-3.4775,-3.4775,-3.4775,-3.4775,-3.4775,-3.4775,-3.4775,-3.4655,-3.4655,-3.4775,-3.4775,-3.4763,-3.4691,-3.4691,-3.4763,-3.4942,-3.4942,-3.4946,-3.5055,-3.5773,-3.6595,-3.7461,-3.809,-3.8899,-3.9596,-3.9146,-3.8971,-3.8884,0.0,0.0,0.0,0.0,0.0,0.0,0.0,0.0,0.0,0.0,0.0,0.0,0.0,0.0,0.0,0.0,0.0,0.0,0.0,0.0,-2.9143,-3.017,-3.1149,-3.1705,-3.1705,-3.1705,-3.1705,-3.1705,-3.1705,-3.1705,-3.1705,-3.1705,-3.1705,-3.1705,-3.1705,-3.1705,-3.1705,-3.1705,-3.1705,-3.1705,-3.1705,0.0,0.0,0.0,0.0,0.0,0.0,0.0,0.0,0.0,0.0,0.0,0.0,0.0,-3.1705,-3.1705,-3.1705,-3.1705,-3.1705,-3.1705,-3.1705,-3.1705,-3.1705,-3.1705,-3.1705,-3.1705,-3.1705,-3.1705,-3.1705,-3.1705,-3.1705,-3.1484,-3.1395,-3.1661,-3.2369,-3.2969,-3.3238,-3.4126,-3.4726,-3.4726,-3.4775,-3.4775,-3.4775,-3.4775,-3.4775,-3.4775,-3.4775,-3.4775,-3.4775,-3.4775,-3.4775,-3.4775,-3.4775,-3.4775,-3.4775,-3.4294,-3.4294,-3.4775,-3.4775,-3.4667,-3.4434,-3.4434,-3.4295,-3.4072,-3.4072,-3.4222,-3.4438,-3.4529,-3.5696,-3.7336,-3.6877,-3.7356,-3.8333,-3.8289,-3.8275,-3.8275,0.0,0.0,0.0,0.0,0.0,0.0,0.0,0.0,0.0,0.0,0.0,0.0,0.0,0.0,0.0,0.0,0.0,0.0,0.0,0.0,-2.7934,-2.8308,-2.928,-3.0125,-3.0767,-3.1383,-3.1705,-3.1705,-3.1705,-3.1705,-3.1705,-3.1705,-3.1705,-3.1705,-3.1705,-3.1705,-3.1705,-3.1705,-3.1705,-3.1705,-3.1705,-3.1705,0.0,0.0,0.0,0.0,0.0,0.0,0.0,0.0,-3.1705,0.0,0.0,0.0,-3.1705,-3.1705,-3.1705,-3.1705,-3.1705,-3.1705,-3.1705,-3.1705,-3.1705,-3.1705,-3.1705,-3.1705,-3.1705,-3.1705,-3.1705,-3.1705,-3.1705,-3.1617,-3.1572,-3.1661,-3.2517,-3.3179,-3.3296,-3.4174,-3.4775,-3.4775,-3.4775,-3.4775,-3.4775,-3.4775,-3.4775,-3.4775,-3.4775,-3.4775,-3.4775,-3.4775,-3.4631,-3.4294,-3.4294,-3.4138,-3.3873,-3.3669,-3.3681,-3.3873,-3.3873,-3.3812,-3.3713,-3.3713,-3.3651,-3.3538,-3.3538,-3.3585,-3.3642,-3.3642,-3.4691,-3.6361,-3.72,-3.782,-3.8202,-3.8202,-3.8202,-3.8202,0.0,0.0,0.0,0.0,0.0,0.0,0.0,0.0,0.0,0.0,0.0,0.0,0.0,0.0,0.0,0.0,0.0,0.0,-2.6149,-2.6829,-2.7332,-2.7652,-2.8634,-2.9521,-3.017,-3.1193,-3.1705,-3.1705,-3.1705,-3.1705,-3.1705,-3.1705,-3.1705,-3.1705,-3.1705,-3.1705,-3.1705,-3.1705,-3.1705,-3.1705,-3.1705,-3.1705,0.0,0.0,0.0,0.0,0.0,0.0,0.0,0.0,0.0,0.0,0.0,0.0,0.0,0.0,-3.1705,-3.1705,-3.1705,-3.1705,-3.1705,-3.1705,-3.1705,-3.1705,-3.1705,-3.1705,-3.1705,-3.1705,-3.1705,-3.1705,-3.1705,-3.1705,-3.1705,-3.1705,-3.2575,-3.3284,-3.3284,-3.4174,-3.4775,-3.4775,-3.4775,-3.4775,-3.4775,-3.4775,-3.4775,-3.4775,-3.4775,-3.4715,-3.4546,-3.4534,-3.4294,-3.3825,-3.3801,-3.3633,-3.3284,-3.3128,-3.3044,-3.3044,-3.2863,-3.2863,-3.3044,-3.3044,-3.2947,-3.2779,-3.2779,-3.2835,-3.2941,-3.2852,-3.3862,-3.5695,-3.7477,-3.8202,-3.8202,-3.8202,-3.8202,-3.8202,0.0,0.0,0.0,0.0,0.0,0.0,0.0,0.0,0.0,0.0,0.0,0.0,0.0,0.0,0.0,0.0,0.0,0.0,-2.7094,-2.7189,-2.7652,-2.8634,-2.9612,-3.017,-3.017,-3.1149,-3.1705,-3.1705,-3.1705,-3.1705,-3.1705,-3.1705,-3.1705,-3.1705,-3.1705,-3.1705,-3.1705,-3.1705,-3.1705,-3.1717,-3.1717,-3.1717,-3.1729,0.0,0.0,0.0,0.0,0.0,0.0,0.0,-3.1717,0.0,0.0,0.0,0.0,0.0,-3.1705,-3.1705,-3.1705,-3.1705,-3.1705,-3.1705,-3.1705,-3.1705,-3.1705,-3.1705,-3.1705,-3.1705,-3.1705,-3.1705,-3.1705,-3.1705,-3.1705,-3.1705,-3.2575,-3.3284,-3.3284,-3.4174,-3.4775,-3.4775,-3.4775,-3.4775,-3.4775,-3.4775,-3.4775,-3.4775,-3.4775,-3.4546,-3.4018,-3.3982,-3.3801,-3.3296,-3.3284,-3.3284,-3.3272,-3.2755,-3.2491,-3.2491,-3.1982,-3.1994,-3.2491,-3.2491,-3.219,-3.1705,-3.1705,-3.1981,-3.24,-3.2125,-3.3305,-3.5467,-3.7438,-3.8202,-3.8202,-3.8202,-3.8202,-3.8202,0.0,0.0,0.0,0.0,0.0,0.0,0.0,0.0,0.0,0.0,0.0,0.0,0.0,0.0,0.0,0.0,0.0,0.0,-2.6149,-2.6139,-2.6284,-2.6572,-2.6897,-2.7352,-2.8075,-2.9749,-3.1003,-3.1705,-3.1705,-3.1705,-3.1705,-3.1705,-3.1705,-3.1705,-3.1705,-3.1705,-3.1705,-3.1705,-3.1934,-3.225,-3.225,-3.2478,-3.2815,0.0,0.0,0.0,0.0,0.0,0.0,0.0,0.0,0.0,0.0,0.0,0.0,0.0,-3.1705,-3.1705,-3.1705,-3.1705,-3.1705,-3.1705,-3.1705,-3.1705,-3.1705,-3.1705,-3.1705,-3.1705,-3.1705,-3.1705,-3.1705,-3.1705,-3.1705,-3.1705,-3.2262,-3.2863,-3.3236,-3.3861,-3.4366,-3.4787,-3.4775,-3.4775,-3.4775,-3.4775,-3.4619,-3.4258,-3.4234,-3.3994,-3.3537,-3.3513,-3.3272,-3.2755,-3.2743,-3.2551,-3.2199,-3.2176,-3.2103,-3.1958,-3.1934,-3.1934,-3.1958,-3.1958,-3.1862,-3.1705,-3.1705,-3.1849,-3.2213,-3.3048,-3.3788,-3.4596,-3.6517,-3.7285,-3.7376,-3.7962,-3.8202,-3.8202,0.0,0.0,0.0,0.0,0.0,0.0,0.0,0.0,0.0,0.0,0.0,0.0,0.0,0.0,0.0,0.0,0.0,0.0,0.0,-2.624,-2.6172,-2.6006,-2.6368,-2.7119,-2.8355,-2.9555,-3.0678,-3.1705,-3.1705,-3.1705,-3.1705,-3.1705,-3.1705,-3.1717,-3.1901,-3.1997,-3.2054,-3.2271,-3.2503,-3.2815,-3.2815,-3.3008,-3.3284,0.0,0.0,0.0,0.0,0.0,0.0,0.0,0.0,0.0,0.0,0.0,0.0,-3.1705,-3.1705,-3.1705,-3.1705,-3.1705,-3.1705,-3.1705,-3.1705,-3.1705,-3.1705,-3.1705,-3.1705,-3.1705,-3.1705,-3.1705,-3.1705,-3.1705,-3.1705,-3.1705,-3.213,-3.2611,-3.2935,-3.3416,-3.3861,-3.4186,-3.4222,-3.4222,-3.4222,-3.4222,-3.409,-3.3765,-3.3741,-3.3525,-3.3008,-3.2971,-3.2731,-3.219,-3.2268,-3.2099,-3.1705,-3.1893,-3.1893,-3.1705,-3.1805,-3.1805,-3.1705,-3.1705,-3.1705,-3.1705,-3.1793,-3.1849,-3.1981,-3.3407,-3.3901,-3.393,-3.6068,-3.6858,-3.6897,-3.7848,-3.8202,-3.8202,0.0,0.0,0.0,0.0,0.0,0.0,0.0,0.0,0.0,0.0,0.0,0.0,0.0,0.0,0.0,0.0,0.0,0.0,0.0,0.0,-2.6846,-2.6465,-2.7309,-2.854,-3.0034,-3.0114,-3.0682,-3.1716,-3.1709,-3.1705,-3.1705,-3.1765,-3.1789,-3.1813,-3.2322,-3.2575,-3.2599,-3.308,-3.332,-3.3356,-3.3356,-3.3392,-3.3428,-3.3428,0.0,0.0,0.0,0.0,0.0,0.0,0.0,0.0,0.0,0.0,-3.1789,-3.1789,-3.1753,-3.1705,-3.1705,-3.1705,-3.1705,-3.1705,-3.1705,-3.1705,-3.1705,-3.1705,-3.1705,-3.1705,-3.1705,-3.1705,-3.1705,-3.1705,-3.1705,-3.1705,-3.2094,-3.2442,-3.2491,-3.2911,-3.3236,-3.3284,-3.3284,-3.3284,-3.3284,-3.3284,-3.3272,-3.3224,-3.3224,-3.2984,-3.25,-3.2464,-3.2235,-3.1773,-3.1937,-3.1893,-3.1705,-3.1893,-3.1893,-3.1705,-3.1705,-3.1705,-3.1705,-3.1705,-3.1705,-3.1705,-3.1893,-3.1849,-3.1837,-3.3322,-3.3733,-3.3551,-3.5989,-3.678,-3.678,-3.781,-3.8202,-3.8202,0.0,0.0,0.0,0.0,0.0,0.0,0.0,0.0,0.0,0.0,0.0,0.0,0.0,0.0,0.0,0.0,0.0,0.0,0.0,0.0,-2.6973,-2.6885,-2.7078,-2.7753,-2.8904,-2.972,-3.0653,-3.1774,-3.1755,-3.1705,-3.1717,-3.2118,-3.2322,-3.2346,-3.2887,-3.3116,-3.3128,-3.3236,-3.3513,-3.3826,-3.3826,-3.4078,-3.4499,-3.4499,-3.4499,0.0,0.0,0.0,0.0,0.0,0.0,0.0,-3.3116,-3.2755,-3.2322,-3.2322,-3.2054,-3.1705,-3.1705,-3.1705,-3.1705,-3.1705,-3.1705,-3.1705,-3.1705,-3.1705,-3.1705,-3.1705,-3.1705,-3.1705,-3.1705,-3.1705,-3.1705,-3.1705,-3.1813,-3.1997,-3.2442,-3.2599,-3.2827,-3.3236,-3.3284,-3.3284,-3.3284,-3.3284,-3.3116,-3.2695,-3.2671,-3.2521,-3.2111,-3.2119,-3.2159,-3.2269,-3.2081,-3.1981,-3.1937,-3.1981,-3.1893,0.0,-3.1849,-3.1849,-3.1705,-3.1705,-3.1705,-3.1705,-3.1761,-3.1749,-3.1793,-3.3207,-3.3704,-3.3817,-3.6029,-3.6858,-3.6936,-3.7848,-3.8202,-3.8202,0.0,0.0,0.0,0.0,0.0,0.0,0.0,0.0,0.0,0.0,0.0,0.0,0.0,0.0,0.0,0.0,0.0,0.0,0.0,0.0,0.0,-2.7334,-2.7129,-2.75,-2.8526,-2.9546,-3.063,-3.1708,-3.2236,-3.2488,-3.2488,-3.2743,-3.2875,-3.2899,-3.3416,-3.3657,-3.3669,-3.3921,-3.4174,-3.4366,-3.4366,-3.4534,-3.4775,-3.4775,-3.4775,-3.4775,-3.4775,0.0,0.0,0.0,0.0,0.0,0.0,0.0,-3.2875,-3.2875,-3.2491,-3.207,-3.207,-3.191,-3.1705,-3.1705,-3.1705,-3.1705,-3.1705,-3.1705,-3.1705,-3.1705,-3.1705,-3.1705,-3.1705,-3.1705,-3.1705,-3.1705,-3.1705,-3.1813,-3.2058,-3.2094,-3.2202,-3.2524,-3.2503,-3.2503,-3.2503,-3.2503,-3.244,-3.2264,-3.224,-3.2253,-3.2181,-3.2169,-3.2257,-3.24,-3.2344,-3.2245,-3.1994,-3.2125,-3.2025,-3.1705,-3.1805,-3.1805,-3.1705,-3.1705,-3.1705,-3.1705,-3.1705,-3.1705,-3.1749,-3.2556,-3.2846,-3.295,-3.5251,-3.6082,-3.6162,-3.7644,-3.8202,-3.8202,0.0,0.0,0.0,0.0,0.0,0.0,0.0,0.0,0.0,0.0,0.0,0.0,0.0,0.0,0.0,0.0,0.0,0.0,0.0,0.0,0.0,-2.7845,-2.7432,-2.7678,-2.8714,-2.9792,-3.0874,-3.1865,-3.3007,-3.3561,-3.3549,-3.3464,-3.3416,-3.344,-3.3898,-3.4126,-3.4162,-3.4595,-3.4775,-3.4775,-3.4775,-3.4775,-3.4775,-3.4775,-3.4775,-3.4775,-3.4775,-3.4775,-3.4775,-3.4775,0.0,0.0,0.0,0.0,-3.3416,-3.3416,-3.3044,-3.2635,-3.2635,-3.2226,-3.1837,-3.1729,-3.1705,-3.1705,-3.1705,-3.1705,-3.1705,-3.1705,-3.1705,-3.1705,-3.1705,-3.1705,-3.1705,-3.1705,-3.1705,-3.1705,-3.1705,-3.1705,-3.1705,-3.1705,-3.1705,-3.1761,-3.1761,-3.1793,-3.1893,-3.2038,-3.2081,-3.2169,-3.2431,-3.2431,-3.2475,-3.2519,-3.2593,-3.2463,-3.2081,-3.2213,-3.2069,-3.1705,-3.1705,-3.1705,-3.1705,-3.1705,-3.1705,-3.1705,-3.1705,-3.1705,-3.1705,-3.2101,-3.2133,-3.2196,-3.4389,-3.5264,-3.5507,-3.7285,-3.8037,-3.8202,0.0,0.0,0.0,0.0,0.0,0.0,0.0,0.0,0.0,0.0,-2.8291,-2.8291,0.0,0.0,0.0,0.0,0.0,0.0,-2.8291,0.0,0.0,-2.8213,-2.8154,-2.8635,-2.9694,-3.0818,-3.1934,-3.3005,-3.4061,-3.4619,-3.4607,-3.4102,-3.3898,-3.3922,-3.4438,-3.4679,-3.4679,-3.4751,-3.4775,-3.4775,-3.4775,-3.4775,-3.4775,-3.4775,-3.4775,-3.4775,-3.4775,-3.4775,-3.4775,-3.4775,-3.4727,0.0,0.0,0.0,-3.3898,-3.3898,-3.3585,-3.3188,-3.3188,-3.2791,-3.2274,-3.1837,-3.1705,-3.1705,-3.1705,-3.1705,-3.1705,-3.1705,-3.1705,-3.1705,-3.1705,-3.1705,-3.1705,-3.1705,-3.1705,-3.1705,-3.1705,-3.1705,-3.1705,-3.1705,-3.1849,-3.195,-3.195,-3.2169,-3.23,-3.2344,-3.2356,-3.2431,-3.2636,-3.268,-3.2766,-3.2995,-3.2649,-3.2388,-3.2356,-3.1981,-3.1761,-3.1705,-3.1705,-3.1705,-3.1705,-3.1705,-3.1705,-3.1705,-3.1705,-3.1705,-3.1793,-3.2735,-3.3096,-3.3224,-3.4526,-3.5588,-3.6413,-3.6702,-3.7414,-3.8202,0.0,0.0,0.0,0.0,0.0,0.0,0.0,0.0,0.0,0.0,0.0,-2.8291,0.0,0.0,0.0,-2.8291,-2.8291,-2.8291,-2.8291,-2.8291,-2.8291,-2.8291,-2.8291,-2.8495,-2.9006,-3.0701,-3.183,-3.2286,-3.3967,-3.4775,-3.4775,-3.4546,-3.4438,-3.4438,-3.4679,-3.4775,-3.4775,-3.4775,-3.4775,-3.4775,-3.4775,-3.4775,-3.4775,-3.4775,-3.4775,-3.4775,-3.4775,-3.4775,-3.4775,-3.4775,-3.4775,-3.4775,-3.4775,0.0,0.0,0.0,-3.4066,-3.3585,-3.2996,-3.2671,-3.237,-3.1849,-3.1705,-3.1705,-3.1705,-3.1705,-3.1705,-3.1705,-3.1705,-3.1705,-3.1705,-3.1705,-3.1705,-3.1705,-3.1705,-3.1705,-3.1705,-3.1705,-3.1705,-3.1705,-3.1893,-3.1994,-3.1994,-3.2257,-3.2431,-3.255,-3.255,-3.268,-3.2896,-3.2939,-3.2982,-3.3124,-3.2909,-3.2649,-3.24,-3.2213,-3.1792,-3.1259,-3.1259,-3.1259,-3.1259,-3.1259,-3.1428,-3.1705,-3.1705,-3.1705,-3.1749,-3.2196,-3.2401,-3.2531,-3.3606,-3.4347,-3.4843,-3.5588,-3.6148,-3.6674,0.0,0.0,0.0,0.0,0.0,0.0,0.0,0.0,0.0,0.0,0.0,0.0,0.0,0.0,0.0,0.0,-2.8291,-2.8291,-2.8291,-2.8291,-2.8291,-2.8291,-2.8291,-2.8291,-2.8291,-3.0193,-3.1165,-3.1165,-3.335,-3.4372,-3.4421,-3.4677,-3.4775,-3.4775,-3.4775,-3.4775,-3.4775,-3.4775,-3.4775,-3.4775,-3.4775,-3.4775,-3.4775,-3.4775,-3.4775,-3.4775,-3.4775,-3.4775,-3.4775,-3.4775,-3.4775,-3.4775,-3.4775,-3.4775,0.0,0.0,0.0,-3.3994,-3.314,-3.2791,-3.2563,-3.2066,-3.1813,-3.1705,-3.1705,-3.1705,-3.1705,-3.1705,-3.1705,-3.1705,-3.1705,-3.1705,-3.1705,-3.1705,-3.1705,-3.1705,-3.1705,-3.1749,-3.1761,-3.1761,-3.2025,-3.2157,-3.2157,-3.2431,-3.2649,-3.281,-3.2797,-3.2896,-3.3081,-3.3124,-3.3124,-3.3124,-3.2995,-3.2717,-3.2191,-3.1957,-3.1417,-3.0718,-3.0718,-3.0718,-3.0718,-3.0718,-3.1007,-3.1512,-3.1657,-3.1705,-3.1705,-3.1705,-3.1705,-3.1793,-3.2562,-3.3066,-3.3424,-3.4513,-3.5061,-3.5427,0.0,0.0,0.0,0.0,0.0,0.0,0.0,0.0,0.0,0.0,0.0,0.0,-2.8291,-2.8291,-2.8291,-2.8291,-2.8291,-2.8291,-2.8291,-2.8291,-2.8291,-2.8291,-2.8291,0.0,-2.8291,-2.9418,-2.9974,-2.9974,-3.2174,-3.33,-3.3312,-3.4323,-3.4775,-3.4775,-3.4775,-3.4775,-3.4775,-3.4775,-3.4775,-3.4775,-3.4775,-3.4775,-3.4775,-3.4775,-3.4775,-3.4775,-3.4775,-3.4775,-3.4775,-3.4775,-3.4775,-3.4775,-3.4775,-3.4775,-3.4775,0.0,0.0,0.0,-3.4066,-3.3609,-3.3128,-3.2587,-3.2058,-3.1705,-3.1705,-3.1705,-3.1705,-3.1705,-3.1705,-3.1705,-3.1705,-3.1705,-3.1705,-3.1705,-3.1705,-3.1705,-3.1705,-3.1849,-3.1981,-3.1981,-3.2376,-3.2667,-3.2667,-3.2896,-3.3081,-3.3081,-3.3081,-3.3081,-3.3124,-3.3124,-3.3124,-3.3124,-3.2649,-3.2185,-3.1638,-3.0689,-3.02,-3.0122,-3.0122,-3.0122,-3.0122,-3.0122,-3.041,-3.0995,-3.1488,-3.1705,-3.1705,-3.1705,-3.1705,-3.1705,-3.1749,-3.2401,-3.3352,-3.3661,-3.4444,-3.5346,0.0,0.0,0.0,0.0,0.0,0.0,0.0,0.0,0.0,0.0,0.0,0.0,0.0,-2.8291,-2.8291,-2.8291,-2.8291,-2.8291,-2.8291,-2.8291,-2.8291,-2.8291,-2.8291,-2.8291,-2.8291,-2.9365,-2.9922,-2.9922,-3.2123,-3.3201,-3.3201,-3.4323,-3.4775,-3.4775,-3.4775,-3.4775,-3.4775,-3.4775,-3.4775,-3.4775,-3.4775,-3.4775,-3.4775,-3.4775,-3.4775,-3.4775,-3.4775,-3.4775,-3.4775,-3.4775,-3.4775,-3.4775,-3.4775,-3.4775,-3.4775,-3.4775,-3.4775,-3.4667,-3.4138,-3.3862,-3.3573,-3.2707,-3.2346,-3.2106,-3.1789,-3.1705,-3.1705,-3.1705,-3.1705,-3.1705,-3.1705,-3.1705,-3.1705,-3.1705,-3.1705,-3.1705,-3.1705,-3.1893,-3.1994,-3.1994,-3.2407,-3.2711,-3.2711,-3.2939,-3.3124,-3.3124,-3.3124,-3.3124,-3.3124,-3.3124,-3.2862,-3.2342,-3.2159,-3.1686,-3.0826,-3.035,-2.9917,-2.9581,-2.9581,-2.9581,-2.9581,-2.9581,-2.9869,-3.0398,-3.0927,-3.1392,-3.1705,-3.1705,-3.1705,-3.1705,-3.1705,-3.1913,-3.2283,-3.2513,-3.2945,-3.3573,0.0,0.0,0.0,0.0,0.0,0.0,0.0,0.0,0.0,-2.8291,0.0,0.0,0.0,0.0,-2.8291,-2.8291,-2.8291,-2.8291,-2.8291,-2.8291,-2.8291,-2.8291,-2.8291,-2.8441,-2.8804,-2.9513,-3.0078,-3.0494,-3.2275,-3.3201,-3.3201,-3.4323,-3.4775,-3.4775,-3.4775,-3.4775,-3.4775,-3.4775,-3.4775,-3.4775,-3.4775,-3.4775,-3.4775,-3.4775,-3.4775,-3.4775,-3.4775,-3.4775,-3.4775,-3.4775,-3.4775,-3.4775,-3.4775,-3.4775,-3.4775,-3.4775,-3.4775,-3.4703,-3.4354,-3.4126,-3.379,-3.2971,-3.2635,-3.2358,-3.1837,-3.1705,-3.1705,-3.1705,-3.1705,-3.1705,-3.1705,-3.1705,-3.1705,-3.1805,-3.1805,-3.1849,-3.1937,-3.2113,-3.2245,-3.2245,-3.2593,-3.2853,-3.2853,-3.2995,-3.3124,-3.3124,-3.3124,0.0,-3.3124,-3.2893,-3.2414,-3.1571,-3.1277,-3.0785,-3.0058,-2.9723,-2.9388,-2.9027,-2.9027,-2.9027,-2.9027,-2.9027,-2.9316,-2.9845,-3.0194,-3.0747,-3.1452,-3.1633,-3.1705,-3.1705,-3.1705,-3.1705,-3.1705,-3.195,-3.2125,-3.2388,0.0,0.0,0.0,0.0,0.0,0.0,0.0,0.0,-2.8291,-2.8291,0.0,0.0,0.0,0.0,0.0,-2.8291,-2.8291,-2.8291,-2.8291,-2.8291,-2.8291,-2.8291,-2.8291,-2.8804,-2.9817,-2.9869,-3.039,-3.1524,-3.2588,-3.3151,-3.3201,-3.4274,-3.4775,-3.4775,-3.4775,-3.4775,-3.4775,-3.4775,-3.4775,-3.4775,-3.4775,-3.4775,-3.4775,-3.4775,-3.4775,-3.4775,-3.4775,-3.4775,-3.4775,-3.4775,-3.4775,-3.4775,-3.4775,-3.4775,-3.4775,-3.4775,-3.4775,-3.4775,0.0,0.0,0.0,-3.3416,-3.2899,-3.237,-3.1837,-3.1705,-3.1717,-3.1705,-3.1705,-3.1705,-3.1705,-3.1705,-3.1761,-3.1981,-3.1994,-3.2081,-3.2344,-3.255,-3.2711,-3.2711,-3.2939,-3.3124,-3.3124,-3.3124,-3.3124,-3.3124,-3.3124,-3.3111,-3.3056,-3.2491,-3.173,-3.0819,-2.9996,-2.946,-2.928,-2.8775,-2.851,-2.851,-2.851,-2.851,-2.851,-2.851,-2.8787,-2.928,-2.9292,-2.9893,-3.0934,-3.1464,-3.1693,-3.1705,-3.1705,-3.1705,-3.1705,-3.1937,-3.1981,-3.2038,0.0,0.0,0.0,0.0,0.0,0.0,0.0,-2.8291,-2.8291,0.0,0.0,0.0,-2.8291,-2.8291,-2.8291,-2.8291,-2.8291,-2.8291,-2.8291,-2.8291,-2.8291,-2.8291,-2.8291,-2.8441,-2.8751,0.0,0.0,0.0,0.0,0.0,0.0,0.0,-3.4775,-3.4775,-3.4775,-3.4775,-3.4775,-3.4775,-3.4775,-3.4775,-3.4775,-3.4775,-3.4775,-3.4775,-3.4775,-3.4775,-3.4775,-3.4775,-3.4775,-3.4775,-3.4775,-3.4775,-3.4775,-3.4775,-3.4775,-3.4775,-3.4775,-3.4823,-3.503,0.0,0.0,0.0,0.0,0.0,-3.1922,0.0,-3.1893,-3.1705,-3.1981,-3.2113,-3.1761,-3.1805,-3.1994,-3.2257,-3.2125,-3.2081,-3.2344,-3.255,-3.2711,-3.2711,-3.2939,-3.3124,-3.3124,-3.3124,-3.3124,0.0,-3.3124,-3.2893,-3.2466,-3.1274,-3.0511,-3.0241,-2.9286,-2.8767,-2.8727,-2.8582,-2.851,-2.851,-2.851,-2.851,-2.851,-2.851,-2.8595,-2.8751,-2.9136,-2.9689,-3.035,-3.0922,-3.1356,-3.1705,-3.1705,-3.1705,-3.1717,-3.1761,-3.1893,-3.1994,0.0,0.0,0.0,0.0,0.0,0.0,0.0,-2.8291,-2.8291,0.0,0.0,0.0,-2.8291,-2.8291,-2.8291,-2.8291,-2.8291,-2.8291,-2.8291,-2.8291,-2.8291,-2.8291,-2.8291,-2.8495,-2.8953,0.0,0.0,0.0,0.0,0.0,0.0,0.0,0.0,-3.4775,-3.4775,-3.4775,-3.4775,-3.4775,-3.4775,-3.4775,-3.4775,-3.4775,-3.4775,-3.4775,-3.4775,-3.4775,-3.4775,-3.4775,-3.4775,-3.4775,-3.4775,-3.4775,-3.4775,-3.4775,-3.4775,-3.4775,-3.4884,-3.4981,-3.5175,-3.5078,-3.4763,-3.3851,0.0,0.0,-3.1958,-3.1805,-3.1849,0.0,-3.1981,-3.2169,-3.1893,-3.2025,-3.2257,-3.2475,-3.2376,-3.2376,-3.2649,-3.2766,-3.2853,-3.2853,-3.2982,-3.3124,-3.3124,-3.3124,-3.3124,-3.3124,-3.2855,-3.2323,-3.1451,-3.0502,-2.9868,-2.9502,-2.8826,-2.851,-2.851,-2.851,-2.851,-2.851,-2.851,-2.851,-2.851,-2.851,-2.851,-2.8522,-2.8835,-2.9268,-2.9797,-3.0338,-3.1031,-3.1705,-3.1705,-3.1705,-3.1705,-3.1705,-3.1749,-3.1893,0.0,0.0,0.0,0.0,0.0,0.0,0.0,-2.8291,-2.8291,0.0,-2.8291,-2.8291,-2.8291,-2.8291,-2.8291,-2.8291,-2.8291,-2.8291,-2.8291,-2.8291,-2.8291,-2.8291,-2.8291,-2.8751,-2.9723,0.0,0.0,0.0,0.0,0.0,0.0,0.0,0.0,0.0,0.0,-3.4677,-3.4775,-3.4775,-3.4775,-3.4775,-3.4775,-3.4775,-3.4775,-3.4775,-3.4775,-3.4775,-3.4775,-3.4775,-3.4775,-3.4775,-3.4775,-3.4775,-3.4775,-3.4775,-3.4775,-3.4775,-3.4981,-3.5175,-3.5175,-3.5175,-3.492,-3.3851,-3.3458,0.0,-3.1958,-3.1749,-3.1793,0.0,-3.1981,-3.2125,-3.2038,-3.2257,-3.2475,-3.268,-3.2711,-3.281,-3.3081,-3.3124,-3.3124,-3.3124,-3.3124,-3.3124,-3.3124,-3.3124,-3.3124,-3.3124,-3.2491,-3.1592,-3.0366,-3.0066,-2.9567,-2.8803,-2.8618,-2.851,-2.851,-2.851,-2.851,-2.851,-2.851,-2.851,-2.851,-2.851,-2.851,-2.851,-2.851,-2.8811,-2.934,-2.9869,-3.0718,-3.1633,-3.1681,-3.1705,-3.1705,-3.1705,-3.1705,-3.1705,-2.8451,0.0,0.0,0.0,0.0,0.0,0.0,-2.8291,-2.8291,-2.8291,-2.8291,-2.8291,-2.8291,-2.8291,-2.8291,-2.8291,-2.8291,-2.8291,-2.8291,-2.8291,-2.8291,-2.8291,-2.8291,-2.8398,-2.8601,0.0,0.0,0.0,0.0,0.0,0.0,0.0,0.0,0.0,0.0,-3.3967,-3.4775,-3.4775,-3.4775,-3.4775,-3.4775,-3.4775,-3.4775,-3.4775,-3.4775,-3.4775,-3.4775,-3.4775,-3.4775,-3.4775,-3.4775,-3.4775,-3.4775,-3.4775,-3.4775,-3.4775,-3.4823,-3.4932,-3.5126,-3.503,-3.4667,-3.3805,-3.3584,0.0,-3.2192,-3.2245,-3.2463,0.0,-3.2605,-3.2766,-3.2388,-3.2506,-3.2636,-3.2667,-3.2711,-3.281,-3.3081,-3.3124,-3.3124,-3.3124,-3.3124,-3.3124,-3.3124,-3.3124,-3.3124,-3.3124,-3.2127,-3.1192,-3.0341,-2.9655,-2.9123,-2.8803,-2.8618,-2.851,-2.851,-2.851,-2.851,-2.851,-2.851,-2.851,-2.851,-2.851,-2.851,-2.851,-2.851,-2.8811,-2.934,-2.9869,-3.0458,-3.1115,-3.1536,-3.1705,-3.1705,-3.1705,-3.1705,-3.1705,-2.8344,-2.8291,0.0,0.0,0.0,0.0,0.0,0.0,-2.8291,-2.8291,-2.8291,-2.8291,-2.8291,-2.8291,-2.8291,-2.8291,-2.8291,-2.8291,-2.8291,-2.8291,-2.8291,-2.8291,-2.8291,-2.8291,-2.8291,-2.8291,0.0,0.0,0.0,0.0,0.0,0.0,0.0,0.0,-3.3758,-3.4323,-3.4775,-3.4775,-3.4775,-3.4775,-3.4775,-3.4775,-3.4775,-3.4775,-3.4775,-3.4775,-3.4775,-3.4775,-3.4775,-3.4775,-3.4775,-3.4775,-3.4775,-3.4775,-3.4835,-3.4981,-3.4981,-3.5078,-3.5332,-3.5223,-3.4824,-3.3991,-3.3676,0.0,0.0,-3.2388,-3.2519,-3.2431,-3.2692,-3.281,-3.2593,-3.2723,-3.2896,-3.2896,-3.2896,-3.2939,-3.3068,-3.3124,-3.3124,-3.3124,-3.3124,-3.3124,-3.3124,-3.3124,-3.2842,-3.2277,-3.1712,-3.0913,-2.9744,-2.9318,-2.8973,-2.8657,-2.855,-2.851,-2.851,-2.851,-2.851,-2.851,-2.851,-2.851,-2.851,-2.851,-2.851,-2.851,-2.851,-2.8655,-2.8943,-2.9472,-3.0013,-3.0555,-3.1404,-3.1705,-3.1705,-3.1705,-3.1705,-3.1705,-2.8344,-2.8291,0.0,0.0,0.0,0.0,0.0,0.0,-2.8291,-2.8291,-2.8291,-2.8291,-2.8291,-2.8291,-2.8291,-2.8291,-2.8291,-2.8291,-2.8291,-2.8291,-2.8291,-2.8291,-2.8291,-2.8291,-2.8291,-2.8291,0.0,0.0,0.0,0.0,0.0,0.0,0.0,0.0,-3.4115,-3.4628,-3.4775,-3.4775,-3.4775,-3.4775,-3.4775,-3.4775,-3.4775,-3.4775,-3.4775,-3.4775,-3.4775,-3.4775,-3.4775,-3.4775,-3.4775,-3.4775,-3.4775,-3.4775,-3.4823,-3.5078,-3.5126,-3.5175,-3.5368,-3.5198,-3.4786,-3.4105,-3.3741,-3.3366,0.0,0.0,0.0,-3.2519,-3.2636,-3.2766,-3.2766,-3.2939,0.0,-3.3124,0.0,0.0,0.0,-3.3124,0.0,-3.3124,-3.3124,-3.3124,-3.3124,-3.3124,-3.2646,-3.1474,-3.1386,-3.0708,-2.9192,-2.9091,-2.8934,-2.851,-2.851,-2.851,-2.851,-2.851,-2.851,-2.851,-2.851,-2.851,-2.851,-2.851,-2.851,-2.851,-2.851,-2.851,-2.8546,-2.9076,-2.9556,-3.0037,-3.1139,-3.1621,-3.1705,-3.1705,-3.1705,-3.1705,-2.8291,-2.8291,-2.8291,0.0,0.0,0.0,0.0,0.0,-2.8291,-2.8291,-2.8291,-2.8291,-2.8291,-2.8291,-2.8291,-2.8291,-2.8291,-2.8291,-2.8291,-2.8291,-2.8291,-2.8291,-2.8291,-2.8291,-2.8291,-2.8291,-2.8291,0.0,0.0,0.0,0.0,0.0,0.0,0.0,-3.335,-3.3918,-3.4775,-3.4775,-3.4775,-3.4775,-3.4775,-3.4775,-3.4775,-3.4775,-3.4775,-3.4775,-3.4775,-3.4775,-3.4775,-3.4775,-3.4775,-3.4775,-3.4775,-3.4775,-3.4835,-3.4823,-3.4835,-3.4823,-3.4884,-3.4535,-3.4041,-3.373,-3.346,-3.3125,-3.2773,0.0,-3.3038,-3.3038,0.0,-3.3068,-3.3068,0.0,0.0,-3.3124,-3.3124,-3.3124,-3.3124,-3.3124,-3.3124,-3.3124,-3.3124,-3.3124,-3.3124,-3.3124,-3.2646,-3.1474,-3.1386,-3.0708,-2.9192,-2.9091,-2.8934,-2.851,-2.851,-2.851,-2.851,-2.851,-2.851,-2.851,-2.851,-2.851,-2.851,-2.851,-2.851,-2.851,-2.851,-2.851,-2.8546,-2.9076,-2.9328,-2.9496,-3.0555,-3.1296,-3.1705,-3.1705,-3.1705,-3.1705,-2.8291,-2.8291,-2.8291,-2.8291,0.0,0.0,0.0,0.0,-2.8291,-2.8291,-2.8291,-2.8291,-2.8291,-2.8291,-2.8291,-2.8291,-2.8291,-2.8291,-2.8291,-2.8291,-2.8291,-2.8291,-2.8291,-2.8291,-2.8291,-2.8291,-2.8291,0.0,-2.8751,0.0,0.0,0.0,0.0,0.0,-3.2901,-3.3808,-3.4775,-3.4775,-3.4775,-3.4775,-3.4775,-3.4775,-3.4775,-3.4775,-3.4775,-3.4775,-3.4775,-3.4775,-3.4775,-3.4775,-3.4775,-3.4775,-3.4775,-3.4775,-3.4835,-3.4981,-3.4932,-3.4884,-3.5175,-3.4738,-3.4205,-3.4029,-3.367,-3.3306,-3.3021,-3.3025,-3.3124,-3.3124,0.0,0.0,0.0,0.0,0.0,0.0,-3.3124,-3.3124,0.0,0.0,-3.3124,-3.3124,0.0,0.0,-3.3124,-3.3124,-3.2646,-3.1474,-3.1386,-3.0708,-2.9192,-2.9091,-2.8934,-2.851,-2.851,-2.851,-2.851,-2.851,-2.851,-2.851,-2.851,-2.851,-2.851,-2.851,-2.851,-2.851,-2.851,-2.851,-2.8522,-2.8751,-2.9027,-2.934,-2.9785,-3.047,-3.1247,-3.1247,-3.144,-3.1705,-2.8291,-2.8291,-2.8291,-2.8291,0.0,0.0,0.0,-2.8291,-2.8291,-2.8291,-2.8291,-2.8291,-2.8291,-2.8291,-2.8291,-2.8291,-2.8291,-2.8291,-2.8291,-2.8291,-2.8291,-2.8291,-2.8291,-2.8291,-2.8291,-2.8291,-2.8291,0.0,0.0,0.0,0.0,0.0,0.0,0.0,-3.3151,-3.4066,-3.4775,-3.4775,-3.4775,-3.4775,-3.4775,-3.4775,-3.4775,-3.4775,-3.4775,-3.4775,-3.4775,-3.4775,-3.4775,-3.4775,-3.4775,0.0,-3.4775,-3.4775,-3.4823,-3.503,-3.4981,-3.4969,-3.5368,-3.4915,-3.4303,-3.4313,-3.3784,-3.3252,-3.3126,-3.3124,-3.3124,-3.3124,-3.3124,0.0,0.0,0.0,-3.3124,-3.3124,0.0,-3.3124,-3.3124,-3.3124,-3.3124,-3.3124,-3.3124,0.0,0.0,-3.3124,-3.2646,-3.1474,-3.1386,-3.0708,-2.9192,-2.9091,-2.8934,-2.851,-2.851,-2.851,-2.851,-2.851,-2.851,-2.851,-2.851,-2.851,-2.851,-2.851,-2.851,-2.851,-2.851,-2.851,-2.851,-2.851,-2.8739,-2.9088,-2.9088,-2.9641,-3.0458,-3.0645,-3.0807,-3.1055,-2.8291,-2.8291,-2.8291,-2.8291,-2.8291,-2.8291,0.0,-2.8291,-2.8291,-2.8291,-2.8291,-2.8291,-2.8291,-2.8291,-2.8291,-2.8291,-2.8291,-2.8291,-2.8291,-2.8291,-2.8291,-2.8291,-2.8291,-2.8291,-2.8291,-2.8291,-2.8291,0.0,0.0,0.0,0.0,0.0,0.0,0.0,-3.4262,-3.4775,-3.4775,-3.4775,-3.4775,-3.4775,-3.4775,-3.4775,-3.4775,-3.4775,-3.4775,-3.4775,-3.4775,-3.4775,0.0,-3.4775,-3.4775,0.0,0.0,0.0,-3.4775,-3.4823,-3.4981,-3.5175,-3.5223,-3.4646,-3.4068,-3.426,-3.3499,-3.2779,-3.3038,-3.3124,-3.3124,-3.3124,-3.3124,-3.3124,-3.3124,-3.3124,-3.3124,-3.3124,-3.3124,0.0,0.0,-3.3124,-3.3124,-3.3124,-3.3124,-3.3124,0.0,-3.3124,-3.2646,-3.1474,-3.1386,-3.0708,-2.9192,-2.9091,-2.8934,-2.851,-2.851,-2.851,-2.851,-2.851,-2.851,-2.851,-2.851,-2.851,-2.851,-2.851,-2.851,-2.851,-2.851,-2.851,-2.851,-2.851,-2.8522,-2.8534,-2.8534,-2.8871,-2.9412,-2.9917,-2.9797,-2.9376,-2.8291,-2.8291,-2.8291,-2.8291,-2.8291,-2.8291,-2.8291,-2.8291,-2.8291,-2.8291,-2.8291,-2.8291,-2.8291,-2.8291,-2.8291,-2.8291,-2.8291,-2.8291,-2.8291,-2.8291,-2.8291,-2.8291,-2.8291,-2.8291,-2.8291,-2.8291,-2.8291,-2.8291,0.0,0.0,0.0,0.0,0.0,0.0,0.0,-3.2376,-3.3758,-3.3758,-3.4164,-3.4775,-3.4775,-3.4775,-3.4775,-3.4775,-3.4775,-3.4775,-3.4775,-3.4775,0.0,-3.4775,-3.4775,-3.4775,-3.4775,-3.4932,-3.5078,-3.5078,-3.5271,0.0,0.0,0.0,-3.4173,-3.4038,0.0,-3.2982,-3.3081,-3.3124,-3.3124,-3.3124,-3.3124,-3.3124,-3.3124,-3.3124,-3.3124,-3.3124,-3.3124,-3.3124,0.0,-3.3124,-3.3124,-3.3124,-3.3124,-3.3124,-3.3124,0.0,0.0,-3.1449,-3.1072,-3.0346,-2.9167,-2.9091,-2.8934,-2.851,-2.851,-2.851,-2.851,-2.851,-2.851,-2.851,-2.851,-2.851,-2.851,-2.851,-2.851,-2.851,-2.851,-2.851,-2.851,-2.851,-2.851,-2.8474,-2.8126,-2.8102,-2.8318,-2.8847,-2.9148,-2.9285,-2.8291,-2.8291,-2.8291,-2.8291,-2.8291,-2.8291,-2.8291,-2.8291,-2.8291,-2.8291,-2.8291,-2.8291,-2.8291,-2.8291,-2.8291,-2.8291,-2.8291,-2.8291,-2.8291,-2.8291,-2.8291,-2.8291,-2.8291,-2.8291,-2.8291,-2.8291,-2.8291,-2.8291,-2.8291,-2.8291,0.0,0.0,0.0,0.0,0.0,-3.1513,-3.3201,-3.3201,-3.3808,-3.4775,-3.4775,-3.4775,-3.4775,-3.4775,-3.4775,-3.4775,0.0,-3.4775,-3.4775,-3.4775,-3.4872,-3.492,-3.492,-3.5126,-3.532,-3.532,-3.539,-3.5406,-3.5248,-3.4682,0.0,-3.3941,-3.3483,0.0,-3.3124,-3.3124,-3.3124,-3.3124,-3.3124,-3.3124,-3.3124,-3.3124,-3.3124,-3.3124,-3.3124,-3.3124,0.0,-3.3124,-3.3124,-3.3124,-3.3124,-3.3124,-3.3124,-3.2554,-3.1989,-3.1436,-3.0909,-3.0159,-2.9155,0.0,-2.8934,-2.851,-2.851,-2.851,-2.851,-2.851,-2.851,-2.851,-2.851,-2.851,-2.851,-2.851,-2.851,-2.851,-2.851,-2.851,-2.851,-2.851,-2.851,-2.8474,-2.8138,-2.7885,-2.7702,-2.7858,-2.8081,-2.8246,-2.8291,-2.8291,-2.8291,-2.8291,-2.8291,-2.8291,-2.8291,-2.8291,-2.8291,-2.8291,-2.8291,-2.8291,-2.8291,-2.8291,-2.8291,-2.8291,-2.8291,-2.8291,-2.8291,-2.8291,-2.8291,-2.8291,-2.8291,-2.8291,-2.8291,-2.8291,-2.8291,-2.8291,-2.8291,0.0,0.0,0.0,0.0,0.0,-3.0959,-3.2083,-3.3101,-3.3101,-3.3758,-3.4775,-3.4775,-3.4775,-3.4775,-3.4775,-3.4775,-3.4775,-3.4775,-3.4775,-3.4775,-3.4835,-3.4981,-3.5223,-3.5223,-3.5416,-3.562,-3.562,-3.5429,-3.5195,-3.5158,-3.4545,-3.3884,-3.3872,-3.347,0.0,0.0,0.0,-3.3124,-3.3124,-3.3124,-3.3124,-3.3124,-3.3124,-3.3124,-3.3124,-3.3124,-3.3124,-3.3124,-3.3124,-3.3124,-3.3124,-3.3124,-3.3124,-3.3124,-3.2528,-3.1951,-3.1436,-3.0884,-3.0134,-2.9155,-2.9091,-2.8934,-2.851,-2.851,-2.851,-2.851,-2.851,-2.851,-2.851,-2.851,-2.851,-2.851,-2.851,-2.851,-2.851,-2.851,-2.851,-2.851,-2.851,-2.851,-2.851,-2.8474,-2.8138,-2.7546,-2.7042,-2.6661,-2.6335,-2.8291,-2.8291,-2.8291,-2.8291,-2.8291,-2.8291,-2.8291,-2.8291,-2.8291,-2.8291,-2.8291,-2.8291,-2.8291,-2.8291,-2.8291,-2.8291,-2.8291,-2.8291,-2.8291,-2.8291,-2.8291,-2.8291,-2.8291,-2.8291,-2.8291,-2.8291,-2.8291,-2.8291,-2.8291,0.0,-2.8291,0.0,0.0,0.0,0.0,-3.0193,-3.2033,-3.2033,-3.3101,-3.4775,-3.4775,-3.4775,-3.4775,0.0,-3.4775,-3.4775,-3.4775,-3.4775,-3.4835,-3.503,-3.5126,-3.5223,-3.5416,-3.5668,-3.592,-3.592,-3.5665,-3.5328,-3.4961,-3.4379,-3.3796,-3.3382,-3.3181,-3.3124,0.0,0.0,0.0,0.0,0.0,0.0,0.0,-3.3124,-3.3124,-3.3124,-3.3124,-3.3124,-3.3124,-3.3124,-3.3124,-3.3124,-3.3124,-3.3124,-3.3124,-3.2177,-3.1549,-3.1399,-3.0532,-2.9735,-2.9143,0.0,0.0,-2.851,-2.851,-2.851,-2.851,-2.851,-2.851,-2.851,-2.851,-2.851,-2.851,-2.851,-2.851,-2.851,-2.851,-2.851,-2.851,-2.851,-2.851,-2.8474,-2.8077,-2.7344,-2.6502,-2.637,-2.6082,-2.5823,-2.8291,-2.8291,-2.8291,-2.8291,-2.8291,-2.8291,-2.8291,-2.8291,-2.8291,-2.8291,-2.8291,-2.8291,-2.8291,-2.8291,-2.8291,-2.8291,-2.8291,-2.8291,-2.8291,-2.8291,-2.8291,-2.8291,-2.8291,-2.8291,-2.8291,-2.8291,-2.8291,-2.8291,-2.8291,0.0,-2.8291,0.0,0.0,0.0,0.0,-2.9984,-3.1677,-3.2588,-3.3709,-3.4775,-3.4775,-3.4775,0.0,-3.4775,-3.4884,-3.4981,-3.4981,-3.4981,-3.4981,-3.5126,-3.5368,-3.5572,-3.5716,-3.5955,-3.6193,-3.6193,-3.5665,-3.5069,-3.4756,-3.4148,-3.347,-3.3199,-3.3124,-3.3124,-3.3124,-3.3124,-3.3124,0.0,-3.3124,-3.3124,0.0,0.0,-3.3124,-3.3124,-3.3124,-3.3124,-3.3124,-3.3124,-3.3124,-3.3124,-3.3124,-3.3124,-3.3124,-3.2051,-3.1386,-3.1386,-3.0394,0.0,0.0,0.0,0.0,-2.851,-2.851,-2.851,-2.851,-2.851,-2.851,-2.851,-2.851,-2.851,-2.851,-2.851,-2.851,-2.851,-2.851,-2.851,-2.851,-2.851,-2.851,-2.8426,-2.763,-2.697,-2.6406,-2.5997,-2.5826,-2.5783,-2.8291,-2.8291,-2.8291,-2.8291,-2.8291,-2.8291,-2.8291,-2.8291,-2.8291,-2.8291,-2.8291,-2.8291,-2.8291,-2.8291,-2.8291,-2.8291,-2.8291,-2.8291,-2.8291,-2.8291,-2.8291,-2.8291,-2.8291,-2.8291,-2.8291,-2.8291,-2.8291,-2.8291,-2.8291,0.0,0.0,0.0,0.0,0.0,0.0,-3.0598,-3.1931,-3.3967,-3.4835,-3.4775,-3.4775,-3.4823,-3.4823,-3.4823,-3.503,-3.5271,-3.5271,-3.5271,-3.5271,-3.5271,-3.562,-3.6015,-3.6063,-3.6181,-3.6392,-3.6329,-3.5529,-3.4655,-3.4625,-3.3859,-3.3124,-3.3124,-3.3124,-3.3124,-3.3124,-3.3124,-3.3124,-3.3124,-3.3124,-3.3124,0.0,0.0,-3.3124,-3.3124,-3.3124,-3.3124,-3.3124,-3.3124,-3.3124,-3.3124,-3.3124,0.0,-3.2968,-3.2014,-3.1386,-3.1386,-3.0394,0.0,0.0,0.0,0.0,-2.851,-2.851,-2.851,-2.851,0.0,-2.851,-2.851,-2.851,-2.851,-2.851,-2.851,-2.851,-2.851,-2.851,-2.851,-2.851,-2.851,-2.851,-2.8402,-2.7306,-2.6934,-2.6899,-2.6045,-2.5905,-2.6204,-2.8291,-2.8291,-2.8291,-2.8291,-2.8291,-2.8291,-2.8291,-2.8291,-2.8291,-2.8291,-2.8291,-2.8291,-2.8291,-2.8291,-2.8291,-2.8291,-2.8291,-2.8291,-2.8291,-2.8291,-2.8291,-2.8291,-2.8291,-2.8291,-2.8291,-2.8291,-2.8291,-2.8291,-2.8291,-2.8291,0.0,0.0,0.0,0.0,-2.9418,-3.1,-3.3001,-3.4519,0.0,-3.4775,-3.4775,-3.492,-3.5126,-3.5126,-3.5271,-3.5524,-3.5524,-3.5524,-3.5572,-3.5764,-3.592,-3.6063,-3.6275,-3.6358,-3.6317,-3.5818,-3.5182,-3.4625,-3.4173,-3.3571,-3.3124,-3.3124,-3.3124,-3.3124,-3.3124,-3.3124,-3.3124,-3.3124,-3.3124,-3.3124,-3.3124,0.0,0.0,-3.3124,-3.3124,-3.3124,-3.3124,-3.3124,-3.3124,-3.3124,-3.3124,-3.288,-3.2416,-3.1775,-3.1386,-3.1386,-3.0394,0.0,0.0,0.0,0.0,0.0,-2.851,0.0,0.0,0.0,-2.851,-2.851,-2.851,-2.851,-2.851,-2.851,-2.851,-2.851,-2.851,-2.851,-2.851,-2.851,-2.851,-2.8402,-2.7306,-2.7162,-2.749,-2.6749,-2.682,-2.7189,-2.8291,-2.8291,-2.8291,-2.8291,-2.8291,-2.8291,-2.8291,-2.8291,-2.8291,-2.8291,-2.8291,-2.8291,-2.8291,-2.8291,-2.8291,-2.8291,-2.8291,-2.8291,-2.8291,-2.8291,-2.8291,-2.8291,-2.8291,-2.8291,-2.8291,-2.8291,-2.8291,-2.8291,-2.8291,-2.8344,0.0,0.0,0.0,-2.9608,-3.1286,-3.2928,-3.4507,0.0,0.0,-3.5223,-3.5223,-3.5271,-3.5416,-3.5416,-3.5572,-3.5812,-3.5812,-3.5908,-3.5991,-3.6003,-3.6098,-3.6228,-3.6358,-3.6169,-3.5893,-3.5583,-3.4906,-3.4236,-3.3972,-3.3495,-3.3124,-3.3124,-3.3124,-3.3124,-3.3124,-3.3124,-3.3124,-3.3124,-3.3124,-3.3124,-3.3124,-3.3124,0.0,0.0,-3.3124,-3.3124,-3.3124,-3.3124,-3.3124,-3.3124,-3.3124,-3.2855,-3.2277,-3.1712,-3.1273,-3.1009,-3.0244,0.0,0.0,0.0,0.0,0.0,0.0,0.0,0.0,0.0,0.0,-2.851,-2.851,-2.851,-2.851,-2.851,-2.851,-2.851,-2.851,-2.851,-2.851,-2.851,-2.851,-2.8426,-2.7618,-2.7527,-2.7813,-2.7311,-2.7545,-2.8126,-2.8291,-2.8291,-2.8291,-2.8291,-2.8291,-2.8291,-2.8291,-2.8291,-2.8291,-2.8291,-2.8291,-2.8291,-2.8291,-2.8291,-2.8291,-2.8291,-2.8291,-2.8291,-2.8291,-2.8291,-2.8291,-2.8291,-2.8291,-2.8291,-2.8291,-2.8291,-2.8291,-2.8291,-2.8291,0.0,0.0,0.0,0.0,0.0,0.0,0.0,0.0,0.0,-3.5668,-3.562,-3.562,-3.562,-3.5668,-3.5668,-3.586,-3.6098,-3.6098,-3.6228,-3.6358,-3.6146,-3.6228,-3.6405,-3.6405,-3.5994,-3.547,-3.5357,-3.4675,-3.3872,-3.3759,-3.3407,-3.3124,-3.3124,-3.3124,-3.3124,-3.3124,-3.3124,-3.3124,-3.3124,-3.3124,-3.3124,-3.3124,-3.3124,0.0,0.0,0.0,-3.3124,-3.3124,-3.3124,-3.3124,-3.3124,-3.3011,-3.2667,-3.2089,-3.1537,-3.1009,-3.0482,-3.0043,0.0,-2.9209,0.0,0.0,0.0,0.0,-2.855,-2.851,0.0,-2.851,-2.851,-2.851,-2.851,-2.851,-2.851,-2.851,-2.851,-2.851,-2.851,-2.851,-2.851,-2.851,-2.8462,-2.796,-2.7932,-2.8149,-2.7852,-2.8225,-2.8886,-2.8291,-2.8291,-2.8291,-2.8291,-2.8291,-2.8291,-2.8291,-2.8291,-2.8291,-2.8291,-2.8291,-2.8291,-2.8291,-2.8291,-2.8291,-2.8291,-2.8291,-2.8291,-2.8291,-2.8291,-2.8291,-2.8291,-2.8291,-2.8291,-2.8291,-2.8291,-2.8291,-2.8291,-2.8291,-2.9056,0.0,0.0,0.0,0.0,0.0,0.0,0.0,-3.5872,-3.5812,-3.562,-3.562,-3.5764,-3.5968,-3.5968,-3.6146,-3.6358,-3.6358,-3.6358,-3.6405,-3.6358,-3.6358,-3.6405,-3.6405,-3.5994,-3.5395,-3.4906,-3.4374,-3.3796,-3.3294,-3.3162,-3.3124,-3.3124,-3.3124,-3.3124,-3.3124,-3.3124,-3.3124,-3.3124,-3.3124,-3.3124,-3.3124,-3.3124,-3.3124,0.0,0.0,-3.3124,-3.3124,-3.3124,-3.3124,-3.3124,-3.2616,-3.2077,-3.1524,-3.0997,-3.0457,-2.9917,-2.9829,0.0,0.0,0.0,0.0,-2.8803,0.0,-2.8685,-2.851,-2.851,-2.851,-2.851,-2.851,-2.851,-2.851,-2.851,-2.851,-2.851,-2.851,-2.851,-2.851,-2.851,-2.851,-2.8462,-2.8104,-2.8293,-2.8697,-2.8608,-2.8897,-2.9356,-2.8291,-2.8291,-2.8291,-2.8291,-2.8291,-2.8291,-2.8291,-2.8291,-2.8291,-2.8291,-2.8291,-2.8291,-2.8291,-2.8291,-2.8291,-2.8291,-2.8291,-2.8291,-2.8291,-2.8291,-2.8291,-2.8291,-2.8291,-2.8291,-2.8291,-2.8291,-2.8291,-2.8291,-2.8461,-2.8957,0.0,0.0,0.0,0.0,0.0,-3.5187,-3.6086,-3.6181,-3.6181,-3.6086,-3.6086,-3.6133,-3.6228,-3.6228,-3.6323,-3.6405,-3.6405,-3.6405,-3.6355,-3.5981,-3.6094,-3.6355,-3.5968,-3.5445,-3.4893,-3.4399,-3.3847,-3.3357,-3.3174,-3.3124,-3.3124,-3.3124,-3.3124,-3.3124,-3.3124,-3.3124,-3.3124,-3.3124,-3.3124,-3.3124,-3.3124,-3.3124,-3.3124,-3.3124,0.0,0.0,-3.3124,-3.3124,-3.3124,-3.3124,-3.2566,-3.2001,-3.1449,-3.0922,-3.0382,-2.9829,-2.9792,0.0,0.0,0.0,0.0,-2.8791,0.0,-2.8578,-2.851,-2.851,-2.851,-2.851,-2.851,-2.851,-2.851,-2.851,-2.851,-2.851,-2.851,-2.851,-2.851,-2.851,-2.851,-2.8486,-2.8494,-2.8687,-2.8976,-2.9066,-2.9334,-2.965,-2.8291,-2.8291,-2.8291,-2.8291,-2.8291,-2.8291,-2.8291,-2.8291,-2.8291,-2.8291,-2.8291,-2.8291,-2.8291,-2.8291,-2.8291,-2.8291,-2.8291,-2.8291,-2.8291,-2.8291,-2.8291,-2.8291,-2.8291,-2.8291,-2.8291,-2.8291,-2.8344,-2.8408,-2.8631,-2.9106,0.0,0.0,0.0,0.0,-3.4775,-3.5415,-3.6405,-3.6405,-3.6405,-3.6405,-3.6405,-3.6405,-3.6405,-3.6405,-3.6405,-3.6405,-3.6405,-3.6304,-3.6056,-3.5621,-3.5692,-3.5818,-3.5382,-3.4881,-3.4399,-3.401,-3.3508,-3.3124,-3.3124,-3.3124,-3.3124,-3.3124,-3.3124,-3.3124,-3.3124,-3.3124,-3.3124,-3.3124,-3.3124,-3.3124,-3.3124,-3.3124,-3.3124,-3.3124,0.0,0.0,-3.3124,-3.3124,-3.3124,-3.3124,-3.2416,-3.1813,-3.1436,-3.0771,-3.0218,-2.9829,0.0,0.0,0.0,0.0,0.0,0.0,0.0,0.0,0.0,-2.8578,-2.8538,-2.851,-2.851,-2.851,-2.851,-2.851,-2.851,-2.851,-2.851,-2.851,-2.851,-2.851,-2.851,-2.851,-2.8776,-2.8961,-2.9131,-2.9392,-2.965,-2.9792,-2.8291,-2.8291,-2.8291,-2.8291,-2.8291,-2.8291,-2.8291,-2.8291,-2.8291,-2.8291,-2.8291,-2.8291,-2.8291,-2.8291,-2.8291,-2.8291,-2.8291,-2.8291,-2.8291,-2.8291,-2.8291,-2.8291,-2.8291,-2.8291,-2.8291,-2.8291,-2.8408,-2.8684,-2.8684,0.0,-3.1582,0.0,-3.4036,-3.4775,-3.4775,-3.5415,-3.6405,-3.6405,-3.6405,-3.6405,-3.6405,-3.6405,-3.6405,-3.6405,-3.6405,-3.6405,-3.6405,-3.6019,-3.5508,-3.5495,-3.5144,-3.4738,-3.4726,-3.4349,-3.3909,-3.3897,-3.3508,-3.3124,-3.3124,-3.3124,-3.3124,-3.3124,-3.3124,-3.3124,-3.3124,-3.3124,-3.3124,-3.3124,-3.3124,-3.3124,-3.3124,-3.3124,-3.3124,-3.3124,0.0,0.0,0.0,-3.3124,-3.3124,-3.3124,-3.2077,-3.1399,-3.1386,-3.0432,-2.9804,-2.9792,0.0,0.0,0.0,0.0,0.0,-2.9419,-2.938,0.0,-2.8791,-2.8791,-2.8685,-2.851,-2.851,-2.851,-2.851,-2.851,-2.851,-2.851,-2.851,-2.851,-2.851,-2.851,-2.851,-2.855,-2.8934,-2.9091,-2.917,-2.9624,-2.9792,-2.9792,-2.8291,-2.8291,-2.8291,-2.8291,-2.8291,-2.8291,-2.8291,-2.8291,-2.8291,-2.8291,-2.8291,-2.8291,-2.8291,-2.8291,-2.8291,0.0,-2.8291,-2.8291,0.0,-2.8291,-2.8291,-2.8291,-2.8291,-2.8291,-2.8291,-2.8291,-2.8344,-2.8408,0.0,0.0,0.0,-3.0967,-3.1687,-3.2627,-3.3388,-3.4288,-3.5367,-3.6108,-3.6405,-3.6405,-3.6405,-3.6405,-3.6405,-3.6405,-3.6405,-3.6367,-3.5931,-3.5646,-3.5382,-3.4675,-3.4311,-3.4098,-3.3721,-3.3734,-3.3822,-3.3445,-3.3219,-3.3124,-3.3124,-3.3124,-3.3124,-3.3124,-3.3124,-3.3124,-3.3124,-3.3124,-3.3124,-3.3124,-3.3124,-3.3124,-3.3124,-3.3124,-3.3124,-3.3124,-3.3124,0.0,-3.3124,-3.3124,-3.3124,-3.3124,-3.2077,-3.1386,-3.1386,-3.0419,0.0,0.0,0.0,0.0,0.0,0.0,0.0,0.0,-2.9275,0.0,-2.8791,-2.8791,-2.8685,-2.851,-2.851,-2.851,-2.851,-2.851,-2.851,-2.851,-2.851,-2.851,-2.851,-2.851,-2.8578,-2.8724,-2.9013,-2.9157,-2.9353,-2.9663,-2.9792,-2.9792,-2.8291,-2.8291,-2.8291,-2.8291,-2.8291,-2.8291,-2.8291,-2.8291,-2.8291,-2.8291,-2.8291,-2.8291,-2.8291,-2.8291,0.0,-2.8291,-2.8291,-2.8291,-2.8291,-2.8291,-2.8291,-2.8291,-2.8291,-2.8291,-2.8291,-2.8291,0.0,-2.8451,-2.8877,-2.929,-2.9669,-2.9669,-3.0214,-3.1308,-3.2426,-3.3537,-3.4727,-3.5775,-3.6323,-3.6405,-3.6405,-3.6405,-3.6392,-3.6132,-3.6056,-3.5981,-3.5382,-3.5056,-3.4781,-3.4135,-3.3759,-3.3533,-3.3224,-3.3319,-3.352,-3.3224,-3.3124,-3.3124,-3.3124,-3.3124,-3.3124,-3.3124,-3.3124,-3.3124,-3.3124,-3.3124,-3.3124,-3.3124,-3.3124,-3.3124,-3.3124,-3.3124,-3.3124,-3.3124,-3.3124,-3.3124,-3.3124,-3.3124,-3.3124,-3.3124,-3.2077,0.0,0.0,-3.0419,-2.9792,0.0,0.0,0.0,0.0,0.0,0.0,-2.956,-2.9417,0.0,-2.9028,-2.8961,-2.8803,-2.8618,-2.855,-2.851,-2.851,-2.851,-2.851,-2.851,-2.851,-2.855,-2.8618,-2.8618,-2.8724,-2.8922,-2.9118,-2.9275,-2.9419,-2.9702,-2.9792,-2.9792,-2.8291,-2.8291,-2.8291,0.0,-2.8291,0.0,-2.8291,-2.8291,-2.8291,-2.8291,-2.8291,-2.8291,-2.8291,-2.8291,-2.8291,-2.8291,0.0,0.0,0.0,-2.8291,-2.8291,-2.8291,-2.8291,-2.8291,-2.8291,-2.8291,-2.8451,-2.8684,-2.893,-2.9079,-2.9079,-2.9079,-2.967,-3.0773,-3.1898,-3.3178,-3.4483,-3.5548,-3.6193,-3.6405,-3.6405,-3.638,-3.6304,-3.5683,-3.547,-3.537,-3.4818,-3.4336,-3.3884,-3.3859,-3.3508,-3.3124,-3.3124,-3.3124,-3.3124,-3.3124,-3.3124,-3.3124,-3.3124,-3.3124,-3.3124,-3.3124,-3.3124,-3.3124,-3.3124,-3.3124,-3.3124,-3.3124,-3.3124,-3.3124,-3.3124,-3.3124,-3.3124,-3.3124,-3.3124,-3.3124,-3.3124,-3.3124,-3.3056,-3.3018,0.0,0.0,-3.1336,-3.0394,-2.9792,0.0,0.0,0.0,0.0,0.0,-2.9792,-2.9792,-2.9792,-2.965,-2.9419,-2.9197,-2.9,-2.8803,-2.8578,-2.851,-2.851,-2.851,-2.851,-2.851,-2.851,-2.8618,-2.8843,-2.8843,-2.8922,-2.9131,-2.9341,-2.9419,-2.947,-2.9702,-2.9792,-2.9792,0.0,0.0,-2.8291,-2.8291,-2.8291,-2.8291,-2.8291,-2.8291,-2.8291,-2.8291,-2.8291,-2.8291,-2.8291,-2.8291,-2.8291,-2.8291,-2.8291,-2.8291,-2.8291,-2.8291,-2.8291,-2.8291,-2.8291,-2.8291,-2.8291,-2.8291,-2.8451,-2.8684,-2.8781,-2.8877,-2.9079,-2.9079,-2.9691,-3.0815,-3.2112,-3.3315,-3.4483,-3.5775,-3.6323,-3.6405,-3.6405,-3.6107,-3.5683,-3.5545,-3.5245,-3.4806,-3.4299,-3.401,-3.3834,-3.342,-3.3224,-3.3124,-3.3124,-3.3124,-3.3124,-3.3124,-3.3124,-3.3124,-3.3124,-3.3124,-3.3124,-3.3124,-3.3124,-3.3124,-3.3124,-3.3124,-3.3124,-3.3124,-3.3124,-3.3124,-3.3124,-3.3124,-3.3124,-3.3124,-3.3124,-3.3124,-3.3124,-3.3124,-3.2918,0.0,-3.18,-3.1235,-3.0834,-3.0193,-2.9792,0.0,0.0,0.0,0.0,-2.9792,-2.9792,-2.9792,-2.9792,-2.965,-2.9419,-2.9197,-2.8934,-2.8578,-2.851,-2.851,-2.851,-2.851,-2.8578,-2.8724,-2.8724,-2.8843,-2.9013,-2.9013,-2.9157,-2.9341,-2.938,-2.9521,-2.9702,-2.9792,-2.9792,-2.9792,-2.8291,-2.8291,-2.8291,-2.8291,-2.8291,-2.8291,-2.8291,-2.8291,-2.8291,-2.8291,-2.8291,-2.8291,-2.8291,-2.8291,-2.8291,-2.8291,-2.8291,-2.8291,-2.8291,-2.8291,-2.8291,-2.8291,-2.8291,-2.8291,-2.8291,-2.8291,-2.8344,-2.8514,-2.8514,-2.8621,-2.8761,-2.9375,-2.9984,-3.065,-3.2516,-3.3723,-3.4483,-3.5679,-3.6125,-3.5994,-3.5994,-3.5667,-3.5094,-3.4843,-3.4613,-3.4274,-3.3721,-3.352,-3.3483,-3.3224,-3.3124,-3.3124,-3.3124,-3.3124,-3.3124,-3.3124,-3.3124,-3.3124,-3.3124,-3.3124,-3.3124,-3.3124,-3.3124,-3.3124,-3.3124,-3.3124,-3.3124,-3.3124,-3.3124,-3.3124,-3.3124,-3.3124,-3.3124,-3.3124,-3.3124,-3.3124,-3.3124,-3.3124,-3.2867,-3.2277,-3.1725,-3.1185,-3.067,-3.0118,-2.9792,-2.9792,-2.9792,0.0,-2.9792,-2.9792,-2.9792,-2.9792,-2.9792,-2.974,-2.956,-2.9248,-2.8895,-2.851,-2.851,-2.851,-2.851,-2.8618,-2.8685,-2.8803,-2.8882,-2.904,-2.9236,-2.9236,-2.9353,-2.956,-2.956,-2.965,-2.9792,-2.9792,-2.9792,-2.9792,-2.8291,-2.8291,-2.8291,-2.8291,-2.8291,-2.8291,-2.8291,-2.8291,-2.8291,-2.8291,-2.8291,-2.8291,-2.8291,-2.8291,-2.8291,-2.8291,-2.8291,-2.8291,-2.8291,-2.8291,-2.8291,-2.8291,-2.8291,-2.8291,-2.8291,-2.8291,-2.8291,-2.8291,-2.8291,-2.8291,-2.8344,-2.946,-3.0172,-3.0577,-3.2605,-3.3883,-3.4629,-3.5366,-3.5605,-3.5495,-3.5408,-3.5044,-3.455,-3.4073,-3.3847,-3.3709,-3.3244,-3.3124,-3.3124,-3.3124,-3.3124,-3.3124,-3.3124,-3.3124,-3.3124,-3.3124,-3.3124,-3.3124,-3.3124,-3.3124,-3.3124,-3.3124,-3.3124,-3.3124,-3.3124,-3.3124,-3.3124,-3.3124,-3.3124,-3.3124,-3.3124,-3.3124,-3.3124,-3.3124,-3.3124,-3.3124,-3.3124,0.0,-3.283,-3.2164,-3.1675,-3.1148,-3.0557,-3.0068,-2.9792,-2.9792,-2.9792,-2.9792,-2.9792,-2.9792,-2.9792,-2.9792,-2.9792,-2.9792,-2.974,-2.93,-2.8895,-2.855,-2.851,-2.851,-2.851,-2.8724,-2.8843,-2.8882,-2.9052,-2.9287,-2.947,-2.947,-2.9599,-2.9792,-2.9792,-2.9792,-2.9792,-2.9792,-2.9792,-2.9792,-2.8291,-2.8291,-2.8291,-2.8291,-2.8291,-2.8291,-2.8291,-2.8291,-2.8291,-2.8291,-2.8291,-2.8291,-2.8291,-2.8291,-2.8291,-2.8291,-2.8291,-2.8291,-2.8291,-2.8291,-2.8291,-2.8291,-2.8291,-2.8291,-2.8291,-2.8291,-2.8291,-2.8291,-2.8291,-2.8291,-2.8291,-2.8495,-2.9628,-3.137,-3.1286,-3.2805,-3.5379,-3.4605,-3.4752,-3.5458,-3.4994,-3.4512,-3.4022,-3.3935,-3.3608,-3.3194,-3.3106,-3.3124,-3.3124,-3.3124,-3.3124,-3.3124,-3.3124,-3.3124,-3.3124,-3.3124,-3.3124,-3.3124,-3.3124,-3.3124,-3.3124,-3.3124,-3.3124,-3.3124,-3.3124,-3.3124,-3.3124,-3.3124,-3.3124,-3.3124,-3.3124,-3.3124,-3.3124,-3.3124,-3.3124,-3.3124,-3.3124,0.0,-3.2692,-3.1637,-3.1436,-3.0997,-3.0018,-2.9842,-2.9792,-2.9792,-2.9792,-2.9792,-2.9792,-2.9792,-2.9792,-2.9792,-2.9792,-2.9689,-2.947,-2.9209,-2.8961,-2.8764,-2.8578,-2.851,-2.851,-2.8724,-2.8882,-2.9052,-2.9275,-2.9521,-2.974,-2.974,-2.9753,-2.9792,-2.9792,-2.9792,-2.9792,-2.9792,-2.9792,-2.9792,-2.8291,-2.8291,-2.8291,-2.8291,-2.8291,-2.8291,-2.8291,-2.8291,-2.8291,-2.8291,-2.8291,-2.8291,-2.8291,-2.8291,-2.8291,-2.8291,-2.8291,-2.8291,-2.8291,-2.8291,-2.8291,-2.8291,-2.8291,-2.8291,-2.8291,-2.8291,-2.8291,-2.8291,-2.8291,-2.8291,-2.8291,-2.9049,-2.9922,-3.0949,-3.1542,-3.2807,-3.4438,-3.4137,-3.4242,-3.4638,-3.4387,-3.3947,-3.3458,-3.3458,-3.3307,-3.3124,-3.3124,-3.3124,-3.3124,-3.3124,-3.3124,-3.3124,-3.3124,-3.3124,-3.3124,-3.3124,-3.3124,-3.3124,-3.3124,-3.3124,-3.3124,-3.3124,-3.3124,-3.3124,-3.3124,-3.3124,-3.3124,-3.3124,-3.3124,-3.3124,-3.3124,-3.3124,-3.3124,-3.3124,-3.3124,0.0,0.0,-3.2805,-3.2303,-3.1486,-3.1135,-3.0658,-2.9867,-2.9792,-2.9792,-2.9792,-2.9792,-2.9792,-2.9792,-2.9792,-2.9792,-2.9792,-2.9792,-2.965,-2.9419,-2.9197,-2.9013,-2.8791,-2.8724,-2.8657,-2.8657,-2.9,-2.9184,-2.9275,-2.9521,-2.9702,-2.9792,-2.9792,-2.9792,-2.9792,-2.9792,-2.9792,-2.9792,-2.9792,-2.9792,-2.9792,-2.8291,-2.8291,-2.8291,-2.8291,-2.8291,-2.8291,-2.8291,-2.8291,-2.8291,-2.8291,-2.8291,-2.8291,-2.8291,-2.8291,-2.8291,-2.8291,-2.8291,-2.8291,-2.8291,-2.8291,-2.8291,-2.8291,-2.8291,-2.8291,-2.8291,-2.8291,-2.8291,-2.8291,-2.8291,-2.8291,-2.8344,-2.9355,-2.9964,-3.0266,-3.1331,-3.227,-3.3062,-3.2995,-3.3152,-3.355,-3.3438,-3.3271,-3.3124,-3.3124,-3.3124,-3.3124,-3.3124,-3.3124,-3.3124,-3.3124,-3.3124,-3.3124,-3.3124,-3.3124,-3.3124,-3.3124,-3.3124,-3.3124,-3.3124,-3.3124,-3.3124,-3.3124,-3.3124,-3.3124,-3.3124,-3.3124,-3.3124,-3.3124,-3.3124,-3.3124,-3.3124,-3.3124,-3.3124,-3.3124,0.0,0.0,0.0,-3.2491,-3.1964,-3.1286,-3.0859,-3.0407,-2.9842,-2.9792,-2.9792,-2.9792,-2.9792,-2.9792,-2.9792,-2.9792,-2.9792,-2.9792,-2.9792,-2.9702,-2.9509,-2.9287,-2.9079,-2.8949,-2.8882,-2.8882,-2.8882,-2.9223,-2.9419,-2.9419,-2.9702,-2.9792,-2.9792,-2.9792,-2.9792,-2.9792,-2.9792,-2.9792,-2.9792,-2.9792,-2.9792,-2.9792,-2.8291,-2.8291,-2.8291,-2.8291,-2.8291,-2.8291,-2.8291,-2.8291,-2.8291,-2.8291,-2.8291,-2.8291,-2.8291,-2.8291,-2.8291,-2.8291,-2.8291,-2.8291,-2.8291,-2.8291,-2.8291,-2.8291,-2.8291,-2.8291,-2.8291,-2.8291,-2.8291,-2.8291,-2.8291,-2.8291,-2.8291,-2.8398,-2.9006,-2.9901,-2.9157,-2.9942,-3.1754,-3.0349,-3.0799,-3.2469,-3.1966,-3.2288,-3.3124,-3.3124,-3.3124,-3.3124,-3.3124,-3.3124,-3.3124,-3.3124,-3.3124,-3.3124,-3.3124,-3.3124,-3.3124,-3.3124,-3.3124,-3.3124,-3.3124,-3.3124,-3.3124,-3.3124,-3.3124,-3.3124,-3.3124,-3.3124,-3.3124,-3.3124,-3.3124,-3.3124,-3.3124,-3.3124,-3.3124,-3.3124,0.0,0.0,-3.2353,-3.224,-3.1825,-3.0796,-3.0633,-3.0407,-2.9842,-2.9792,-2.9792,-2.9792,-2.9792,-2.9792,-2.9792,-2.9792,-2.9792,-2.9792,-2.9792,-2.9792,-2.9792,-2.9509,-2.938,-2.9341,-2.917,-2.9091,-2.9091,-2.9314,-2.9419,-2.9419,-2.9702,-2.9792,-2.9792,-2.9792,-2.9792,-2.9792,-2.9792,-2.9792,-2.9792,-2.9792,-2.9792,-2.9792,-2.8291,-2.8291,-2.8291,-2.8291,-2.8291,-2.8291,-2.8291,-2.8291,-2.8291,-2.8291,-2.8291,-2.8291,-2.8291,-2.8291,-2.8291,-2.8291,-2.8291,-2.8291,-2.8291,-2.8291,-2.8291,-2.8291,-2.8291,-2.8291,-2.8291,-2.8291,-2.8291,-2.8291,-2.8291,-2.8291,-2.8291,-2.8291,-2.8357,-2.8553,-2.8341,-2.8837,-2.9769,-2.9336,-3.0223,-3.1889,-3.1697,-3.222,-3.3124,-3.3124,-3.3124,-3.3124,-3.3124,-3.3124,-3.3124,-3.3124,-3.3124,-3.3124,-3.3124,-3.3124,-3.3124,-3.3124,-3.3124,-3.3124,-3.3124,-3.3124,-3.3124,-3.3124,-3.3124,-3.3124,-3.3124,-3.3124,-3.3124,-3.3124,-3.3124,-3.3124,-3.3124,-3.3124,-3.2998,-3.2604,0.0,-3.2353,-3.1775,-3.1424,-3.1072,-3.067,-3.0319,-3.0018,-2.9817,-2.9792,-2.9792,-2.9792,-2.9792,-2.9792,-2.9792,-2.9792,-2.9792,-2.9792,-2.9792,-2.9792,-2.9792,-2.9509,-2.9419,-2.9419,-2.9302,-2.9275,-2.9275,-2.9521,-2.965,-2.965,-2.9753,-2.9792,-2.9792,-2.9792,-2.9792,-2.9792,-2.9792,-2.9792,-2.9792,-2.9792,-2.9792,-2.9792,-2.8291,-2.8291,-2.8291,-2.8291,-2.8291,-2.8291,-2.8291,-2.8291,-2.8291,-2.8291,-2.8291,-2.8291,-2.8291,-2.8291,-2.8291,-2.8291,-2.8291,-2.8291,-2.8291,-2.8291,-2.8291,-2.8291,-2.8291,-2.8291,-2.8291,-2.8291,-2.8291,-2.8291,-2.8291,-2.8223,-2.8096,-2.8096,-2.7871,-2.7513,-2.7614,-2.7794,-2.8046,-2.8498,-2.9604,-3.1069,-3.1392,-3.2176,-3.3081,-3.2754,-3.2624,-3.2581,-3.2307,-3.2208,-3.2208,-3.2537,-3.2624,-3.2667,-3.2982,-3.3124,-3.3124,-3.3124,-3.3124,-3.3124,-3.3124,-3.3124,-3.3124,-3.3124,-3.3124,-3.3124,-3.3124,-3.3124,-3.3124,-3.3124,-3.3124,-3.3018,-3.283,-3.2805,-3.2616,-3.2039,-3.1951,-3.1763,-3.1223,-3.0834,-3.0557,-3.0382,-3.0018,-2.9792,-2.9792,-2.9792,-2.9792,-2.9792,-2.9792,-2.9792,-2.9792,-2.9792,-2.9792,-2.9792,-2.9792,-2.9792,-2.9792,-2.9611,-2.9521,-2.9521,-2.9521,-2.9521,-2.9509,-2.9702,-2.9792,-2.9792,-2.9792,-2.9792,-2.9792,-2.9792,-2.9792,-2.9792,-2.9792,-2.9792,-2.9792,-2.9792,-2.9792,-2.9792,-2.8291,-2.8291,-2.8291,-2.8291,-2.8291,-2.8291,-2.8291,-2.8291,-2.8291,-2.8291,-2.8291,-2.8291,-2.8291,-2.8291,-2.8291,-2.8291,-2.8291,-2.8291,-2.8291,-2.8291,-2.8291,-2.8291,-2.8291,-2.8291,-2.8291,-2.8291,-2.8291,-2.8291,-2.8291,-2.8066,-2.7708,-2.7708,-2.7432,-2.6992,-2.6853,-2.6745,-2.6745,-2.7608,-2.8656,-2.9852,-3.0878,-3.1977,-3.2982,-3.1989,-3.1581,-3.1492,-3.0531,-3.0215,-3.0351,-3.1303,-3.1581,-3.1757,-3.2754,-3.3081,-3.3081,-3.3081,-3.3081,-3.3081,-3.3124,-3.3124,-3.3124,-3.3124,-3.3124,-3.3124,-3.3124,-3.3124,-3.3124,-3.3124,-3.3124,-3.2893,-3.2315,-3.2215,-3.2026,-3.1474,-3.1386,-3.1198,-3.0683,-3.0608,-3.0407,-2.9854,-2.9792,-2.9792,-2.9792,-2.9792,-2.9792,-2.9792,-2.9792,-2.9792,-2.9792,-2.9792,-2.9792,-2.9792,-2.9792,-2.9792,-2.9792,-2.9792,-2.9792,-2.9792,-2.9792,-2.9792,-2.9792,-2.9792,-2.9792,-2.9792,-2.9792,-2.9792,-2.9792,-2.9792,-2.9792,-2.9792,-2.9792,-2.9792,-2.9792,-2.9792,-2.9792,-2.9792,-2.8291,-2.8291,-2.8291,-2.8291,-2.8291,-2.8291,-2.8291,-2.8291,-2.8291,-2.8291,-2.8291,-2.8291,-2.8291,-2.8291,-2.8291,-2.8291,-2.8291,-2.8291,-2.8291,-2.8291,-2.8164,-2.7861,-2.8135,-2.8291,-2.8291,-2.8291,-2.8144,-2.7851,-2.7851,-2.7637,-2.7207,-2.7207,-2.6982,-2.6572,-2.6545,-2.6448,-2.6279,-2.6585,-2.7342,-2.8519,-2.8993,-2.9818,-3.0777,-3.0654,-3.0621,-3.0576,-3.0306,-3.0621,-3.1214,-3.1492,-3.1581,-3.1536,-3.1169,-3.108,-3.1214,-3.1845,-3.2033,-3.222,-3.2896,-3.2939,-3.2853,-3.3038,-3.3124,-3.3124,-3.3124,-3.3124,-3.3124,-3.3124,-3.2754,-3.2416,-3.224,-3.1901,-3.1461,-3.0934,-3.0846,-3.0658,-3.0118,-3.0043,-2.998,-2.9817,-2.9792,-2.9792,-2.9792,-2.9792,-2.9792,-2.9792,-2.9792,-2.9792,-2.9792,-2.9792,-2.9792,-2.9792,-2.9792,-2.9792,-2.9792,-2.9792,-2.9792,-2.9792,-2.9792,-2.9792,-2.9792,-2.9792,-2.9792,-2.9792,-2.9792,-2.9792,-2.9792,-2.9792,-2.9792,-2.9792,-2.9792,-2.9792,-2.9792,-2.9792,-2.9792,-2.9792,-2.8291,-2.8291,-2.8291,-2.8291,-2.8291,-2.8291,-2.8291,-2.8291,-2.8291,-2.8291,-2.8291,-2.8291,-2.8291,-2.8291,-2.8291,-2.8291,-2.8135,-2.7969,-2.7803,-2.7793,-2.7676,-2.7412,-2.7656,-2.7793,-2.7793,-2.7793,-2.7666,-2.7402,-2.7402,-2.7187,-2.6768,-2.6768,-2.6543,-2.6133,-2.6133,-2.6075,-2.5965,-2.637,-2.701,-2.784,-2.8495,-2.9177,-2.9772,-2.9669,-2.9635,-2.9532,-2.9084,-2.9314,-2.9943,-3.0204,-3.0621,-3.0946,-3.0396,-3.0215,-3.0396,-3.1303,-3.1536,-3.1713,-3.2667,-3.2766,-3.2636,-3.2779,-3.2865,-3.2939,-3.2939,-3.3025,-3.3048,-3.278,-3.2453,-3.2089,-3.1662,-3.1311,-3.0909,-3.0382,-3.0281,-3.0168,-2.9842,-2.9792,-2.9792,-2.9792,-2.9792,-2.9792,-2.9792,-2.9792,-2.9792,-2.9792,-2.9792,-2.9792,-2.9792,-2.9792,-2.9792,-2.9792,-2.9792,-2.9792,-2.9792,-2.9792,-2.9792,-2.9792,-2.9792,-2.9792,-2.9792,-2.9792,-2.9792,-2.9792,-2.9792,-2.9792,-2.9792,-2.9792,-2.9792,-2.9792,-2.9792,-2.9792,-2.9792,-2.9792,-2.9792,-2.9792,-2.8174,-2.8174,-2.8174,-2.8174,-2.8174,-2.8174,-2.8174,-2.8174,-2.8174,-2.8174,-2.8174,-2.8174,-2.8174,-2.8174,-2.8174,-2.8174,-2.7832,-2.7441,-2.7041,-2.7012,-2.6992,-2.6963,-2.6963,-2.6943,-2.6894,-2.6973,-2.6992,-2.6963,-2.6963,-2.6738,-2.6328,-2.6328,-2.6113,-2.5693,-2.5693,-2.5693,-2.5781,-2.6686,-2.72,-2.7542,-2.868,-2.9269,-2.9453,-2.8749,-2.8491,-2.8351,-2.7262,-2.7081,-2.7478,-2.8096,-2.9108,-3.0034,-2.9886,-2.9943,-3.0215,-3.1036,-3.1214,-3.1303,-3.2164,-3.2232,-3.2113,-3.2113,-3.2196,-3.2364,-3.2593,-3.2821,-3.283,-3.2252,-3.2102,-3.1775,-3.0796,-3.057,-3.0382,-2.988,-2.9792,-2.9792,-2.9792,-2.9792,-2.9792,-2.9792,-2.9792,-2.9792,-2.9753,-2.9753,-2.9753,-2.9753,-2.9792,-2.9792,-2.9792,-2.9792,-2.9792,-2.9792,-2.9792,-2.9792,-2.9792,-2.9792,-2.9792,-2.9792,-2.9792,-2.9792,-2.9792,-2.9792,-2.9792,-2.9792,-2.9792,-2.9792,-2.9792,-2.9792,-2.9792,-2.9792,-2.9792,-2.9792,-2.9792,-2.9792,-2.9753,-2.9663,-2.7295,-2.7295,-2.7295,-2.7295,-2.7295,-2.7295,-2.7295,-2.7295,-2.7295,-2.7295,-2.7295,-2.7295,-2.7295,-2.7295,-2.7295,-2.7295,-2.7207,-2.7119,-2.7021,-2.7012,-2.6865,-2.6533,-2.6523,-2.6367,-2.5976,-2.667,-2.6855,-2.6523,-2.6523,-2.6299,-2.583,-2.583,-2.5781,-2.5693,-2.5693,-2.5693,-2.5684,-2.5917,-2.6187,-2.6476,-2.6696,-2.6982,-2.7183,-2.7051,-2.6965,-2.6965,-2.6688,-2.7231,-2.8107,-2.8226,-2.8609,-2.8806,-2.7657,-2.7987,-2.8781,-2.8727,-2.9223,-2.9875,-3.0045,-2.992,-2.9749,-2.9749,-2.9522,-2.9815,-3.1669,-3.2234,-3.224,-3.1687,-3.1248,-3.0896,-3.0658,-3.0269,-2.993,-2.9817,-2.9792,-2.9792,-2.9792,-2.9792,-2.9792,-2.9792,-2.9792,-2.9702,-2.9509,-2.947,-2.947,-2.947,-2.9702,-2.9792,-2.9792,-2.9792,-2.9792,-2.9792,-2.9792,-2.9792,-2.9792,-2.9792,-2.9792,-2.9792,-2.9792,-2.9792,-2.9792,-2.9792,-2.9792,-2.9792,-2.9792,-2.9792,-2.9792,-2.9792,-2.9792,-2.9792,-2.9792,-2.9792,-2.9792,-2.9792,-2.9378,-2.8581,-2.7012,-2.7012,-2.7012,-2.7012,-2.7012,-2.7012,-2.7012,-2.7012,-2.7012,-2.7012,-2.7012,-2.7012,-2.7012,-2.7012,-2.6934,-2.6738,-2.6719,-2.6631,-2.6366,-2.6356,-2.6309,-2.6084,-2.6084,-2.5967,-2.5693,-2.6132,-2.6299,-2.6084,-2.6084,-2.5967,-2.5693,-2.5693,-2.5693,-2.5693,-2.5693,-2.5693,-2.5693,-2.5693,-2.5781,-2.5917,-2.6052,-2.6197,-2.6294,-2.6448,-2.6602,-2.6651,-2.64,-2.6706,-2.7258,-2.741,-2.7505,-2.7526,-2.6726,-2.6976,-2.7526,-2.784,-2.8204,-2.8634,-2.9096,-2.905,-2.8811,-2.8637,-2.8497,-2.8701,-2.996,-3.0548,-3.0699,-3.0175,-3.022,-3.0214,-2.994,-2.9733,-2.9611,-2.9611,-2.9702,-2.9792,-2.9792,-2.9792,-2.9792,-2.9792,-2.9792,-2.974,-2.9599,-2.9599,-2.9599,-2.9599,-2.9702,-2.9792,-2.9792,-2.9792,-2.9792,-2.9792,-2.9702,-2.9611,-2.9611,-2.9611,-2.9611,-2.9599,-2.974,-2.9792,-2.9792,-2.9792,-2.9792,-2.9792,-2.9792,-2.9792,-2.9792,-2.9792,-2.9792,-2.9792,-2.9792,-2.9792,-2.9753,-2.9326,-2.8633,-2.7758,-2.6797,-2.6797,-2.6797,-2.6797,-2.6797,-2.6797,-2.6797,-2.6797,-2.6797,-2.6797,-2.6797,-2.6797,-2.6797,-2.6797,-2.666,-2.6309,-2.6279,-2.6123,-2.5713,-2.5693,-2.5693,-2.5693,-2.5693,-2.5693,-2.5693,-2.5693,-2.5693,-2.5693,-2.5693,-2.5693,-2.5693,-2.5693,-2.5693,-2.5693,-2.5693,-2.5693,-2.5693,-2.5693,-2.5732,-2.5781,-2.5955,-2.6052,-2.61,-2.6304,-2.6506,-2.6661,-2.6207,-2.6052,-2.6139,-2.6352,-2.6448,-2.6496,-2.64,-2.6496,-2.6812,-2.7379,-2.7521,-2.7673,-2.8272,-2.8244,-2.8,-2.7659,-2.7704,-2.7787,-2.7653,-2.8477,-2.9117,-2.858,-2.9176,-2.9684,-2.9177,-2.9236,-2.9341,-2.9341,-2.9534,-2.9675,-2.9675,-2.9675,-2.9675,-2.9675,-2.9663,-2.9624,-2.9675,-2.9663,-2.9624,-2.9624,-2.9663,-2.9675,-2.9675,-2.9675,-2.9675,-2.9675,-2.947,-2.9341,-2.9341,-2.9211,-2.9133,-2.9172,-2.9404,-2.9624,-2.9792,-2.9792,-2.9792,-2.9792,-2.9792,-2.9792,-2.9792,-2.9792,-2.9792,-2.9792,-2.9792,-2.9792,-2.9663,-2.8633,-2.7678,-2.6987,-2.5859,-2.5859,-2.5859,-2.5859,-2.5859,-2.5859,-2.5859,-2.5859,-2.5859,-2.5859,-2.5859,-2.5859,-2.5859,-2.5859,-2.584,-2.5781,-2.5771,-2.5752,-2.5693,-2.5693,-2.5693,-2.5693,-2.5693,-2.5693,-2.5693,-2.5693,-2.5693,-2.5693,-2.5693,-2.5693,-2.5693,-2.5693,-2.5693,-2.5693,-2.5693,-2.5693,-2.5693,-2.5693,-2.582,-2.6052,-2.582,-2.5868,-2.61,-2.5868,-2.583,-2.583,-2.5781,-2.5917,-2.61,-2.6149,-2.6304,-2.64,-2.5975,-2.6572,-2.7268,-2.6284,-2.66,-2.7105,-2.6332,-2.5861,-2.5543,-2.554,-2.5528,-2.5337,-2.4611,-2.666,-2.8569,-2.801,-2.8622,-2.919,-2.9116,-2.9131,-2.9131,-2.9131,-2.917,-2.917,-2.917,-2.917,-2.917,-2.917,-2.904,-2.9,-2.917,-2.9052,-2.8922,-2.8922,-2.9091,-2.917,-2.917,-2.917,-2.917,-2.917,-2.917,-2.9131,-2.9131,-2.8383,-2.8091,-2.8303,-2.8319,-2.8858,-2.9792,-2.9792,-2.9792,-2.9792,-2.9792,-2.9792,-2.9792,-2.9792,-2.9792,-2.9792,-2.9792,-2.9792,-2.9585,-2.7891,-2.673,-2.5872,-2.5693,-2.5693,-2.5693,-2.5693,-2.5693,-2.5693,-2.5693,-2.5693,-2.5693,-2.5693,-2.5693,-2.5693,-2.5693,-2.5693,-2.5693,-2.5693,-2.5693,-2.5693,-2.5693,-2.5693,-2.5693,-2.5693,-2.5693,-2.5693,-2.5693,-2.5693,-2.5693,-2.5693,-2.5693,-2.5693,-2.5693,-2.5693,-2.5693,-2.5693,-2.5693,-2.5693,-2.5693,-2.5693,-2.5781,-2.5878,-2.5732,-2.5781,-2.5868,-2.5732,-2.5781,-2.5917,-2.5917,-2.5917,-2.5868,-2.5868,-2.5975,-2.6024,-2.5781,-2.611,-2.6428,-2.5878,-2.6004,-2.6224,-2.5564,-2.5215,-2.4998,-2.4519,-2.437,-2.4192,-2.3565,-2.4907,-2.6239,-2.5988,-2.7069,-2.8035,-2.8035,-2.8514,-2.8922,-2.8922,-2.9013,-2.9091,-2.9091,-2.9091,-2.9091,-2.9091,-2.8593,-2.8474,-2.9052,-2.8131,-2.7919,-2.8882,-2.8593,-2.8593,-2.9052,-2.9091,-2.9091,-2.9091,-2.8633,-2.8383,-2.8383,-2.7597,-2.7313,-2.7395,-2.7504,-2.8079,-2.9079,-2.9585,-2.9792,-2.9792,-2.9792,-2.9534,-2.904,-2.8897,-2.8621,-2.8263,-2.8171,-2.7891,-2.7516,-2.7232,-2.6246,-2.5105]}]]